[[{"header":{"parameterUnit":"m.s-1","parameterCategory":1,"la1":30.6,"la2":28.766,"lo1":-90.7593,"lo2":-88.6598,"dy":0.0162,"dx":0.0183,"nx":116,"ny":114,"refTime":"2023-07-25T12:00:00:Z","depth":0,"parameterNumber":2,"parameterNumberName":"U-component_of_WINDS"},"data":[0.0,0.0,0.0,0.0,0.0,0.0,0.0,0.0,0.0,0.0,0.0,0.0,0.0,0.0,0.0,0.0,0.0,0.0,0.0,0.0,0.0,0.0,0.0,0.0,0.0,0.0,0.0,0.0,0.0,0.0,0.0,0.0,0.0,0.0,0.0,0.0,0.0,0.0,0.0,0.0,0.0,0.0,0.0,0.0,0.0,0.0,0.0,0.0,0.0,0.0,0.0,0.0,0.0,0.0,0.0,0.0,0.0,0.0,0.0,0.0,0.0,0.0,0.0,0.0,0.0,0.0,0.0,0.0,0.0,0.0,0.0,0.0,0.0,0.0,0.0,0.0,0.0,0.0,0.0,0.0,0.0,0.0,0.0,0.0,0.0,0.0,0.0,0.0,0.0,0.0,0.0,0.0,0.0,0.0,0.0,0.0,0.0,0.0,0.0,0.0,0.0,0.0,0.0,0.0,0.0,0.0,0.0,0.0,0.0,0.0,0.0,0.0,0.0,0.0,0.0,0.0,0.0,0.0,0.0,0.0,0.0,0.0,0.0,0.0,0.0,0.0,0.0,0.0,0.0,0.0,0.0,0.0,0.0,0.0,0.0,0.0,0.0,0.0,0.0,0.0,0.0,0.0,0.0,0.0,0.0,0.0,0.0,0.0,0.0,0.0,0.0,0.0,0.0,0.0,0.0,0.0,0.0,0.0,0.0,0.0,0.0,0.0,0.0,0.0,0.0,0.0,0.0,0.0,0.0,0.0,0.0,0.0,0.0,0.0,0.0,0.0,0.0,0.0,0.0,0.0,0.0,0.0,0.0,0.0,0.0,0.0,0.0,0.0,0.0,0.0,0.0,0.0,0.0,0.0,0.0,0.0,0.0,0.0,0.0,0.0,0.0,0.0,0.0,0.0,0.0,0.0,0.0,0.0,0.0,0.0,0.0,0.0,0.0,0.0,0.0,0.0,0.0,0.0,0.0,0.0,0.0,0.0,0.0,0.0,0.0,0.0,0.0,0.0,0.0,0.0,0.0,0.0,0.0,0.0,0.0,0.0,0.0,0.0,0.0,0.0,0.0,0.0,0.0,0.0,0.0,0.0,0.0,0.0,0.0,0.0,0.0,0.0,0.0,0.0,0.0,0.0,0.0,0.0,0.0,0.0,0.0,0.0,0.0,0.0,0.0,0.0,0.0,0.0,0.0,0.0,0.0,0.0,0.0,0.0,0.0,0.0,0.0,0.0,0.0,0.0,0.0,0.0,0.0,0.0,0.0,0.0,0.0,0.0,0.0,0.0,0.0,0.0,0.0,0.0,0.0,0.0,0.0,0.0,0.0,0.0,0.0,0.0,0.0,0.0,0.0,0.0,0.0,0.0,0.0,0.0,0.0,0.0,0.0,0.0,0.0,0.0,0.0,0.0,0.0,0.0,0.0,0.0,0.0,0.0,0.0,0.0,0.0,0.0,0.0,0.0,0.0,0.0,0.0,0.0,0.0,0.0,0.0,0.0,0.0,0.0,0.0,0.0,0.0,0.0,0.0,0.0,0.0,0.0,0.0,0.0,0.0,0.0,0.0,0.0,0.0,0.0,0.0,0.0,0.0,0.0,0.0,0.0,0.0,0.0,0.0,0.0,0.0,0.0,0.0,0.0,0.0,0.0,0.0,0.0,0.0,0.0,0.0,0.0,0.0,0.0,0.0,0.0,0.0,0.0,0.0,0.0,0.0,0.0,0.0,0.0,0.0,0.0,0.0,0.0,0.0,0.0,0.0,0.0,0.0,0.0,0.0,0.0,0.0,0.0,0.0,0.0,0.0,0.0,0.0,0.0,0.0,0.0,0.0,0.0,0.0,0.0,0.0,0.0,0.0,0.0,0.0,0.0,0.0,0.0,0.0,0.0,0.0,0.0,0.0,0.0,0.0,0.0,0.0,0.0,0.0,0.0,0.0,0.0,0.0,0.0,0.0,0.0,0.0,0.0,0.0,0.0,0.0,0.0,0.0,0.0,0.0,0.0,0.0,0.0,0.0,0.0,0.0,0.0,0.0,0.0,0.0,0.0,0.0,0.0,0.0,0.0,0.0,0.0,0.0,0.0,0.0,0.0,0.0,0.0,0.0,0.0,0.0,0.0,0.0,0.0,0.0,0.0,0.0,0.0,0.0,0.0,0.0,0.0,0.0,0.0,0.0,0.0,0.0,0.0,0.0,0.0,0.0,0.0,0.0,0.0,0.0,0.0,0.0,0.0,0.0,0.0,0.0,0.0,0.0,0.0,0.0,0.0,0.0,0.0,0.0,0.0,0.0,0.0,0.0,0.0,0.0,0.0,0.0,0.0,0.0,0.0,0.0,0.0,0.0,0.0,0.0,0.0,0.0,0.0,0.0,0.0,0.0,0.0,0.0,0.0,0.0,0.0,0.0,0.0,0.0,0.0,0.0,0.0,0.0,0.0,0.0,0.0,0.0,0.0,0.0,0.0,0.0,0.0,0.0,0.0,0.0,0.0,0.0,0.0,0.0,0.0,0.0,0.0,0.0,0.0,0.0,0.0,0.0,0.0,0.0,0.0,0.0,0.0,0.0,0.0,0.0,0.0,0.0,0.0,0.0,0.0,0.0,0.0,0.0,0.0,0.0,0.0,0.0,0.0,0.0,0.0,0.0,0.0,0.0,0.0,0.0,0.0,0.0,0.0,0.0,0.0,0.0,0.0,0.0,0.0,0.0,0.0,0.0,0.0,0.0,0.0,0.0,0.0,0.0,0.0,0.0,0.0,0.0,0.0,0.0,0.0,0.0,0.0,0.0,0.0,0.0,0.0,0.0,0.0,0.0,0.0,0.0,0.0,0.0,0.0,0.0,0.0,0.0,0.0,0.0,0.0,0.0,0.0,0.0,0.0,0.0,0.0,0.0,0.0,0.0,0.0,0.0,0.0,0.0,0.0,0.0,0.0,0.0,0.0,0.0,0.0,0.0,0.0,0.0,0.0,0.0,0.0,0.0,0.0,0.0,0.0,0.0,0.0,0.0,0.0,0.0,0.0,0.0,0.0,0.0,0.0,0.0,0.0,0.0,0.0,0.0,0.0,0.0,0.0,0.0,0.0,0.0,0.0,0.0,0.0,0.0,0.0,0.0,0.0,0.0,0.0,0.0,0.0,0.0,0.0,0.0,0.0,0.0,0.0,0.0,0.0,0.0,0.0,0.0,0.0,0.0,0.0,0.0,0.0,0.0,0.0,0.0,0.0,0.0,0.0,0.0,0.0,0.0,0.0,0.0,0.0,0.0,0.0,0.0,0.0,0.0,0.0,0.0,0.0,0.0,0.0,0.0,0.0,0.0,0.0,0.0,0.0,0.0,0.0,0.0,0.0,0.0,0.0,0.0,0.0,0.0,0.0,0.0,0.0,0.0,0.0,0.0,0.0,0.0,0.0,0.0,0.0,0.0,0.0,0.0,0.0,0.0,0.0,0.0,0.0,0.0,0.0,0.0,0.0,0.0,0.0,0.0,0.0,0.0,0.0,0.0,0.0,0.0,0.0,0.0,0.0,0.0,0.0,0.0,0.0,0.0,0.0,0.0,0.0,0.0,0.0,0.0,0.0,0.0,0.0,0.0,0.0,0.0,0.0,0.0,0.0,0.0,0.0,0.0,0.0,0.0,0.0,0.0,0.0,0.0,0.0,0.0,0.0,0.0,0.0,0.0,0.0,0.0,0.0,0.0,0.0,0.0,0.0,0.0,0.0,0.0,0.0,0.0,0.0,0.0,0.0,0.0,0.0,0.0,0.0,0.0,0.0,0.0,0.0,0.0,0.0,0.0,0.0,0.0,0.0,0.0,0.0,0.0,0.0,0.0,0.0,0.0,0.0,0.0,0.0,0.0,0.0,0.0,0.0,0.0,0.0,0.0,0.0,0.0,0.0,0.0,0.0,0.0,0.0,0.0,0.0,0.0,0.0,0.0,0.0,0.0,0.0,0.0,0.0,0.0,0.0,0.0,0.0,0.0,0.0,0.0,0.0,0.0,0.0,0.0,0.0,0.0,0.0,0.0,0.0,0.0,0.0,0.0,0.0,0.0,0.0,0.0,0.0,0.0,0.0,0.0,0.0,0.0,0.0,0.0,0.0,0.0,0.0,0.0,0.0,0.0,0.0,0.0,0.0,0.0,0.0,0.0,0.0,0.0,0.0,0.0,0.0,0.0,0.0,0.0,0.0,0.0,0.0,0.0,0.0,0.0,0.0,0.0,0.0,0.0,0.0,0.0,0.0,0.0,0.0,0.0,0.0,0.0,0.0,0.0,0.0,0.0,0.0,0.0,0.0,0.0,0.0,0.0,0.0,0.0,0.0,0.0,0.0,0.0,0.0,0.0,0.0,0.0,0.0,0.0,0.0,0.0,0.0,0.0,0.0,0.0,0.0,0.0,0.0,0.0,0.0,0.0,0.0,0.0,0.0,0.0,0.0,0.0,0.0,0.0,0.0,0.0,0.0,0.0,0.0,0.0,0.0,0.0,0.0,0.0,0.0,0.0,0.0,0.0,0.0,0.0,0.0,0.0,0.0,0.0,0.0,0.0,0.0,0.0,0.0,0.0,0.0,0.0,0.0,0.0,0.0,0.0,0.0,0.0,0.0,0.0,0.0,0.0,0.0,0.0,0.0,0.0,0.0,0.0,0.0,0.0,0.0,0.0,0.0,0.0,0.0,0.0,0.0,0.0,0.0,0.0,0.0,0.0,0.0,0.0,0.0,0.0,0.0,0.0,0.0,0.0,0.0,0.0,0.0,0.0,0.0,0.0,0.0,0.0,0.0,0.0,0.0,0.0,0.0,0.0,0.0,0.0,0.0,0.0,0.0,0.0,0.0,0.0,0.0,0.0,0.0,0.0,0.0,0.0,0.0,0.0,0.0,0.0,0.0,0.0,0.0,0.0,0.0,0.0,0.0,0.0,0.0,0.0,0.0,0.0,0.0,0.0,0.0,0.0,0.0,0.0,0.0,0.0,0.0,0.0,0.0,0.0,0.0,0.0,0.0,0.0,0.0,0.0,0.0,0.0,0.0,0.0,0.0,0.0,0.0,0.0,0.0,0.0,0.0,0.0,0.0,0.0,0.0,0.0,0.0,0.0,0.0,0.0,0.0,0.0,0.0,0.0,0.0,0.0,0.0,0.0,0.0,0.0,0.0,0.0,0.0,0.0,0.0,0.0,0.0,0.0,0.0,0.0,0.0,0.0,0.0,0.0,0.0,0.0,0.0,0.0,0.0,0.0,0.0,0.0,0.0,0.0,0.0,0.0,0.0,0.0,0.0,0.0,0.0,0.0,0.0,0.0,0.0,0.0,0.0,0.0,0.0,0.0,0.0,0.0,0.0,0.0,0.0,0.0,0.0,0.0,0.0,0.0,0.0,0.0,0.0,0.0,0.0,0.0,0.0,0.0,0.0,0.0,0.0,0.0,0.0,0.0,0.0,0.0,0.0,0.0,0.0,0.0,0.0,0.0,0.0,0.0,0.0,0.0,0.0,0.0,0.0,0.0,0.0,0.0,0.0,0.0,0.0,0.0,0.0,0.0,0.0,0.0,0.0,0.0,0.0,0.0,0.0,0.0,0.0,0.0,0.0,0.0,0.0,0.0,0.0,0.0,0.0,0.0,0.0,0.0,0.0,0.0,0.0,0.0,0.0,0.0,0.0,0.0,0.0,0.0,0.0,0.0,0.0,0.0,0.0,0.0,0.0,0.0,0.0,0.0,0.0,0.0,0.0,0.0,0.0,0.0,0.0,0.0,0.0,0.0,0.0,0.0,0.0,0.0,0.0,0.0,0.0,0.0,0.0,0.0,0.0,0.0,0.0,0.0,0.0,0.0,0.0,0.0,0.0,0.0,0.0,0.0,0.0,0.0,0.0,0.0,0.0,0.0,0.0,0.0,0.0,0.0,0.0,0.0,0.0,0.0,0.0,0.0,0.0,0.0,0.0,0.0,0.0,0.0,0.0,0.0,0.0,0.0,0.0,0.0,0.0,0.0,0.0,0.0,0.0,0.0,0.0,0.0,0.0,0.0,0.0,0.0,0.0,0.0,0.0,0.0,0.0,0.0,0.0,0.0,0.0,0.0,0.0,0.0,0.0,0.0,0.0,0.0,0.0,-1.8689,0.0,0.0,0.0,0.0,0.0,0.0,0.0,0.0,0.0,0.0,0.0,0.0,0.0,0.0,0.0,0.0,0.0,0.0,0.0,0.0,0.0,0.0,0.0,0.0,0.0,0.0,0.0,0.0,0.0,0.0,0.0,0.0,0.0,0.0,0.0,0.0,0.0,0.0,0.0,0.0,0.0,0.0,0.0,0.0,0.0,0.0,0.0,0.0,0.0,0.0,0.0,0.0,0.0,0.0,0.0,0.0,0.0,0.0,0.0,0.0,0.0,0.0,0.0,0.0,0.0,0.0,0.0,0.0,0.0,0.0,0.0,0.0,0.0,0.0,0.0,0.0,0.0,0.0,0.0,0.0,0.0,0.0,0.0,0.0,0.0,0.0,0.0,0.0,0.0,0.0,0.0,0.0,0.0,0.0,0.0,0.0,0.0,0.0,0.0,0.0,0.0,0.0,0.0,0.0,0.0,0.0,0.0,0.0,0.0,0.0,0.0,0.0,0.0,0.0,0.0,0.0,-2.0204,0.0,0.0,0.0,0.0,0.0,0.0,0.0,0.0,0.0,0.0,0.0,0.0,0.0,0.0,0.0,0.0,0.0,0.0,0.0,0.0,0.0,0.0,0.0,0.0,0.0,0.0,0.0,0.0,0.0,0.0,0.0,0.0,0.0,0.0,0.0,0.0,0.0,0.0,0.0,0.0,0.0,0.0,0.0,0.0,0.0,0.0,0.0,0.0,0.0,0.0,0.0,0.0,0.0,0.0,0.0,0.0,0.0,0.0,0.0,0.0,0.0,0.0,0.0,0.0,0.0,0.0,0.0,0.0,0.0,0.0,0.0,0.0,0.0,0.0,0.0,0.0,0.0,0.0,0.0,0.0,0.0,0.0,0.0,0.0,0.0,0.0,0.0,0.0,0.0,0.0,0.0,0.0,0.0,0.0,0.0,0.0,0.0,0.0,0.0,0.0,0.0,0.0,0.0,0.0,0.0,0.0,0.0,0.0,-2.3946,-2.3619,-2.3088,-2.3732,-2.4008,-2.3897,-2.3214,-2.2282,-2.1206,-2.1057,0.0,0.0,0.0,0.0,0.0,0.0,0.0,0.0,0.0,0.0,0.0,0.0,0.0,0.0,0.0,0.0,0.0,0.0,0.0,0.0,0.0,0.0,0.0,0.0,0.0,0.0,0.0,0.0,0.0,0.0,0.0,0.0,0.0,0.0,0.0,0.0,0.0,0.0,-2.5338,-2.6065,-2.6335,-2.6081,0.0,0.0,0.0,0.0,0.0,0.0,0.0,0.0,0.0,0.0,0.0,0.0,0.0,0.0,0.0,0.0,0.0,0.0,0.0,0.0,0.0,0.0,0.0,0.0,0.0,0.0,0.0,0.0,0.0,0.0,0.0,0.0,0.0,0.0,0.0,0.0,0.0,0.0,0.0,0.0,0.0,0.0,0.0,0.0,-2.2825,-2.2659,0.0,0.0,0.0,0.0,0.0,0.0,0.0,0.0,0.0,0.0,0.0,0.0,0.0,-2.4593,-2.547,-2.6339,-2.7211,-2.8026,-2.8091,-2.8082,-2.8062,-2.8172,-2.7824,-2.7166,-2.7074,0.0,-2.2745,-2.2041,0.0,0.0,0.0,0.0,0.0,0.0,0.0,0.0,0.0,0.0,0.0,0.0,0.0,0.0,0.0,0.0,0.0,0.0,0.0,0.0,0.0,0.0,0.0,0.0,0.0,0.0,0.0,0.0,0.0,0.0,0.0,0.0,0.0,0.0,0.0,0.0,-2.5423,-2.6742,-2.7537,-2.8687,-2.9228,-2.9194,-2.8535,-2.7351,-2.5773,-2.5088,0.0,0.0,0.0,0.0,0.0,0.0,0.0,0.0,0.0,0.0,0.0,0.0,0.0,0.0,0.0,0.0,0.0,0.0,0.0,0.0,0.0,0.0,0.0,0.0,0.0,0.0,0.0,0.0,0.0,0.0,0.0,0.0,0.0,0.0,0.0,0.0,0.0,0.0,0.0,-2.2816,-2.2632,-2.2515,-2.2487,-2.2487,0.0,0.0,0.0,0.0,0.0,0.0,0.0,0.0,0.0,-2.5749,-2.6452,-2.7296,-2.8301,-2.9319,-3.0377,-3.1428,-3.1508,-3.1349,-3.1011,-3.1011,-3.0595,-2.9787,-2.9347,-2.8103,-2.6254,-2.4081,-2.2736,-2.1994,0.0,0.0,0.0,0.0,-2.0844,-2.084,0.0,0.0,0.0,0.0,0.0,0.0,0.0,0.0,0.0,0.0,0.0,0.0,0.0,0.0,0.0,-2.3646,0.0,0.0,0.0,0.0,0.0,0.0,0.0,0.0,0.0,0.0,0.0,0.0,-2.7402,-2.8991,-3.0142,-3.1427,-3.2138,-3.2324,-3.2324,-3.0688,-2.7878,-2.6928,-2.6226,0.0,0.0,0.0,0.0,0.0,0.0,0.0,0.0,0.0,0.0,0.0,0.0,0.0,0.0,0.0,0.0,0.0,0.0,0.0,0.0,0.0,0.0,0.0,0.0,0.0,0.0,0.0,0.0,0.0,0.0,0.0,0.0,0.0,0.0,0.0,0.0,0.0,0.0,-2.287,-2.2856,-2.292,-2.2954,-2.2926,0.0,0.0,0.0,0.0,0.0,0.0,-2.6487,-2.6822,-2.7365,-2.8134,-2.892,-2.9845,-3.0959,-3.1852,-3.2862,-3.408,-3.4149,-3.3981,-3.355,-3.333,-3.2779,-3.1971,-3.1164,-3.0375,-2.9384,-2.6355,-2.4521,-2.3529,-2.2738,-2.2313,-2.2144,-2.1961,-2.1869,-2.1884,0.0,0.0,0.0,0.0,0.0,0.0,0.0,0.0,0.0,0.0,0.0,0.0,0.0,0.0,-2.3663,-2.4388,-2.4455,-2.4137,0.0,0.0,0.0,0.0,0.0,0.0,0.0,0.0,0.0,-2.762,-2.9228,-3.1089,-3.3203,-3.3964,-3.4709,-3.5402,-3.5402,-3.3744,-3.0869,-2.9451,-2.8454,-2.7658,0.0,0.0,0.0,0.0,0.0,0.0,0.0,0.0,0.0,0.0,0.0,0.0,0.0,0.0,0.0,0.0,0.0,0.0,0.0,0.0,0.0,0.0,0.0,0.0,0.0,0.0,0.0,0.0,0.0,0.0,0.0,0.0,0.0,0.0,0.0,0.0,0.0,0.0,0.0,-2.432,-2.4404,0.0,0.0,0.0,0.0,-2.549,-2.6843,-2.7994,-2.8808,-2.9559,-3.0326,-3.1091,-3.1391,-3.2048,-3.3123,-3.3563,-3.4443,-3.5688,-3.5824,-3.5956,-3.6083,-3.5275,-3.4449,-3.3623,-3.2834,-3.2027,-3.1091,-2.8631,-2.6686,-2.5201,-2.4373,-2.3602,-2.285,-2.2097,-2.1803,-2.1803,0.0,0.0,0.0,0.0,0.0,0.0,0.0,0.0,0.0,0.0,0.0,0.0,0.0,-2.4661,-2.5625,-2.5879,-2.5913,-2.5592,-2.4864,0.0,0.0,0.0,0.0,0.0,0.0,0.0,-2.7503,-2.9296,-3.1732,-3.3592,-3.4861,-3.6113,-3.684,-3.7094,-3.7094,-3.6502,-3.5351,-3.2882,-3.1162,-2.9932,-2.7691,-2.6156,0.0,0.0,0.0,0.0,0.0,0.0,0.0,0.0,0.0,0.0,0.0,0.0,0.0,0.0,0.0,0.0,0.0,0.0,0.0,0.0,0.0,0.0,0.0,0.0,0.0,0.0,0.0,0.0,0.0,0.0,0.0,0.0,0.0,0.0,0.0,0.0,0.0,-2.6488,-2.6623,0.0,-2.7368,-2.8061,-2.8501,-2.8501,-2.9854,-3.1021,-3.1782,-3.2551,-3.3337,-3.4168,-3.4915,-3.5624,-3.6326,-3.6728,-3.731,-3.8047,-3.7717,-3.7381,-3.7055,-3.6743,-3.5862,-3.4578,-3.4257,-3.3403,-3.2118,-3.1237,-2.9641,-2.764,-2.6833,-2.6025,-2.5217,-2.441,-2.4117,-2.4044,0.0,0.0,0.0,0.0,0.0,0.0,0.0,0.0,0.0,0.0,0.0,-2.3579,-2.4086,-2.5659,-2.6911,-2.7418,-2.7232,-2.6657,-2.5676,0.0,0.0,0.0,0.0,0.0,0.0,-2.7807,-2.982,-3.1579,-3.4049,-3.5774,-3.6772,-3.7787,-3.8396,-3.8633,-3.8633,-3.8633,-3.8497,-3.6248,-3.4176,-3.2184,-2.9963,-2.8235,-2.6802,0.0,0.0,0.0,0.0,0.0,0.0,0.0,0.0,0.0,0.0,0.0,0.0,0.0,0.0,0.0,0.0,0.0,0.0,0.0,0.0,0.0,0.0,0.0,0.0,0.0,0.0,0.0,0.0,0.0,0.0,0.0,0.0,0.0,0.0,0.0,-2.7672,-2.9144,-2.955,-2.9905,-3.0429,-3.114,-3.1579,-3.1579,-3.2966,-3.4015,-3.4523,-3.525,-3.5904,-3.6548,-3.725,-3.7818,-3.8273,-3.87,-3.8986,-3.9192,-3.8925,-3.8446,-3.7833,-3.7606,-3.6743,-3.544,-3.5119,-3.422,-3.2999,-3.2999,-3.1916,-3.0075,-2.8741,-2.7714,-2.6906,-2.6098,-2.5786,-2.5676,0.0,0.0,0.0,0.0,0.0,0.0,0.0,0.0,0.0,0.0,-2.297,-2.3985,-2.5423,-2.6268,-2.7334,-2.8822,-2.823,-2.7165,-2.571,-2.4881,0.0,0.0,0.0,0.0,-2.784,-3.0142,-3.2374,-3.4556,-3.6096,-3.7584,-3.8988,-3.9005,-3.9411,-4.007,-4.007,-4.007,-4.002,-3.9326,-3.733,-3.4438,-3.2222,-3.0467,-2.8982,0.0,0.0,0.0,0.0,0.0,0.0,0.0,0.0,0.0,0.0,0.0,0.0,0.0,0.0,0.0,0.0,0.0,0.0,0.0,0.0,0.0,0.0,0.0,0.0,0.0,0.0,0.0,0.0,0.0,0.0,0.0,0.0,0.0,-2.7891,-2.9245,-3.0768,-3.2239,-3.3068,-3.3525,-3.3541,-3.4184,-3.4607,-3.4607,-3.5994,-3.6857,-3.6857,-3.7567,-3.8021,-3.8193,-3.8252,-3.8494,-3.8964,-3.9287,-3.9305,-3.9085,-3.9369,-3.9137,-3.851,-3.7833,-3.7092,-3.6285,-3.544,-3.4596,-3.3844,-3.3807,-3.333,-3.2375,-2.9984,-2.8594,-2.7769,-2.6943,-2.6631,-2.6502,0.0,0.0,0.0,0.0,0.0,0.0,0.0,0.0,0.0,0.0,-2.341,-2.434,-2.4746,-2.642,-2.7689,-2.8095,-2.7435,-2.6607,-2.5659,0.0,0.0,0.0,0.0,0.0,-3.0226,-3.2442,-3.4438,-3.6146,-3.7652,-3.8599,-3.9005,-3.9529,-3.9884,-4.007,-4.007,-4.007,-4.007,-3.9868,-3.8988,-3.7567,-3.5301,-3.3508,-3.1992,0.0,0.0,0.0,0.0,0.0,0.0,0.0,0.0,0.0,0.0,0.0,0.0,0.0,0.0,0.0,0.0,0.0,0.0,0.0,0.0,0.0,0.0,0.0,0.0,0.0,0.0,0.0,0.0,0.0,0.0,0.0,0.0,-3.0277,-3.0277,-3.1562,-3.3254,-3.5301,-3.5723,-3.6079,-3.662,-3.6857,-3.6975,-3.6975,-3.7838,-3.8379,-3.8379,-3.9073,-3.9578,-3.9822,-3.9966,-4.025,-4.0734,-4.0461,-4.0486,-4.0739,-3.9912,-3.9446,-3.9351,-3.8695,-3.7918,-3.711,-3.6303,-3.5459,-3.4633,-3.4045,-3.333,-3.2485,-3.1237,-3.0246,-2.9365,-2.797,-2.7108,-2.6576,0.0,0.0,0.0,0.0,0.0,0.0,0.0,0.0,0.0,0.0,-2.3308,-2.4255,-2.4881,-2.6387,-2.7469,-2.7755,-2.7131,-2.6251,-2.5203,0.0,0.0,0.0,0.0,-3.0277,-3.2527,-3.4776,-3.6502,-3.7702,-3.887,-3.9614,-3.9935,-4.0358,-4.0713,-4.1001,-4.0679,-4.0544,-4.0527,-4.0206,-3.9834,-3.9343,-3.8024,-3.6417,-3.4573,-3.2381,-3.1099,-3.0255,-2.8731,-2.7964,-2.7605,-2.7095,0.0,0.0,0.0,0.0,0.0,0.0,0.0,0.0,0.0,0.0,0.0,0.0,0.0,0.0,0.0,0.0,0.0,0.0,0.0,0.0,0.0,0.0,0.0,0.0,-3.1106,-3.2916,-3.3863,-3.4742,-3.5893,-3.7516,-3.7973,-3.8328,-3.8768,-3.8819,-3.8819,-3.8819,-3.9208,-3.9445,-3.9445,-3.9851,-4.0188,-4.0387,-4.0485,-4.0745,-4.1105,-4.0998,-4.0941,-4.0998,-4.0202,-3.9763,-3.9586,-3.8962,-3.8267,-3.7441,-3.6652,-3.5807,-3.4935,-3.4137,-3.3532,0.0,0.0,0.0,0.0,0.0,-2.8007,-2.7567,0.0,0.0,0.0,0.0,0.0,0.0,0.0,0.0,0.0,0.0,0.0,-2.39,-2.522,-2.6015,-2.6725,-2.7385,-2.6759,-2.5761,0.0,0.0,0.0,-2.7958,-3.0328,-3.2594,-3.4827,-3.6958,-3.8396,-3.9106,-3.9851,-4.0544,-4.1204,-4.1288,-4.1677,-4.2252,-4.1627,-4.1322,-4.1288,-4.0527,-4.0206,-4.0206,-4.0104,-3.8853,-3.6806,-3.4709,-3.3389,-3.2584,-3.1811,-3.107,-3.0343,-2.974,0.0,0.0,0.0,0.0,0.0,0.0,0.0,0.0,0.0,0.0,0.0,0.0,0.0,0.0,0.0,0.0,0.0,0.0,0.0,0.0,0.0,0.0,0.0,0.0,-3.3609,-3.5757,-3.7973,-3.8345,-3.8582,-3.9056,-3.9681,-4.007,-4.007,-4.007,-4.007,-4.007,-4.007,-4.007,-4.007,0.0,0.0,0.0,0.0,-4.0453,-4.0697,-4.1041,-4.1024,-4.0669,-4.0533,-4.0149,-3.9615,-3.9077,-3.8395,-3.7569,-3.678,-3.5954,-3.5064,-3.4284,-3.3825,-3.3513,-3.199,-3.0907,-3.0099,-2.931,-2.8994,-2.8883,0.0,0.0,0.0,0.0,0.0,0.0,0.0,0.0,0.0,-2.231,-2.2936,-2.3511,-2.3782,-2.4475,-2.4966,-2.5118,-2.4458,-2.3917,0.0,0.0,-2.7926,-2.96,-3.2357,-3.4912,-3.7195,-3.8261,-3.914,-3.9868,-4.0629,-4.1068,-4.1221,-4.1813,-4.2151,-4.2286,-4.2151,-4.2083,-4.2033,-4.1305,-4.0984,-4.0933,-4.0324,-3.9478,-3.8447,-3.7415,-3.618,-3.4793,-3.3457,-3.2534,-3.1772,-3.1104,-3.054,-2.997,-2.9177,0.0,0.0,0.0,0.0,0.0,0.0,0.0,0.0,0.0,0.0,0.0,0.0,0.0,0.0,0.0,0.0,0.0,0.0,0.0,0.0,-3.5233,-3.706,-3.87,-4.0341,-4.1068,-4.1052,-3.9986,-3.9986,-4.007,-4.007,-4.007,-4.007,-4.007,-4.007,-4.007,-4.007,-4.007,-4.0188,-4.0305,-4.0305,-4.0485,-4.0888,-4.1088,-4.1393,-4.1771,0.0,0.0,-4.0518,-3.9932,-3.9221,-3.8414,-3.7606,-3.6798,-3.5973,-3.5128,-3.3982,-3.2742,-3.177,-3.0907,-3.0099,-2.931,-2.8994,-2.8975,0.0,0.0,0.0,0.0,0.0,0.0,0.0,0.0,0.0,0.0,-2.2632,-2.2987,-2.3359,-2.3714,-2.3934,-2.3934,-2.3613,0.0,0.0,-2.6945,-2.9397,-3.1664,-3.4252,-3.6518,-3.8413,-3.9157,-3.9715,-4.007,-4.046,-4.1018,-4.1762,-4.2117,-4.2692,-4.342,-4.3031,-4.2861,-4.2777,-4.1677,-4.1204,-4.1136,-4.0392,-3.9868,-3.9462,-3.8717,-3.7736,-3.662,-3.5504,-3.4607,-3.3829,-3.3126,-3.2519,-3.1888,-3.1233,-2.9886,-2.8334,0.0,0.0,0.0,0.0,0.0,0.0,0.0,0.0,0.0,0.0,0.0,0.0,0.0,0.0,-3.1418,0.0,0.0,-3.5402,-3.8024,-3.9377,-4.0493,-4.1593,-4.2066,-4.188,-4.0781,-4.0646,-4.0493,-4.0121,-4.007,-4.007,-4.007,-4.007,-4.007,-4.007,-4.007,-4.0188,-4.0305,-4.0305,-4.0453,-4.0793,-4.1088,-4.1418,-4.1899,-4.1647,-4.1451,-4.1321,-4.0335,-3.968,-3.9221,-3.801,-3.7257,-3.6798,-3.555,-3.4302,-3.3091,-3.1861,-3.0907,-3.0099,-2.931,-2.8994,-2.8994,0.0,0.0,0.0,0.0,0.0,0.0,0.0,0.0,0.0,0.0,-2.231,-2.253,-2.3122,-2.319,-2.319,0.0,0.0,0.0,0.0,-2.7994,-3.0615,-3.3288,-3.5707,-3.7618,-3.8954,-3.9698,-4.007,-4.007,-4.0223,-4.0916,-4.2083,-4.2371,-4.3166,-4.4333,-4.3859,-4.3639,-4.3555,-4.2049,-4.1407,-4.1339,-4.0443,-3.9986,-3.98,-3.9225,-3.8531,-3.7787,-3.6874,-3.5977,-3.5098,-3.4489,-3.3838,-3.3209,-3.2753,-3.1373,-2.9713,-2.876,-2.7278,0.0,0.0,0.0,0.0,0.0,0.0,0.0,0.0,0.0,-3.3935,-3.3861,-3.4322,-3.5129,-3.6429,-3.7221,-3.8328,-4.0426,-4.1255,-4.1897,-4.2625,-4.2743,-4.2405,-4.1525,-4.1288,-4.0967,-4.0358,-4.0155,-4.007,-4.007,-4.007,-4.007,-4.007,-4.007,-4.0188,-4.0305,-4.0355,-4.0485,-4.0745,-4.1071,-4.1463,-4.1821,-4.1773,-4.1831,-4.1922,-4.0701,-4.0047,-3.9808,-3.8193,-3.7507,-3.7349,-3.5697,-3.4633,-3.388,-3.2265,-3.1146,-3.032,-2.9342,-2.8994,-2.8994,0.0,0.0,0.0,0.0,0.0,0.0,0.0,0.0,0.0,0.0,0.0,0.0,0.0,0.0,0.0,0.0,0.0,0.0,-2.5558,-2.8958,-3.1681,-3.3339,-3.6214,-3.8159,-3.8971,-3.9698,-4.007,-4.007,-4.0747,-4.117,-4.1356,-4.2675,-4.3386,-4.3572,-4.4181,-4.4451,-4.435,-4.2811,-4.2168,-4.2049,-4.0646,-3.9698,-3.9106,-3.9022,-3.8531,-3.7719,-3.6265,-3.4844,-3.3643,-3.3558,-3.3117,-3.261,-3.2605,-3.2038,-3.0984,-2.9073,0.0,-2.6831,-2.5582,-2.6225,-2.7582,-2.9025,-3.0746,-3.2424,0.0,0.0,-3.6229,-3.6801,-3.7763,-3.8727,-3.9559,-4.0256,-4.1221,-4.2794,-4.3115,-4.3436,-4.4215,-4.4316,-4.3792,-4.2337,-4.1593,-4.117,-4.1085,-4.046,-4.007,-4.007,-4.007,-4.007,-4.007,-4.007,-4.0188,-4.0305,-4.0436,-4.0614,-4.0977,-4.1363,-4.1831,-4.2338,-4.26,-4.2559,-4.2134,-4.1321,-4.0579,-3.9808,-3.8193,-3.7507,-3.7349,-3.5697,-3.4935,-3.4697,-3.3109,-3.1971,-3.1072,-2.9567,-2.8994,-2.8994,0.0,0.0,0.0,0.0,0.0,0.0,0.0,0.0,0.0,0.0,0.0,0.0,0.0,0.0,0.0,0.0,0.0,0.0,-2.5524,-2.8298,-3.0768,-3.2662,-3.5199,-3.7144,-3.8328,-3.9073,-3.9648,-4.007,-4.0392,-4.0781,-4.1221,-4.1847,-4.2354,-4.2777,-4.3098,-4.325,-4.3183,-4.2117,-4.166,-4.1525,-4.0037,-3.9276,-3.8802,-3.7043,-3.618,-3.5842,-3.5199,-3.3457,0.0,0.0,-3.167,-3.1167,-3.1669,-3.1411,-3.0651,-2.9403,-2.8246,0.0,-2.6658,-2.8268,0.0,0.0,-3.3546,-3.5613,-3.6547,-3.8109,-3.9435,-3.9665,-4.0373,-4.1171,-4.1933,-4.2286,-4.2844,0.0,-4.4096,-4.4215,-4.4536,-4.4198,-4.3673,-4.3031,-4.1914,-4.1035,-4.0595,-4.0257,-4.007,-4.007,-4.007,-4.007,-4.007,-4.007,-4.0188,-4.0387,-4.0597,-4.0884,-4.1363,-4.1727,-4.2133,-4.2577,-4.292,-4.2996,-4.2864,-4.1632,-4.0414,-3.9166,-3.8487,-3.7918,-3.747,-3.6743,-3.5881,-3.488,-3.3752,-3.2816,-3.1898,-3.0301,-2.9402,-2.8994,0.0,0.0,0.0,0.0,0.0,0.0,0.0,0.0,0.0,0.0,0.0,0.0,0.0,0.0,0.0,0.0,0.0,0.0,0.0,-2.7402,-2.9465,-3.1331,-3.3711,-3.5622,-3.6941,-3.7889,-3.8734,-3.9478,-3.9478,-3.9766,-4.029,-4.051,-4.0882,-4.139,-4.1593,-4.1694,-4.1644,-4.0916,-4.0595,-4.046,-3.8988,-3.8125,-3.7483,-3.5098,-3.3541,-3.2679,-3.2899,-3.1478,0.0,0.0,-2.9465,-2.8991,-2.9847,-2.9822,-2.9417,-2.8956,-2.8299,-2.7742,-2.8142,0.0,0.0,-3.3965,-3.636,-3.8612,-3.9244,-4.0774,-4.2057,-4.2039,-4.2342,-4.2777,-4.3318,-4.325,-4.3352,-4.413,-4.4265,-4.4265,-4.4265,-4.3775,-4.3267,-4.2861,-4.1863,-4.0916,-4.0155,-4.007,-4.007,-4.007,-4.007,-4.0172,-4.0375,-4.0443,-4.0577,-4.0842,-4.1099,-4.1372,-4.1692,-4.211,-4.2476,-4.2806,-4.3087,-4.334,-4.3356,-4.1812,-4.023,-3.8707,-3.8707,-3.8377,-3.7808,-3.7569,-3.678,-3.5605,-3.4541,-3.3642,-3.2761,-3.1384,-3.0356,-2.9659,0.0,0.0,0.0,0.0,0.0,0.0,0.0,0.0,0.0,0.0,0.0,0.0,0.0,0.0,0.0,0.0,0.0,0.0,0.0,-2.6607,-2.8213,-2.9042,-3.1901,-3.3829,-3.4573,-3.6079,-3.7212,-3.7973,-3.7973,-3.799,-3.8024,-3.8734,-3.9073,-3.9123,-3.9868,-4.0189,-4.0138,-3.9377,-3.9056,-3.8937,-3.7449,-3.596,-3.4539,-3.3744,-3.119,-2.8129,-2.8873,0.0,0.0,0.0,-2.6353,-2.5912,-2.6839,-2.716,0.0,-2.7414,-2.7898,0.0,0.0,0.0,-3.4363,-3.662,-3.8877,-4.0783,-4.1521,-4.2672,-4.3552,-4.3552,-4.3461,-4.3386,-4.342,-4.2828,-4.2574,-4.3335,-4.3453,-4.3453,-4.3453,-4.3436,-4.2895,-4.1441,-4.1238,-4.0916,0.0,-4.007,-4.007,-4.007,-4.007,-4.0392,-4.1136,-4.1308,-4.1461,-4.1761,-4.215,-4.2223,-4.1892,-4.2351,-4.2765,-4.3104,-4.3287,-4.3446,-4.3442,-4.1846,-4.023,-3.8707,-3.8707,-3.8689,-3.8597,-3.7808,-3.7489,-3.7239,-3.5624,-3.4486,-3.366,-3.2834,-3.2027,-3.1329,0.0,0.0,0.0,0.0,0.0,0.0,0.0,0.0,0.0,0.0,0.0,0.0,0.0,0.0,0.0,0.0,0.0,0.0,0.0,-2.4915,-2.5947,-2.6708,-2.9127,-3.0818,-3.1562,-3.3525,-3.4912,-3.5639,-3.6146,-3.6383,-3.64,-3.6637,-3.6755,-3.6772,-3.7009,-3.7127,-3.711,-3.6857,-3.6468,-3.5926,-3.4928,-3.3643,-3.2121,-3.0362,-2.8619,-2.6911,0.0,0.0,0.0,0.0,0.0,0.0,-2.5278,0.0,0.0,-2.8041,-2.9199,-3.0387,0.0,0.0,-3.6706,-3.857,-4.0539,-4.2227,-4.2997,-4.3333,-4.3322,-4.2831,-4.2339,-4.1644,-4.0663,-4.0679,-4.0933,-4.1153,-4.1627,-4.2117,-4.2608,-4.2252,-4.1762,-4.1271,-4.0764,0.0,0.0,0.0,0.0,-4.007,-4.007,-4.0409,-4.117,-4.0883,-4.105,-4.1911,-4.1888,-4.1983,-4.2234,-4.2727,-4.3067,-4.3287,-4.3411,-4.2913,-4.1901,-4.1368,-4.023,-3.8707,-3.8707,-3.8707,-3.8689,-3.8414,-3.7973,-3.7452,-3.6872,-3.6156,-3.5422,-3.5147,-3.4523,-3.3568,0.0,0.0,0.0,0.0,0.0,0.0,0.0,0.0,0.0,0.0,0.0,0.0,0.0,0.0,0.0,0.0,0.0,0.0,0.0,0.0,-2.4306,-2.4797,-2.6725,-2.8129,-2.8873,-3.0548,-3.1765,-3.2527,-3.3271,-3.3643,-3.366,-3.3914,-3.4032,-3.4032,-3.4032,-3.4032,-3.4015,-3.3761,-3.3372,-3.2848,-3.1816,-3.0683,-2.9397,-2.7689,-2.6404,0.0,0.0,0.0,0.0,0.0,0.0,0.0,0.0,-2.5524,-2.7116,-2.8855,-3.058,-3.2319,0.0,-3.6702,-3.9133,-4.0654,-4.2241,-4.3541,-4.378,-4.3379,-4.2726,-4.1711,-4.0713,-3.9648,-3.843,-3.8379,-3.8684,-3.9208,-3.9918,-4.0663,-4.139,-4.1322,-4.1102,-4.0832,-4.0375,-4.007,0.0,0.0,0.0,-4.0188,-4.0425,-4.0951,-4.175,-4.1544,-4.1742,-4.2632,-4.2394,-4.2328,-4.2516,-4.2956,-4.3233,-4.3446,-4.3463,-4.2653,-4.1111,-4.1111,-4.023,-3.8707,-3.8707,-3.8707,-3.8707,-3.8707,-3.8395,-3.79,-3.7606,-3.7165,-3.6688,-3.6413,-3.5954,-3.5202,0.0,0.0,0.0,0.0,0.0,0.0,0.0,0.0,0.0,0.0,0.0,0.0,0.0,0.0,0.0,0.0,0.0,0.0,0.0,0.0,0.0,-2.3224,-2.4611,-2.5693,-2.6387,-2.7199,-2.796,-2.8687,-2.9499,-2.9888,-2.9905,-3.0615,-3.097,-3.097,-3.097,-3.097,-3.092,-3.0226,-2.9905,-2.9753,-2.8262,-2.7232,-2.6454,-2.5761,0.0,0.0,0.0,0.0,0.0,0.0,0.0,0.0,0.0,0.0,-2.8264,-2.9978,-3.2097,-3.4394,-3.6608,-3.9163,-4.1492,-4.2834,-4.4009,-4.4593,-4.3844,-4.2904,-4.173,-4.0222,-3.8732,-3.7432,0.0,0.0,-3.5943,-3.7432,-3.8345,-3.914,-3.9918,-4.0696,-4.0933,0.0,0.0,0.0,0.0,0.0,0.0,-4.0407,0.0,-4.1886,-4.2928,-4.3145,-4.3405,-4.3804,-4.3527,-4.3166,-4.2711,-4.3032,-4.3304,-4.3497,-4.3497,-4.2653,-4.1111,-4.1111,-4.023,-3.8707,-3.8707,-3.8707,-3.8707,-3.8707,-3.8707,-3.8615,-3.7845,-3.7551,-3.7489,-3.6688,-3.6395,-3.6248,0.0,0.0,0.0,0.0,0.0,0.0,0.0,0.0,0.0,0.0,0.0,0.0,0.0,0.0,0.0,0.0,0.0,0.0,0.0,0.0,0.0,0.0,0.0,0.0,0.0,0.0,0.0,0.0,0.0,-2.6759,-2.6776,-2.7503,-2.7841,0.0,-2.7841,-2.7841,-2.7841,-2.7638,-2.7249,-2.6725,0.0,-2.5389,-2.4222,0.0,0.0,0.0,0.0,0.0,0.0,0.0,0.0,0.0,0.0,0.0,-3.0391,-3.3241,0.0,-3.7093,-3.9441,-4.1637,-4.3535,-4.4393,-4.459,-4.4389,-4.3595,-4.181,-3.9774,-3.7592,-3.5924,-3.426,0.0,0.0,0.0,-3.4387,-3.6129,0.0,-3.9089,-4.0392,0.0,0.0,0.0,-4.1728,-4.1728,-4.1816,0.0,0.0,-4.1783,-4.2261,-4.3855,-4.3166,-4.3115,-4.4082,-4.3268,-4.2886,-4.3012,-4.3286,-4.3463,-4.3497,-4.3497,-4.2653,-4.1111,-4.1111,-4.023,-3.8707,-3.8707,-3.8707,-3.8707,-3.8707,-3.8707,-3.8689,-3.8469,-3.8395,-3.8377,-3.8228,-3.7768,-3.7235,0.0,0.0,0.0,0.0,0.0,0.0,0.0,0.0,0.0,0.0,0.0,0.0,0.0,0.0,0.0,0.0,0.0,0.0,0.0,0.0,0.0,0.0,0.0,0.0,0.0,0.0,0.0,0.0,0.0,0.0,0.0,-2.4425,-2.4763,-2.4763,-2.4763,-2.4763,-2.4746,0.0,0.0,0.0,0.0,0.0,0.0,0.0,0.0,0.0,0.0,0.0,0.0,0.0,0.0,-2.7935,-3.0339,-3.1785,-3.3241,-3.6451,0.0,-3.9817,-4.2083,-4.3685,-4.4752,-4.5052,-4.4576,-4.3638,-4.2102,-3.9945,-3.7491,-3.4747,-3.2938,0.0,0.0,0.0,0.0,0.0,0.0,0.0,-3.8469,-4.0254,-4.1393,0.0,-4.1952,0.0,-4.2286,-4.2428,-4.2774,0.0,-4.3166,-4.3487,-4.4733,-4.3944,-4.3846,-4.4657,-4.348,-4.2994,-4.3269,-4.3428,-4.3497,-4.3497,-4.3497,-4.2837,-4.1625,-4.1277,-4.0414,-3.9203,0.0,-3.8707,-3.8707,-3.8707,-3.8909,-3.9239,-3.9239,-3.9441,-3.9717,-3.9424,-3.9031,-3.8552,0.0,0.0,0.0,0.0,0.0,0.0,0.0,0.0,0.0,0.0,0.0,0.0,0.0,0.0,0.0,0.0,0.0,0.0,0.0,0.0,0.0,0.0,0.0,0.0,0.0,0.0,0.0,0.0,0.0,0.0,0.0,0.0,0.0,0.0,0.0,0.0,0.0,0.0,0.0,0.0,0.0,0.0,0.0,0.0,0.0,0.0,0.0,0.0,0.0,0.0,-2.7993,-2.981,-3.2977,-3.4727,-3.6272,-3.9494,-4.1097,-4.2345,-4.4474,-4.5382,-4.5638,-4.5439,-4.432,-4.2661,-4.0224,-3.7731,-3.5052,-3.1975,0.0,0.0,-2.7959,0.0,-2.9728,-3.1846,0.0,-3.644,-3.7929,-4.0151,-4.1677,-4.1665,-4.2296,-4.272,-4.2734,-4.2839,-4.3374,-4.4474,-4.4861,-4.5185,-4.5574,-4.5035,-4.4821,-4.5022,-4.387,-4.3304,-4.3497,-4.3497,-4.3497,-4.3497,-4.3497,-4.3075,-4.2286,-4.1589,-4.0763,-3.9863,-3.9276,-3.8964,-3.8872,-3.8982,-3.9441,-4.0065,-4.0065,-4.0487,-4.102,-4.043,-4.013,-3.9835,0.0,0.0,0.0,0.0,0.0,0.0,0.0,0.0,0.0,0.0,0.0,0.0,0.0,0.0,0.0,0.0,0.0,0.0,0.0,0.0,0.0,0.0,0.0,0.0,0.0,0.0,0.0,0.0,0.0,0.0,0.0,0.0,0.0,0.0,0.0,0.0,0.0,0.0,0.0,0.0,0.0,0.0,0.0,0.0,0.0,0.0,0.0,0.0,0.0,0.0,-2.9469,-3.1631,-3.4404,-3.6314,-3.82,-4.156,-4.3157,-4.4173,-4.5874,-4.6801,-4.7108,-4.6295,-4.4324,-4.1937,-3.9512,-3.606,0.0,0.0,0.0,-2.6877,-2.5889,-2.6801,0.0,-2.9799,0.0,0.0,0.0,0.0,-4.1574,0.0,0.0,0.0,0.0,0.0,0.0,0.0,0.0,-4.6667,-4.6649,-4.5634,-4.4654,-4.3761,-4.3487,-4.3411,-4.3497,-4.3497,-4.3497,-4.3497,-4.3497,-4.3075,-4.2304,-4.2158,-4.1295,-3.9918,-4.0469,0.0,-3.9735,-4.0414,-4.0781,-4.0891,-4.0891,-4.0983,-4.1126,-4.12,-4.0792,-4.0145,0.0,0.0,0.0,0.0,0.0,0.0,0.0,0.0,0.0,0.0,0.0,0.0,0.0,0.0,0.0,0.0,0.0,0.0,0.0,0.0,0.0,0.0,0.0,0.0,0.0,0.0,0.0,0.0,0.0,0.0,0.0,0.0,0.0,0.0,0.0,0.0,0.0,0.0,0.0,0.0,0.0,0.0,0.0,0.0,0.0,0.0,0.0,0.0,0.0,0.0,-2.9178,-3.1366,-3.5097,-3.713,-3.8805,-4.2069,-4.3669,-4.4707,-4.6309,-4.7248,-4.7366,-4.5693,-4.3595,-4.1027,-3.7308,0.0,0.0,0.0,0.0,-2.5438,-2.4919,0.0,0.0,0.0,0.0,0.0,0.0,0.0,0.0,0.0,0.0,0.0,0.0,0.0,0.0,0.0,0.0,-4.7016,-4.6672,-4.5508,-4.4436,-4.3465,-4.3446,-4.3463,-4.3497,-4.3497,-4.3497,-4.3497,-4.3497,-4.3296,-4.291,-4.2488,-4.1882,-4.1148,-4.1111,-4.0891,-4.0561,-4.0946,-4.1368,-4.1735,-4.175,-4.204,-4.2386,-4.2218,-4.1642,-4.0881,0.0,0.0,0.0,0.0,0.0,0.0,0.0,0.0,0.0,0.0,0.0,0.0,0.0,0.0,0.0,0.0,0.0,0.0,0.0,0.0,0.0,0.0,0.0,0.0,0.0,0.0,0.0,0.0,0.0,0.0,0.0,0.0,0.0,0.0,0.0,0.0,0.0,0.0,0.0,0.0,0.0,0.0,0.0,0.0,0.0,0.0,0.0,0.0,0.0,0.0,-2.8106,-3.0137,-3.4207,-3.6562,-3.8427,-4.1449,-4.3123,-4.4327,-4.6097,-4.6989,-4.6913,-4.4891,-4.2777,-3.9967,-3.5241,-3.211,0.0,0.0,-2.501,-2.4427,-2.4337,0.0,0.0,0.0,0.0,0.0,0.0,0.0,0.0,0.0,0.0,0.0,0.0,0.0,0.0,0.0,0.0,0.0,-4.6295,-4.5278,-4.4342,-4.3516,-4.3497,-4.3497,-4.3497,-4.3497,-4.3497,-4.3497,-4.3497,-4.3497,-4.3461,-4.2837,-4.2451,-4.2268,-4.1809,-4.1534,-4.1387,-4.1552,-4.1992,-4.2595,-4.2677,-4.3078,-4.3623,-4.3064,-4.2355,-4.1556,0.0,0.0,0.0,0.0,0.0,0.0,0.0,0.0,0.0,0.0,0.0,0.0,0.0,0.0,0.0,0.0,0.0,0.0,0.0,0.0,0.0,0.0,0.0,0.0,0.0,0.0,0.0,0.0,0.0,0.0,0.0,0.0,0.0,0.0,0.0,0.0,0.0,0.0,0.0,0.0,0.0,0.0,0.0,0.0,0.0,0.0,0.0,0.0,0.0,0.0,0.0,-2.8242,-3.0192,-3.3359,-3.6826,-3.9415,0.0,0.0,-4.5333,-4.603,-4.5847,-4.4912,-4.2294,-3.8862,-3.4702,0.0,0.0,0.0,-2.4483,-2.3858,-2.3786,-2.4423,0.0,0.0,0.0,0.0,0.0,0.0,0.0,0.0,0.0,0.0,0.0,0.0,0.0,0.0,0.0,0.0,-4.5863,-4.5114,-4.4342,-4.3516,-4.3497,-4.3497,-4.3497,-4.3497,-4.3497,-4.3497,-4.3497,-4.3497,-4.3497,-4.3406,-4.2983,-4.2341,-4.2983,-4.2855,0.0,-4.2983,-4.3348,-4.3471,-4.3609,-4.3809,-4.3893,-4.3295,-4.2576,-4.1753,0.0,0.0,0.0,0.0,0.0,0.0,0.0,0.0,0.0,0.0,0.0,0.0,0.0,0.0,0.0,0.0,0.0,0.0,0.0,0.0,0.0,0.0,0.0,0.0,0.0,0.0,0.0,0.0,0.0,0.0,0.0,0.0,0.0,0.0,0.0,0.0,0.0,0.0,0.0,0.0,0.0,0.0,0.0,0.0,0.0,0.0,0.0,0.0,0.0,0.0,0.0,0.0,-2.753,-2.9452,0.0,0.0,-3.8469,-4.0671,-4.3075,-4.4085,-4.414,-4.2873,-4.0423,-3.7168,-3.259,0.0,0.0,-2.492,-2.4114,-2.3876,-2.3873,-2.4505,-2.5389,0.0,0.0,0.0,0.0,0.0,0.0,0.0,0.0,0.0,0.0,0.0,0.0,0.0,0.0,0.0,-4.5132,-4.438,-4.3828,-4.3497,-4.3497,-4.3497,-4.3497,-4.3497,-4.3497,-4.3497,-4.3497,-4.3497,-4.3497,-4.3497,-4.3314,-4.3039,-4.3351,-4.3314,0.0,-4.3419,-4.3634,-4.3753,-4.391,-4.3769,-4.3434,-4.3296,-4.2393,-4.1248,0.0,0.0,0.0,0.0,0.0,0.0,0.0,0.0,0.0,0.0,0.0,0.0,0.0,0.0,0.0,0.0,0.0,0.0,0.0,0.0,0.0,0.0,0.0,0.0,0.0,0.0,0.0,0.0,0.0,0.0,0.0,0.0,0.0,0.0,0.0,0.0,0.0,0.0,0.0,0.0,0.0,0.0,0.0,0.0,0.0,0.0,0.0,0.0,0.0,0.0,0.0,0.0,0.0,0.0,0.0,0.0,-3.533,-3.779,-4.0212,-4.146,-4.1754,-4.0377,-3.8365,-3.5494,0.0,0.0,-2.6913,-2.4547,-2.4016,-2.3996,-2.4016,-2.449,-2.522,0.0,0.0,0.0,0.0,0.0,0.0,0.0,0.0,0.0,0.0,0.0,0.0,0.0,0.0,0.0,-4.436,-4.3809,-4.3497,-4.3497,-4.3497,-4.3497,-4.3497,-4.3497,-4.3497,-4.3497,-4.3497,-4.3497,-4.3497,-4.3497,-4.3497,-4.3497,-4.3497,-4.3532,0.0,-4.3634,-4.3605,-4.3545,-4.3725,-4.3399,-4.2817,-4.2705,-4.1946,-4.089,0.0,0.0,0.0,0.0,0.0,0.0,0.0,0.0,0.0,0.0,0.0,0.0,0.0,0.0,0.0,0.0,0.0,0.0,0.0,0.0,0.0,0.0,0.0,0.0,0.0,0.0,0.0,0.0,0.0,0.0,0.0,0.0,0.0,0.0,0.0,0.0,0.0,0.0,0.0,0.0,0.0,0.0,0.0,0.0,0.0,0.0,0.0,0.0,0.0,0.0,0.0,0.0,0.0,0.0,0.0,0.0,-3.1971,-3.4394,-3.6872,-3.8138,-3.856,-3.7734,-3.6266,-3.3963,0.0,0.0,-2.7108,-2.4704,-2.4208,-2.417,-2.4113,-2.4112,-2.4604,-2.6151,0.0,0.0,0.0,0.0,0.0,0.0,0.0,0.0,0.0,0.0,0.0,0.0,0.0,0.0,-4.3534,-4.3497,-4.3497,-4.3497,-4.3497,-4.3497,-4.3497,-4.3497,-4.3497,-4.3497,-4.3497,-4.3497,-4.3497,-4.3497,-4.3497,-4.3497,-4.3497,-4.3532,0.0,-4.3753,-4.3452,-4.2936,-4.3044,-4.2731,-4.2121,-4.1383,-4.1127,-4.0863,0.0,0.0,0.0,0.0,0.0,0.0,0.0,0.0,0.0,0.0,0.0,0.0,0.0,0.0,0.0,0.0,0.0,0.0,0.0,0.0,0.0,0.0,0.0,0.0,0.0,0.0,0.0,-1.7256,-1.7775,0.0,0.0,0.0,0.0,0.0,0.0,0.0,0.0,0.0,0.0,0.0,0.0,0.0,0.0,0.0,0.0,0.0,0.0,0.0,0.0,0.0,0.0,0.0,0.0,0.0,0.0,0.0,0.0,0.0,-3.3642,-3.4743,-3.5165,-3.4357,-3.2926,-3.0962,-2.8044,-2.6741,-2.5786,-2.4465,-2.419,-2.419,-2.417,-2.417,-2.4702,-2.6295,-2.6551,0.0,0.0,0.0,0.0,0.0,0.0,0.0,0.0,0.0,0.0,0.0,0.0,0.0,-4.3497,-4.3497,-4.3497,-4.3497,-4.3497,-4.3497,-4.3497,-4.3497,-4.3497,-4.3497,-4.3497,-4.3497,-4.3497,-4.3497,-4.3497,-4.3479,-4.3548,-4.3634,-4.3753,-4.391,-4.3625,-4.3072,-4.3284,-4.2593,-4.1491,-4.1249,-4.0442,-3.9383,0.0,0.0,0.0,0.0,0.0,0.0,0.0,0.0,0.0,0.0,0.0,0.0,0.0,0.0,0.0,0.0,0.0,0.0,0.0,0.0,0.0,0.0,0.0,0.0,0.0,0.0,-1.6138,-1.6455,-1.7247,-1.7768,-1.7997,-1.8799,0.0,0.0,0.0,0.0,0.0,0.0,0.0,0.0,0.0,0.0,-1.9298,0.0,0.0,0.0,0.0,0.0,0.0,0.0,0.0,0.0,0.0,0.0,0.0,0.0,-2.646,0.0,0.0,-3.1384,-3.1806,-3.0999,-3.0044,0.0,0.0,-2.575,-2.5182,-2.4373,-2.419,-2.419,-2.419,-2.4447,-2.5071,-2.6392,0.0,0.0,0.0,0.0,0.0,0.0,0.0,0.0,0.0,0.0,0.0,0.0,0.0,0.0,-4.3497,-4.3497,-4.3497,-4.3497,-4.3497,-4.3497,-4.3497,-4.3497,-4.3497,-4.3497,-4.3497,-4.3497,-4.3497,-4.3497,-4.3513,-4.3548,-4.3634,-4.3601,0.0,-4.3662,-4.3147,-4.2344,-4.2536,-4.1827,-4.0707,-4.0748,-3.9899,-3.8687,0.0,0.0,0.0,0.0,0.0,0.0,0.0,0.0,0.0,0.0,0.0,0.0,0.0,0.0,0.0,0.0,0.0,0.0,0.0,0.0,0.0,0.0,0.0,0.0,0.0,-1.4488,-1.4866,-1.56,-1.6468,-1.7275,-1.8041,-1.891,-1.9298,0.0,0.0,0.0,0.0,-1.7827,-1.8281,-1.9041,-1.9175,-1.9261,0.0,0.0,0.0,0.0,0.0,0.0,0.0,0.0,0.0,0.0,0.0,0.0,0.0,0.0,0.0,0.0,0.0,0.0,0.0,0.0,0.0,0.0,0.0,-2.5311,0.0,-2.4355,-2.419,-2.419,-2.419,-2.485,-2.5658,-2.6465,0.0,0.0,0.0,0.0,0.0,0.0,0.0,0.0,0.0,0.0,0.0,0.0,0.0,0.0,-4.3497,-4.3497,-4.3461,-4.3406,-4.3406,-4.3442,-4.3497,-4.3497,-4.3497,-4.3497,-4.3497,-4.3479,-4.3532,-4.3458,-4.3474,0.0,-4.3605,-4.3336,-4.2853,-4.2978,-4.2232,-4.1038,-4.1085,-4.0586,-3.9835,-3.9899,-3.9372,-3.8518,0.0,0.0,0.0,0.0,0.0,0.0,0.0,0.0,0.0,0.0,0.0,0.0,0.0,0.0,0.0,0.0,0.0,0.0,0.0,0.0,0.0,0.0,0.0,0.0,0.0,-1.4499,-1.4579,-1.4793,-1.6193,-1.7,-1.7202,-1.8632,-1.9308,-1.9256,-1.8617,-1.7888,-1.7142,-1.7142,-1.7599,-1.8346,-1.8361,-1.8742,0.0,0.0,0.0,0.0,-1.9305,-1.9305,0.0,0.0,0.0,0.0,0.0,0.0,0.0,0.0,-2.3612,-2.4102,-2.4967,0.0,-2.7061,0.0,0.0,0.0,0.0,0.0,0.0,0.0,0.0,0.0,0.0,0.0,0.0,0.0,0.0,0.0,0.0,0.0,0.0,0.0,0.0,0.0,0.0,0.0,0.0,0.0,0.0,-4.3497,-4.3497,-4.3497,-4.3222,-4.2598,-4.2647,-4.2941,-4.3479,-4.3497,-4.3497,-4.3497,-4.3497,-4.3532,-4.3563,-4.2956,-4.2746,-4.2871,-4.2414,-4.2201,-4.2219,-4.2429,-4.1949,-4.1154,-4.1228,-4.0357,-3.9085,-3.9127,-3.8251,-3.7009,0.0,0.0,0.0,0.0,0.0,0.0,0.0,0.0,0.0,0.0,0.0,0.0,0.0,0.0,0.0,0.0,0.0,0.0,0.0,0.0,0.0,0.0,0.0,0.0,0.0,-1.4556,-1.4545,-1.4545,-1.6158,-1.6935,-1.6972,-1.857,-1.9087,-1.8702,-1.7527,-1.6958,-1.689,-1.6505,-1.7032,-1.8096,-1.8096,0.0,0.0,0.0,0.0,0.0,-1.9305,-1.9305,0.0,-1.9305,-1.9398,-1.9592,0.0,0.0,0.0,0.0,-2.2943,-2.3591,-2.3914,-2.478,-2.5482,-2.502,-2.4871,-2.474,0.0,0.0,0.0,0.0,0.0,0.0,0.0,0.0,0.0,0.0,0.0,0.0,0.0,0.0,0.0,0.0,0.0,0.0,0.0,0.0,0.0,0.0,0.0,-4.3015,-4.3015,-4.2695,-4.2322,-4.1899,-4.1944,-4.2115,-4.2445,-4.2897,-4.2912,-4.2525,-4.2977,-4.2991,-4.2636,-4.2223,-4.2112,-4.2273,-4.1988,-4.1766,-4.1593,-4.1756,-4.1374,-4.0718,-4.0741,-4.0212,-3.945,-3.949,-3.8495,-3.7111,0.0,0.0,0.0,0.0,0.0,0.0,0.0,0.0,0.0,0.0,0.0,0.0,0.0,0.0,0.0,0.0,0.0,0.0,0.0,0.0,0.0,0.0,0.0,0.0,0.0,0.0,0.0,-1.4622,-1.622,-1.7006,-1.7025,0.0,-1.8812,-1.7858,-1.6353,-1.6004,-1.6487,-1.5821,-1.6445,-1.7931,-1.7931,0.0,0.0,0.0,0.0,0.0,0.0,0.0,0.0,-1.9353,-1.9427,-1.9541,-1.9609,0.0,0.0,0.0,0.0,0.0,-2.3483,-2.383,-2.4173,-2.4229,-2.4228,-2.4209,0.0,0.0,0.0,0.0,0.0,0.0,0.0,0.0,0.0,0.0,0.0,0.0,0.0,0.0,0.0,0.0,0.0,0.0,0.0,0.0,0.0,0.0,0.0,-4.2267,-4.2267,-4.1743,-4.139,-4.126,-4.1349,-4.1234,-4.0942,-4.1995,-4.2168,-4.1445,-4.2259,-4.2251,-4.1545,-4.1501,-4.1539,-4.1702,0.0,0.0,-4.0959,-4.1022,-4.0686,-4.0118,-4.0138,-4.01,-4.0043,-4.0043,-3.9025,-3.7616,0.0,0.0,0.0,0.0,0.0,0.0,0.0,0.0,0.0,0.0,0.0,0.0,0.0,0.0,0.0,0.0,0.0,0.0,0.0,0.0,0.0,0.0,0.0,0.0,0.0,0.0,0.0,0.0,0.0,0.0,-1.7019,-1.8632,-1.8566,-1.7037,-1.6114,-1.5398,-1.4854,-1.4738,-1.5606,-1.7092,-1.7151,0.0,0.0,0.0,0.0,0.0,0.0,0.0,0.0,-1.9555,-1.962,-1.9688,-1.9751,0.0,0.0,0.0,0.0,0.0,-2.3297,-2.3601,-2.3699,-2.4295,-2.4375,-2.4266,0.0,0.0,0.0,0.0,0.0,0.0,0.0,0.0,0.0,0.0,0.0,0.0,0.0,0.0,0.0,0.0,0.0,0.0,0.0,0.0,0.0,0.0,0.0,-4.157,-4.1649,-4.159,-4.1287,-4.0654,-4.0772,-4.0488,-3.9776,-4.1101,-4.1733,-4.166,-4.1791,-4.1876,-4.1817,-4.1124,-4.0961,-4.1165,0.0,-4.0323,-4.0349,-4.0406,-4.0386,-4.0271,-4.0326,-3.9905,-3.9293,-3.9323,-3.83,-3.6776,0.0,0.0,0.0,0.0,0.0,0.0,0.0,0.0,0.0,0.0,0.0,0.0,0.0,0.0,0.0,0.0,0.0,0.0,0.0,0.0,0.0,0.0,0.0,0.0,0.0,0.0,0.0,0.0,0.0,-1.712,-1.7059,-1.777,-1.7454,-1.6281,-1.5441,-1.4841,-1.4492,-1.4492,-1.519,-1.636,0.0,0.0,0.0,0.0,0.0,0.0,0.0,0.0,0.0,0.0,-1.9712,-1.9763,-1.9793,0.0,0.0,0.0,0.0,0.0,-2.222,-2.2969,-2.3625,-2.3926,-2.4199,-2.4339,0.0,0.0,0.0,0.0,0.0,0.0,0.0,0.0,0.0,0.0,0.0,0.0,0.0,0.0,0.0,0.0,0.0,0.0,0.0,0.0,0.0,0.0,0.0,-4.1008,-4.1064,-4.0802,-4.0534,-4.0183,-4.0287,-4.0148,-3.9832,-4.048,-4.0764,-4.0728,-4.1254,-4.1264,-4.0863,-4.0549,-4.0466,-4.0613,0.0,-4.0234,-4.0307,-4.0325,-4.0362,-4.0362,-4.0398,-4.0185,-3.9742,-3.8885,-3.7766,-3.6575,0.0,0.0,0.0,0.0,0.0,0.0,0.0,0.0,0.0,0.0,0.0,0.0,0.0,0.0,0.0,0.0,0.0,0.0,0.0,0.0,0.0,0.0,0.0,0.0,0.0,0.0,-1.493,-1.4913,-1.6288,-1.703,-1.7118,-1.6867,-1.6411,-1.5783,-1.4917,-1.4537,-1.4537,-1.4537,-1.5046,-1.5882,0.0,0.0,0.0,0.0,0.0,0.0,0.0,0.0,0.0,0.0,0.0,0.0,0.0,0.0,0.0,-2.0182,-2.0677,-2.1203,-2.1311,-2.2212,-2.3221,0.0,0.0,0.0,0.0,0.0,0.0,0.0,0.0,0.0,0.0,0.0,0.0,0.0,0.0,0.0,0.0,0.0,0.0,0.0,0.0,0.0,0.0,0.0,0.0,0.0,0.0,-4.0466,-4.0516,-4.0148,-3.9861,-3.9692,-3.9736,-3.97,-3.9547,-3.9585,-3.97,-3.9977,-4.0706,-4.0709,-4.0062,-3.991,-3.989,-3.9964,-3.9808,-3.9785,-3.9838,-4.0049,-4.0142,-4.0142,-4.0142,-4.0044,-3.973,-3.8243,-3.7276,-3.6584,0.0,0.0,0.0,0.0,0.0,0.0,0.0,0.0,0.0,0.0,0.0,0.0,0.0,0.0,0.0,0.0,0.0,0.0,0.0,0.0,0.0,0.0,0.0,0.0,0.0,-1.5,-1.5,-1.5,-1.5862,-1.6582,-1.718,-1.6355,-1.5949,-1.5856,-1.5054,-1.4691,-1.4691,-1.4691,-1.5147,-1.5893,-1.6033,0.0,0.0,0.0,0.0,0.0,0.0,0.0,0.0,0.0,0.0,0.0,0.0,0.0,-2.0188,-2.0195,-2.0249,-2.0452,-2.1185,-2.1435,-2.1828,-2.3316,0.0,0.0,0.0,0.0,0.0,0.0,0.0,0.0,0.0,0.0,0.0,0.0,0.0,0.0,0.0,0.0,0.0,0.0,0.0,0.0,0.0,0.0,0.0,0.0,-3.9849,-3.9987,-4.0049,-4.0078,-3.9757,-3.9088,-3.9067,-3.8722,-3.7957,-3.8022,-3.8772,-4.0177,-4.0253,-4.0272,-4.0251,-3.9447,-3.9155,-3.9237,-3.8431,-3.8101,-3.8243,-3.9065,-3.9392,-3.9392,-3.9392,-3.8892,-3.8065,-3.7142,-3.6757,-3.6584,0.0,0.0,0.0,0.0,0.0,0.0,0.0,0.0,0.0,0.0,0.0,0.0,0.0,0.0,0.0,0.0,0.0,0.0,0.0,0.0,0.0,0.0,0.0,-1.4963,-1.5057,-1.5052,-1.5066,-1.5066,-1.5828,-1.6328,-1.6573,-1.6194,0.0,0.0,-1.4925,-1.4756,-1.4756,-1.4756,-1.4934,-1.5281,-1.5885,-1.63,0.0,0.0,0.0,0.0,0.0,0.0,0.0,0.0,-2.0108,-2.0155,0.0,0.0,-2.0203,-2.0211,-2.0238,-2.0315,-2.0578,-2.1004,-2.1636,-2.2789,0.0,0.0,0.0,0.0,0.0,0.0,0.0,0.0,0.0,0.0,0.0,0.0,0.0,0.0,0.0,0.0,0.0,0.0,0.0,0.0,0.0,0.0,0.0,-3.9838,-3.9545,-3.9357,-3.9376,-3.8971,-3.8599,-3.8328,-3.8358,-3.822,-3.7932,-3.7943,-3.8251,-3.8821,-3.8821,-3.8857,-3.8853,-3.8527,-3.8408,-3.8439,-3.8112,-3.7973,-3.8027,-3.8354,-3.8488,-3.8488,-3.8488,-3.7969,-3.7161,-3.6834,-3.6392,-3.5911,0.0,0.0,0.0,0.0,0.0,0.0,0.0,0.0,0.0,0.0,0.0,0.0,0.0,0.0,0.0,0.0,0.0,0.0,0.0,0.0,0.0,0.0,0.0,-1.4963,-1.509,-1.5106,-1.5107,-1.5133,-1.5609,-1.5855,-1.5839,0.0,0.0,0.0,0.0,-1.4866,-1.4866,-1.4866,-1.4875,-1.4949,-1.5586,-1.6026,0.0,0.0,0.0,0.0,0.0,0.0,0.0,0.0,-2.019,0.0,0.0,0.0,0.0,0.0,-2.0265,-2.0285,-2.0238,-2.0828,-2.1646,0.0,0.0,0.0,0.0,0.0,0.0,0.0,0.0,0.0,0.0,0.0,0.0,0.0,0.0,0.0,0.0,0.0,0.0,0.0,0.0,0.0,0.0,0.0,0.0,-3.9337,-3.8934,-3.8642,-3.8657,-3.8185,-3.7809,-3.754,-3.757,-3.7469,-3.7219,-3.7219,-3.7219,-3.7219,-3.7219,-3.7488,-3.7988,-3.7719,-3.7584,-3.7584,-3.7315,-3.7219,-3.7238,-3.7488,-3.7584,-3.7584,-3.7584,-3.7065,-3.6334,-3.6334,-3.5968,-3.5493,0.0,0.0,0.0,0.0,0.0,0.0,0.0,0.0,0.0,0.0,0.0,0.0,0.0,0.0,0.0,0.0,0.0,0.0,0.0,0.0,0.0,0.0,0.0,-1.496,-1.509,-1.5107,-1.512,-1.5197,-1.5133,-1.5094,-1.5094,-1.5105,0.0,0.0,0.0,0.0,0.0,-1.5008,-1.5049,-1.5097,-1.5112,-1.5623,-1.6397,0.0,0.0,0.0,0.0,0.0,0.0,0.0,-2.0312,0.0,0.0,0.0,0.0,0.0,-2.0312,-2.0312,-2.0312,-2.0892,0.0,0.0,0.0,0.0,0.0,0.0,0.0,0.0,0.0,0.0,0.0,0.0,0.0,0.0,0.0,0.0,0.0,0.0,0.0,0.0,0.0,0.0,0.0,0.0,-3.7802,-3.7802,-3.7865,-3.7894,-3.7874,-3.792,-3.7565,-3.6699,-3.6661,-3.6276,-3.5474,-3.5488,-3.5488,-3.5488,-3.5488,-3.6353,-3.795,-3.7084,-3.6699,-3.6642,-3.5853,-3.5493,-3.5565,-3.6372,-3.6699,-3.6699,-3.6699,-3.6199,-3.5493,-3.5493,-3.5507,-3.5507,0.0,0.0,0.0,0.0,0.0,0.0,0.0,0.0,0.0,0.0,0.0,0.0,0.0,0.0,0.0,0.0,0.0,0.0,0.0,0.0,0.0,0.0,0.0,0.0,0.0,0.0,-1.5183,-1.5209,-1.5184,-1.5178,0.0,0.0,0.0,-1.5088,0.0,0.0,-1.5073,-1.5073,-1.5073,-1.5145,-1.5772,-1.6176,-1.6528,0.0,0.0,0.0,0.0,0.0,0.0,0.0,0.0,0.0,0.0,0.0,0.0,-2.0312,-2.0312,-2.0312,-2.0312,0.0,0.0,0.0,0.0,0.0,0.0,0.0,0.0,0.0,0.0,0.0,0.0,0.0,0.0,0.0,0.0,0.0,0.0,0.0,0.0,0.0,0.0,0.0,0.0,0.0,-3.7283,-3.789,-3.7386,-3.6805,-3.6229,-3.5647,-3.493,-3.4045,-3.4026,-3.391,-3.368,-3.368,-3.368,-3.368,-3.368,-3.4564,-3.6238,-3.5968,-3.5872,-3.5853,-3.5603,-3.5493,-3.5526,-3.5757,-3.5872,-3.5872,-3.5872,-3.5718,-3.5493,-3.5493,-3.5501,-3.5509,0.0,0.0,0.0,0.0,0.0,0.0,0.0,0.0,0.0,0.0,0.0,0.0,0.0,0.0,0.0,0.0,0.0,0.0,0.0,0.0,0.0,0.0,0.0,0.0,0.0,-1.5171,-1.5195,0.0,0.0,0.0,0.0,0.0,0.0,-1.5146,0.0,-1.5146,0.0,-1.551,-1.567,-1.5728,-1.658,-1.7131,-1.7554,0.0,0.0,0.0,0.0,0.0,0.0,0.0,0.0,0.0,0.0,0.0,0.0,-2.0312,-2.0312,-2.0312,-2.0312,0.0,0.0,0.0,0.0,0.0,0.0,0.0,0.0,0.0,0.0,0.0,0.0,0.0,0.0,0.0,0.0,0.0,0.0,0.0,0.0,0.0,0.0,0.0,0.0,-3.487,-3.5402,-3.593,-3.5488,-3.4988,-3.4487,-3.3968,-3.343,-3.291,-3.2891,-3.2891,-3.2891,-3.2891,-3.2891,-3.2891,-3.2891,-3.3449,-3.4487,-3.4834,-3.518,-3.5493,-3.5493,-3.5315,-3.4988,-3.4988,-3.4776,-3.4468,-3.4468,-3.468,-3.4982,-3.4982,-3.5213,-3.5534,0.0,0.0,0.0,0.0,0.0,0.0,0.0,0.0,0.0,0.0,0.0,0.0,0.0,0.0,0.0,0.0,0.0,0.0,0.0,0.0,0.0,0.0,0.0,0.0,0.0,0.0,0.0,0.0,0.0,0.0,0.0,0.0,-1.5234,-1.533,0.0,-1.5368,-1.5484,-1.6272,-1.6599,-1.6676,-1.7491,-1.8299,-1.9011,-1.9088,0.0,0.0,0.0,0.0,0.0,0.0,0.0,0.0,0.0,0.0,-2.0312,-2.0312,-2.0312,-2.0312,0.0,0.0,0.0,0.0,0.0,0.0,0.0,0.0,0.0,0.0,0.0,0.0,0.0,0.0,0.0,0.0,0.0,0.0,0.0,0.0,0.0,0.0,0.0,0.0,0.0,-3.2852,-3.2891,-3.2891,-3.2891,-3.2872,-3.2795,-3.2795,-3.2756,-3.2679,-3.2679,-3.2679,-3.2679,-3.2679,-3.2679,-3.2679,-3.2679,-3.2718,-3.2814,-3.368,-3.4507,-3.5257,-3.5257,-3.4814,-3.4083,-3.4097,-3.3615,-3.291,-3.2904,-3.339,-3.4089,-3.4089,-3.4639,-3.5392,0.0,0.0,0.0,0.0,0.0,0.0,0.0,0.0,0.0,0.0,0.0,0.0,0.0,0.0,0.0,0.0,0.0,0.0,0.0,0.0,0.0,0.0,0.0,0.0,0.0,0.0,0.0,0.0,0.0,0.0,0.0,0.0,0.0,-1.6227,0.0,-1.6561,-1.7176,-1.735,-1.7446,-1.7529,-1.8376,-1.8838,-1.9069,-1.9754,-2.0139,0.0,0.0,0.0,0.0,0.0,0.0,0.0,-2.0312,-2.0312,-2.0312,-2.0312,-2.0312,0.0,0.0,0.0,0.0,0.0,0.0,0.0,0.0,0.0,0.0,0.0,0.0,0.0,0.0,0.0,0.0,0.0,0.0,0.0,0.0,0.0,0.0,0.0,0.0,0.0,-3.1968,-3.2526,-3.2891,-3.2891,-3.2891,-3.2622,-3.1987,-3.1968,-3.1641,-3.0968,-3.0948,-3.0948,-3.0948,-3.0948,-3.0948,-3.0948,-3.0948,-3.1295,-3.1987,-3.2814,-3.3276,-3.3468,-3.3468,-3.3353,-3.3179,-3.3236,-3.314,-3.2979,-3.2976,-3.3095,-3.3261,-3.3323,-3.35,-3.3809,0.0,0.0,0.0,0.0,0.0,0.0,0.0,0.0,0.0,0.0,0.0,0.0,0.0,0.0,0.0,0.0,0.0,0.0,0.0,0.0,0.0,0.0,0.0,0.0,0.0,0.0,0.0,0.0,0.0,0.0,0.0,0.0,0.0,-1.6495,0.0,-1.6952,-1.7741,-1.8145,-1.8318,-1.8395,-1.9273,-1.9619,-1.9677,-2.0139,-2.0312,-2.0312,-2.0312,0.0,0.0,0.0,0.0,0.0,0.0,0.0,-2.0312,-2.0312,-2.0312,-2.0312,0.0,0.0,0.0,0.0,0.0,0.0,0.0,0.0,0.0,0.0,0.0,0.0,0.0,0.0,0.0,0.0,0.0,0.0,0.0,0.0,0.0,0.0,0.0,0.0,-2.9871,-3.0256,-3.0506,-3.0506,-3.0506,-3.0314,-2.989,-2.9871,-2.9852,-2.9775,-2.9775,-2.9775,-2.9775,-2.9775,-2.9775,-2.9775,-2.9775,-3.0037,-3.0568,-3.2172,-3.2891,-3.2891,-3.2923,-3.2704,-3.2319,-3.2405,-3.2177,-3.1813,-3.1835,-3.2106,-3.2483,-3.2501,-3.2823,-3.3303,0.0,0.0,0.0,0.0,0.0,0.0,0.0,0.0,0.0,0.0,0.0,0.0,0.0,0.0,0.0,0.0,0.0,0.0,0.0,0.0,0.0,0.0,-1.5385,0.0,0.0,0.0,-1.5319,0.0,0.0,0.0,0.0,0.0,0.0,-1.6949,0.0,-1.7388,-1.8203,-1.8915,-1.9223,-1.93,-2.0004,-2.0312,-2.0312,-2.0312,-2.0312,-2.0312,-2.0312,-2.0312,-2.0312,-2.0312,0.0,0.0,0.0,0.0,-2.0312,-2.0312,-2.0312,-2.0312,0.0,0.0,0.0,0.0,0.0,0.0,0.0,0.0,0.0,0.0,0.0,0.0,0.0,0.0,0.0,0.0,0.0,0.0,0.0,0.0,0.0,0.0,0.0,0.0,-2.789,-2.789,-2.789,-2.789,-2.789,-2.789,-2.789,-2.789,-2.8198,-2.8871,-2.889,-2.889,-2.889,-2.889,-2.889,-2.889,-2.8901,-2.8931,-2.906,-3.1118,-3.205,-3.2069,-3.2112,-3.1807,-3.1298,-3.1351,-3.1043,-3.0548,-3.0602,-3.1057,-3.1695,-3.1709,-3.2194,-3.2893,0.0,0.0,0.0,0.0,0.0,0.0,0.0,0.0,0.0,0.0,0.0,0.0,0.0,0.0,0.0,0.0,0.0,0.0,-1.7431,0.0,0.0,-1.6428,-1.5703,-1.5333,0.0,0.0,-1.539,0.0,0.0,0.0,0.0,0.0,0.0,-1.8758,0.0,0.0,0.0,-2.0088,-2.0139,-2.0139,-2.0254,-2.0312,-2.0312,-2.0312,-2.0312,-2.0312,-2.0312,-2.0312,-2.0312,-2.0312,-2.0312,0.0,0.0,0.0,-2.0312,-2.0312,-2.0312,0.0,0.0,0.0,0.0,0.0,0.0,0.0,0.0,0.0,0.0,0.0,0.0,0.0,0.0,0.0,0.0,0.0,0.0,0.0,0.0,0.0,0.0,0.0,0.0,0.0,-2.789,-2.789,-2.789,-2.789,-2.789,-2.789,-2.789,-2.789,-2.7948,-2.8063,-2.8063,-2.8063,-2.8063,-2.8063,-2.8063,-2.8063,-2.8065,-2.8106,-2.8174,-2.8492,-2.8647,-2.8647,-2.8647,-2.9023,-2.9629,-2.9633,-3.0032,-3.0664,-3.0684,-3.0764,-3.0872,-3.0927,-3.1022,-3.1243,0.0,0.0,0.0,0.0,0.0,0.0,0.0,0.0,0.0,0.0,0.0,0.0,0.0,0.0,0.0,-1.7769,-1.7799,-1.7815,-1.7844,-1.7528,-1.7136,-1.6675,-1.6294,-1.5877,-1.5405,0.0,0.0,0.0,0.0,0.0,0.0,-1.7894,-1.848,0.0,0.0,0.0,0.0,0.0,-2.03,-2.0312,-2.0312,-2.0312,-2.0312,-2.0312,-2.0312,-2.0312,-2.0312,-2.0312,-2.0312,-2.0312,-2.0312,-2.0312,-2.0312,0.0,0.0,0.0,0.0,0.0,0.0,0.0,0.0,0.0,0.0,0.0,0.0,0.0,0.0,0.0,0.0,0.0,0.0,0.0,0.0,0.0,0.0,0.0,0.0,0.0,0.0,0.0,0.0,0.0,-2.6497,-2.6497,-2.6497,-2.6497,-2.6497,-2.6497,-2.6487,-2.6496,-2.6728,-2.72,-2.7219,-2.7219,-2.7219,-2.7219,-2.7219,-2.7219,-2.773,-2.7746,-2.7323,-2.7326,-2.7574,-2.8006,-2.8039,-2.8276,-2.8667,-2.9195,-2.9652,-3.0083,-3.0568,-3.0758,-3.0768,-3.078,-3.0827,-3.0911,0.0,0.0,0.0,0.0,0.0,0.0,0.0,0.0,0.0,0.0,0.0,0.0,0.0,0.0,0.0,0.0,-1.8494,-1.8511,-1.8558,-1.8374,-1.7997,-1.7392,-1.6949,-1.6409,-1.5733,0.0,0.0,0.0,0.0,0.0,-1.8003,-1.868,-1.9166,0.0,-1.9464,0.0,0.0,0.0,0.0,0.0,-2.03,-2.0308,0.0,0.0,0.0,0.0,-2.0315,-2.0296,-2.0296,-2.03,-2.03,-2.03,-2.0292,-2.0312,0.0,0.0,0.0,0.0,0.0,0.0,0.0,0.0,0.0,0.0,0.0,0.0,0.0,0.0,0.0,0.0,0.0,0.0,0.0,0.0,0.0,0.0,0.0,0.0,0.0,0.0,0.0,0.0,-2.5416,-2.5425,-2.5434,-2.5432,-2.5432,-2.5421,-2.5426,-2.5426,-2.5724,-2.637,-2.6397,-2.6397,-2.6397,-2.6397,-2.6397,-2.6405,-2.7059,-2.705,-2.6495,-2.6493,-2.6831,-2.742,-2.7446,-2.7601,-2.7871,-2.8582,-2.9129,-2.9592,-3.0231,-3.0495,-3.05,-3.0502,-3.0387,-3.0273,0.0,0.0,0.0,0.0,0.0,0.0,0.0,0.0,0.0,0.0,0.0,0.0,0.0,-1.8608,-1.9457,-2.029,-2.0367,-2.0359,-2.036,-1.9658,-1.9202,-1.9166,-1.7589,0.0,-1.662,-1.582,0.0,0.0,0.0,0.0,-1.8006,-1.8043,-1.8916,-2.0426,-2.0352,-2.0351,-2.0385,0.0,0.0,0.0,0.0,0.0,0.0,0.0,0.0,0.0,0.0,0.0,-2.0295,-2.0299,-2.0304,-2.0296,-2.0292,-2.0312,0.0,0.0,0.0,0.0,0.0,0.0,0.0,0.0,0.0,0.0,0.0,0.0,0.0,0.0,0.0,0.0,0.0,0.0,0.0,0.0,0.0,0.0,0.0,0.0,0.0,0.0,0.0,0.0,-2.5484,-2.5484,-2.5492,-2.5488,-2.5495,-2.5483,-2.5492,-2.5492,-2.5511,-2.555,-2.555,-2.555,-2.555,-2.555,-2.5564,-2.5556,-2.5615,-2.5643,-2.5656,-2.5664,-2.5717,-2.583,-2.5765,-2.6236,-2.7059,-2.7108,-2.809,-2.9597,-2.9645,-2.9666,-2.9666,-2.9668,-2.9141,-2.8555,0.0,0.0,0.0,0.0,0.0,0.0,0.0,0.0,0.0,0.0,0.0,0.0,0.0,-1.9507,-2.0159,-2.047,-2.0533,-2.056,-2.0568,-2.0281,-1.9876,-1.9313,-1.8708,-1.8104,-1.7559,-1.668,0.0,0.0,0.0,-1.7383,-1.8027,-1.9159,-1.9996,-2.0557,-2.0483,-2.0441,-2.0395,-2.0365,0.0,0.0,0.0,0.0,0.0,0.0,0.0,0.0,0.0,0.0,0.0,-2.036,-2.0366,-2.0353,-2.0366,0.0,0.0,0.0,0.0,0.0,0.0,0.0,0.0,0.0,0.0,0.0,0.0,0.0,0.0,0.0,0.0,0.0,0.0,0.0,0.0,0.0,0.0,0.0,0.0,0.0,0.0,0.0,0.0,0.0,-2.5506,-2.5506,-2.5518,-2.5568,-2.5568,-2.556,-2.5561,-2.5561,-2.5571,-2.5628,-2.5628,-2.5628,-2.5628,-2.5628,-2.5632,-2.5621,-2.5625,-2.5639,-2.5654,-2.5661,-2.5689,-2.5698,-2.5675,-2.5847,-2.6216,-2.6771,-2.738,-2.7986,-2.8554,-2.8769,-2.8769,-2.8769,-2.8574,-2.834,0.0,0.0,0.0,0.0,0.0,0.0,0.0,0.0,0.0,0.0,0.0,0.0,0.0,0.0,-2.0523,-2.0533,-2.0576,-2.0599,-2.0601,-2.0602,-2.035,-1.9765,-1.9453,-1.9023,-1.8457,-1.7578,0.0,0.0,0.0,0.0,0.0,0.0,-2.0311,-2.0602,-2.0549,-2.0503,0.0,0.0,0.0,-2.034,0.0,0.0,-2.0432,0.0,0.0,0.0,0.0,0.0,0.0,0.0,0.0,0.0,0.0,0.0,0.0,0.0,0.0,0.0,0.0,0.0,0.0,0.0,0.0,0.0,0.0,0.0,0.0,0.0,0.0,0.0,0.0,0.0,0.0,0.0,0.0,0.0,0.0,0.0,0.0,0.0,0.0,-2.5571,-2.5566,-2.5566,-2.5595,-2.5636,-2.5636,0.0,-2.5639,-2.5619,-2.5645,-2.5696,-2.5696,-2.5696,-2.5696,-2.5696,-2.5698,-2.5698,-2.5703,-2.5709,-2.5694,-2.5697,-2.57,-2.5703,-2.5703,-2.5702,-2.5738,-2.6327,-2.6738,-2.705,-2.7637,-2.7851,-2.7851,-2.7851,-2.7676,-2.7461,0.0,0.0,0.0,0.0,0.0,0.0,0.0,0.0,0.0,0.0,0.0,0.0,0.0,0.0,0.0,-2.0601,-2.0604,-2.0605,-2.0605,-2.0605,-2.0605,-2.0605,-1.9785,-1.9336,-1.9336,-1.8477,0.0,0.0,0.0,0.0,0.0,0.0,-1.9785,0.0,-2.0603,-2.0552,-2.0497,0.0,-2.04,-2.0395,0.0,-2.0434,-2.0508,0.0,0.0,0.0,-2.0506,-2.05,0.0,0.0,0.0,0.0,0.0,0.0,0.0,0.0,0.0,0.0,0.0,0.0,0.0,0.0,0.0,0.0,0.0,0.0,0.0,0.0,0.0,0.0,0.0,0.0,0.0,0.0,0.0,0.0,0.0,0.0,0.0,0.0,0.0,-2.569,-2.569,-2.569,-2.5693,-2.5701,-2.5701,-2.5703,-2.5707,-2.5707,-2.5707,-2.5707,-2.5707,-2.5707,-2.5707,-2.5707,-2.5691,-2.5694,-2.5694,-2.5698,-2.5703,-2.5703,-2.5703,-2.5703,-2.5703,-2.5703,-2.5703,-2.5703,-2.6191,-2.6953,-2.6953,-2.6953,-2.6953,-2.6953,-2.6426,-2.582,0.0,0.0,0.0,0.0,0.0,0.0,0.0,0.0,0.0,0.0,0.0,0.0,0.0,0.0,-2.0605,-2.0605,-2.0605,-2.0605,-2.0605,-2.0605,-2.0605,-2.0605,-2.0371,-2.0234,-2.0234,-1.9394,0.0,0.0,0.0,0.0,0.0,0.0,0.0,0.0,-2.0605,-2.0581,-2.057,-2.0494,0.0,0.0,-2.0468,-2.0472,0.0,0.0,0.0,0.0,0.0,-2.0545,-2.0499,0.0,-2.0467,-2.0461,0.0,0.0,0.0,0.0,0.0,0.0,-2.0552,0.0,0.0,0.0,0.0,0.0,0.0,0.0,0.0,0.0,0.0,0.0,0.0,0.0,0.0,0.0,0.0,0.0,0.0,0.0,0.0,0.0,0.0,-2.5705,-2.5707,-2.5709,-2.5691,0.0,-2.5696,-2.5697,-2.57,-2.5702,-2.5702,-2.5702,-2.5702,-2.5702,-2.5702,-2.5702,-2.5702,-2.5703,-2.5703,-2.5703,-2.5703,-2.5703,-2.5703,-2.5703,-2.5703,-2.5703,-2.5703,-2.5703,-2.584,-2.6055,-2.6055,-2.6055,-2.6055,-2.6055,-2.5918,-2.5723,0.0,0.0,0.0,0.0,0.0,0.0,0.0,0.0,0.0,0.0,0.0,0.0,0.0,0.0,0.0,-2.0605,-2.0605,-2.0605,-2.0605,-2.0605,-2.0605,-2.0605,-2.0605,-2.0605,-2.0605,-2.0098,0.0,0.0,0.0,0.0,0.0,0.0,0.0,0.0,0.0,0.0,0.0,0.0,0.0,0.0,-2.0504,0.0,0.0,-2.0523,-2.0575,0.0,0.0,0.0,-2.0537,-2.0534,-2.0531,0.0,0.0,0.0,0.0,0.0,0.0,0.0,0.0,0.0,0.0,0.0,0.0,0.0,-1.9509,-1.9294,-1.9195,0.0,0.0,0.0,0.0,0.0,0.0,0.0,0.0,0.0,0.0,0.0,0.0,0.0,0.0,0.0,-2.5152,-2.5485,-2.5701,-2.5702,-2.5702,-2.5702,-2.5703,-2.5703,-2.5703,-2.5703,-2.5703,-2.5703,-2.5703,-2.5703,-2.5703,-2.5703,-2.5703,-2.5703,-2.5703,-2.5703,-2.5703,-2.5703,-2.5703,-2.5703,-2.5703,-2.5703,-2.5703,-2.5703,-2.5703,-2.5703,-2.5703,-2.5703,-2.5703,-2.5703,0.0,0.0,0.0,0.0,0.0,0.0,0.0,0.0,0.0,0.0,0.0,0.0,0.0,0.0,0.0,0.0,-2.0605,-2.0605,-2.0605,-2.0605,0.0,-2.0605,-2.0605,-2.0605,-2.0605,-2.0605,0.0,0.0,0.0,0.0,0.0,0.0,0.0,0.0,0.0,0.0,0.0,0.0,0.0,-2.0506,-2.0494,-2.0567,0.0,0.0,-2.0799,0.0,-2.0781,-2.0741,-2.0721,-2.0621,-2.0598,0.0,0.0,0.0,0.0,0.0,-2.0603,0.0,0.0,0.0,0.0,0.0,0.0,0.0,-1.9375,-1.916,-1.8887,-1.791,0.0,0.0,0.0,0.0,0.0,0.0,0.0,0.0,0.0,0.0,0.0,0.0,0.0,0.0,-2.4258,-2.4961,-2.5449,-2.5547,-2.5644,-2.5703,-2.5703,-2.5703,-2.5703,-2.5703,-2.5703,-2.5703,-2.5703,-2.5703,-2.5703,-2.5703,-2.5703,-2.5703,-2.5703,-2.5703,-2.5703,-2.5703,-2.5703,-2.5703,-2.5703,-2.5703,-2.5703,-2.5703,-2.5703,-2.5703,-2.5703,-2.5703,-2.5703,-2.5702,-1.5391,0.0,0.0,0.0,0.0,0.0,0.0,0.0,0.0,0.0,0.0,0.0,0.0,0.0,0.0,0.0,-2.0605,-2.0605,-2.0605,-2.0605,0.0,-2.0605,-2.0605,-2.0605,-2.0605,-2.0605,0.0,0.0,0.0,0.0,0.0,0.0,0.0,0.0,0.0,0.0,0.0,0.0,0.0,-2.0573,-2.0525,0.0,-2.1551,-2.1618,-2.2089,-2.2598,-2.1894,-2.1641,-2.1543,0.0,-2.0605,-2.0605,0.0,0.0,0.0,0.0,0.0,0.0,0.0,0.0,0.0,0.0,0.0,0.0,-1.8613,-1.8242,-1.7812,0.0,0.0,0.0,0.0,0.0,0.0,0.0,0.0,0.0,0.0,0.0,0.0,0.0,0.0,-2.3359,-2.3359,-2.3516,-2.3906,-2.4609,-2.5293,-2.5703,-2.5703,-2.5703,-2.5703,-2.5703,-2.5703,-2.5703,-2.5703,-2.5703,-2.5703,-2.5703,-2.5703,-2.5703,-2.5703,-2.5703,-2.5703,-2.5703,-2.5703,-2.5703,-2.5703,-2.5703,-2.5703,-2.5703,-2.5703,-2.5703,-2.5703,-2.5703,-2.5702,-2.57,-1.5957,0.0,0.0,0.0,0.0,0.0,0.0,0.0,0.0,0.0,0.0,0.0,0.0,0.0,0.0,0.0,0.0,0.0,0.0,0.0,0.0,0.0,0.0,0.0,0.0,0.0,0.0,0.0,0.0,0.0,0.0,0.0,0.0,0.0,0.0,0.0,0.0,0.0,-2.0192,-2.0601,-2.0557,0.0,-2.1849,-2.1893,-2.2422,-2.3047,-2.2207,-2.1621,-2.1172,-2.0742,-2.0605,0.0,0.0,-2.0605,-2.0605,0.0,-2.0605,-2.0605,0.0,0.0,0.0,-2.0605,0.0,0.0,0.0,-1.8652,-1.8281,-1.6973,0.0,0.0,0.0,0.0,0.0,0.0,0.0,0.0,0.0,0.0,0.0,0.0,0.0,-2.2012,-2.2461,-2.2891,-2.332,-2.3711,-2.4551,-2.5059,-2.5059,-2.5469,-2.5703,-2.5703,-2.5703,-2.5703,-2.5703,-2.5703,-2.5703,-2.5703,-2.5703,-2.5703,-2.5703,-2.5703,-2.5703,-2.5703,-2.5703,-2.5703,-2.5703,-2.5703,-2.5703,-2.5703,-2.5703,-2.5703,-2.5703,-2.5702,-2.5698,-2.5691,-1.6582,0.0,0.0,0.0,0.0,0.0,0.0,0.0,0.0,0.0,0.0,0.0,0.0,0.0,0.0,0.0,0.0,0.0,0.0,0.0,0.0,0.0,0.0,-2.0762,0.0,-2.0605,0.0,0.0,0.0,0.0,0.0,0.0,0.0,0.0,0.0,0.0,0.0,0.0,0.0,-2.0603,0.0,-2.113,-2.1892,-2.1894,-2.2402,-2.2988,-2.2187,-2.1348,-2.0605,-2.0605,0.0,-2.0605,-2.0605,-2.0605,0.0,0.0,0.0,0.0,0.0,0.0,0.0,0.0,0.0,-2.0371,0.0,0.0,0.0,-1.8184,0.0,0.0,0.0,0.0,0.0,0.0,0.0,0.0,0.0,0.0,0.0,0.0,0.0,-2.0625,-2.1328,-2.2344,-2.293,-2.2871,-2.3652,-2.416,-2.418,-2.498,-2.5449,-2.5449,-2.5605,-2.5703,-2.5703,-2.5703,-2.5703,-2.5703,-2.5703,-2.5703,-2.5703,-2.5703,-2.5703,-2.5703,-2.5703,-2.5703,-2.5703,-2.5703,-2.5703,-2.5703,-2.5703,-2.5703,-2.5702,-2.5699,-2.5689,-2.5671,-1.6836,0.0,0.0,0.0,0.0,0.0,0.0,0.0,0.0,0.0,0.0,0.0,0.0,0.0,0.0,0.0,0.0,0.0,-2.3047,0.0,0.0,0.0,0.0,0.0,-2.0625,-2.0605,0.0,0.0,0.0,0.0,0.0,0.0,0.0,0.0,-1.9297,0.0,0.0,0.0,-1.9805,0.0,-2.0605,-2.1113,0.0,-2.1894,-2.2402,-2.2988,-2.2187,-2.1348,-2.0605,0.0,-2.0605,-2.0605,0.0,-2.0605,-2.0605,0.0,0.0,0.0,0.0,0.0,0.0,0.0,-2.0605,0.0,0.0,0.0,-1.9043,-1.8184,0.0,0.0,0.0,0.0,0.0,0.0,0.0,0.0,0.0,0.0,0.0,0.0,-1.8926,-1.9492,-1.959,-2.1074,-2.2031,-2.2031,-2.2793,-2.3262,-2.332,-2.4102,-2.4551,-2.4551,-2.5293,-2.5703,-2.5703,-2.5703,-2.5703,-2.5703,-2.5703,-2.5703,-2.5703,-2.5703,-2.5703,-2.5703,-2.5703,-2.5703,-2.5703,-2.5703,-2.5703,-2.5703,-2.5703,-2.5702,-2.5699,-2.5709,-2.5668,-2.5601,-1.8281,0.0,0.0,0.0,0.0,0.0,0.0,0.0,0.0,0.0,0.0,0.0,0.0,0.0,0.0,0.0,0.0,-2.4414,0.0,0.0,0.0,0.0,0.0,0.0,0.0,-2.0859,-2.0605,0.0,-2.0605,0.0,0.0,0.0,0.0,0.0,-1.9297,0.0,-1.9297,0.0,0.0,0.0,0.0,0.0,0.0,-2.1719,-2.2109,-2.2363,-2.2012,-2.1348,-2.0605,0.0,-2.0605,0.0,0.0,0.0,0.0,0.0,0.0,0.0,0.0,0.0,0.0,0.0,0.0,0.0,-2.0137,0.0,-1.9941,0.0,0.0,0.0,0.0,0.0,0.0,0.0,-1.7812,0.0,0.0,0.0,0.0,0.0,0.0,0.0,-1.9961,-2.0723,-2.1152,-2.1152,-2.1934,-2.2422,-2.2441,-2.3203,-2.3887,-2.4375,-2.4746,-2.5195,-2.5703,-2.5703,-2.5703,-2.5703,-2.5703,-2.5703,-2.5703,-2.5703,-2.5703,-2.5703,-2.5703,-2.5703,-2.5703,-2.5703,-2.5703,-2.5703,-2.57,-2.5697,-2.5693,-2.5654,-2.5621,-2.559,0.0,0.0,0.0,0.0,0.0,0.0,0.0,0.0,0.0,0.0,0.0,0.0,-2.4687,-2.4766,0.0,0.0,0.0,-2.543,0.0,0.0,-2.4375,0.0,0.0,0.0,0.0,0.0,0.0,0.0,0.0,0.0,0.0,0.0,0.0,0.0,0.0,-1.9512,-1.9297,0.0,0.0,-2.0605,-2.0605,-2.0605,-2.0664,-2.1309,-2.1543,-2.1543,-2.1543,-2.1133,-2.0605,-2.0605,-2.0605,0.0,-2.0879,0.0,0.0,0.0,0.0,0.0,-2.1016,0.0,0.0,0.0,0.0,0.0,0.0,0.0,0.0,0.0,0.0,0.0,0.0,0.0,0.0,0.0,0.0,0.0,0.0,0.0,0.0,0.0,0.0,0.0,0.0,-1.9883,-1.9883,-1.9883,-2.0684,-2.1191,-2.1191,-2.2187,-2.3066,-2.3691,-2.416,-2.4707,-2.5332,-2.5586,-2.5703,-2.5703,-2.5703,-2.5703,-2.5703,-2.5703,-2.5703,-2.5703,-2.5703,-2.5703,-2.5703,-2.5703,-2.5703,-2.5702,-2.5694,-2.5685,-2.5673,-2.5629,-2.5581,-2.5551,0.0,-2.0566,0.0,0.0,0.0,0.0,0.0,0.0,0.0,0.0,0.0,0.0,0.0,0.0,0.0,0.0,0.0,-2.5684,-2.5664,0.0,-2.5273,0.0,0.0,-2.3926,0.0,0.0,0.0,0.0,0.0,0.0,0.0,0.0,0.0,0.0,0.0,-2.0098,-1.9297,-1.9297,-1.9805,-2.0605,-2.0605,-2.0605,-2.0605,0.0,-2.0644,-2.0644,-2.0644,0.0,0.0,-2.0605,-2.0605,0.0,0.0,0.0,0.0,0.0,0.0,0.0,0.0,0.0,0.0,-2.0801,0.0,0.0,0.0,0.0,-2.0605,0.0,0.0,0.0,0.0,0.0,0.0,0.0,0.0,0.0,0.0,0.0,0.0,0.0,0.0,0.0,0.0,-1.8086,-1.8086,-1.8086,-1.8887,-1.9375,-1.9375,-2.1016,-2.1953,-2.1973,-2.3555,-2.4414,-2.4434,-2.5273,-2.5703,-2.5703,-2.5703,-2.5703,-2.5703,-2.5703,-2.5703,-2.5703,-2.5703,-2.5703,-2.5703,-2.5703,-2.5702,-2.5699,-2.5707,-2.5662,-2.5604,-2.5595,-2.5564,-2.5495,0.0,0.0,0.0,0.0,0.0,0.0,0.0,-2.4238,0.0,0.0,0.0,0.0,0.0,0.0,-2.5703,0.0,0.0,-2.5703,-2.5703,-2.5703,0.0,0.0,0.0,-2.4258,0.0,0.0,0.0,0.0,0.0,0.0,0.0,0.0,0.0,0.0,0.0,-2.1797,0.0,0.0,0.0,0.0,0.0,-2.0605,-2.0605,0.0,-2.0605,-2.0605,-2.0605,-2.0605,0.0,-2.0605,-2.0977,-2.1504,-2.1816,-2.2266,-2.2754,-2.3047,-2.3125,-2.3047,0.0,0.0,-2.1816,-2.1481,0.0,0.0,0.0,0.0,0.0,0.0,0.0,0.0,0.0,0.0,0.0,0.0,0.0,0.0,0.0,0.0,0.0,0.0,0.0,0.0,0.0,0.0,0.0,-1.7148,-1.7949,-1.8691,-1.9277,-2.041,-2.1309,-2.1875,-2.2969,-2.3828,-2.4394,-2.5254,-2.5703,-2.5703,-2.5703,-2.5703,-2.5703,-2.5703,-2.5703,-2.5703,-2.5703,-2.5703,-2.5703,-2.5702,-2.5697,-2.5707,-2.5645,-2.5585,-2.5529,-2.5537,-2.5492,-2.541,-2.1797,0.0,0.0,0.0,0.0,0.0,0.0,0.0,0.0,0.0,-2.5703,0.0,-2.5703,0.0,-2.5703,0.0,-2.5703,-2.5703,-2.5703,-2.5703,0.0,-2.5703,-2.5156,0.0,0.0,0.0,0.0,0.0,0.0,-2.4062,0.0,0.0,0.0,0.0,0.0,0.0,0.0,0.0,-2.1582,0.0,0.0,-2.0605,0.0,0.0,-2.0605,-2.0605,0.0,-2.0605,-2.0605,-2.0605,-2.1172,-2.1953,-2.2246,-2.2891,-2.3613,-2.3926,-2.4023,-2.3965,-2.365,-2.2965,0.0,-2.1884,-2.118,0.0,-2.0554,0.0,0.0,0.0,0.0,0.0,0.0,0.0,0.0,0.0,0.0,0.0,0.0,-1.5326,0.0,0.0,0.0,0.0,0.0,0.0,-1.5773,-1.5778,-1.6873,-1.7929,0.0,-1.996,-2.0859,-2.1426,-2.2246,-2.3086,-2.3965,-2.4805,-2.5391,-2.5703,-2.5703,-2.5703,-2.5703,-2.5703,-2.5703,-2.5703,-2.5702,-2.5702,-2.57,-2.5696,-2.5685,-2.5665,-2.5613,-2.556,-2.5499,-2.5473,-2.5422,-2.5359,0.0,0.0,0.0,0.0,-2.3906,0.0,0.0,0.0,-2.5703,0.0,-2.5703,-2.5703,-2.5703,-2.5703,-2.5703,-2.5703,-2.5703,0.0,-2.5703,-2.5703,0.0,0.0,-2.5703,-2.5703,-2.5703,0.0,0.0,0.0,0.0,0.0,0.0,0.0,0.0,0.0,-2.4453,0.0,-2.3203,-2.2383,-2.1973,-2.1816,-2.0957,-2.0605,-2.0605,-2.0605,-2.0605,-2.0605,-2.0605,-2.0605,-2.0605,-2.0644,-2.123,-2.2109,-2.291,-2.3769,-2.4629,-2.5468,-2.5702,-2.5525,-2.4699,-2.3796,-2.2892,-2.2067,-2.1162,0.0,0.0,0.0,-2.0497,0.0,0.0,0.0,0.0,0.0,0.0,0.0,0.0,0.0,0.0,0.0,0.0,0.0,0.0,0.0,0.0,-1.3993,-1.3981,-1.4032,-1.5657,0.0,0.0,-1.9646,-2.0604,-2.0604,-2.1445,-2.2305,-2.3184,-2.4004,-2.4844,-2.5703,-2.5703,-2.5703,-2.5703,-2.5703,-2.5702,-2.5702,-2.5697,-2.5693,-2.5691,-2.5696,-2.5658,-2.5593,-2.5599,-2.5544,-2.5488,-2.5414,-2.5348,-2.5303,-2.3516,-2.4453,-2.5059,0.0,-2.5215,-2.5449,0.0,0.0,0.0,0.0,-2.5703,-2.5703,-2.5703,-2.5703,-2.5703,-2.5703,-2.5703,0.0,0.0,0.0,0.0,-2.5703,-2.5703,-2.5703,-2.5703,-2.5703,0.0,-2.5703,0.0,0.0,-2.5703,0.0,0.0,0.0,0.0,0.0,-2.4082,-2.3848,-2.3047,-2.1816,-2.0957,-2.0605,-2.0605,0.0,-2.0605,-2.0605,-2.0605,-2.0605,-2.0703,-2.1347,-2.2109,-2.2949,-2.3807,-2.4666,-2.5408,-2.564,-2.5696,-2.5631,-2.5378,-2.4219,-2.3036,-2.2769,-2.1582,-2.0499,0.0,0.0,0.0,0.0,0.0,0.0,0.0,0.0,0.0,0.0,0.0,0.0,0.0,0.0,0.0,-1.6193,0.0,0.0,-1.3199,-1.2518,-1.2433,-1.3085,-1.4758,0.0,0.0,0.0,-2.0557,-2.0601,-2.1403,-2.2243,-2.3123,-2.3963,-2.4842,-2.5702,-2.5702,-2.57,-2.5698,-2.5697,-2.5694,-2.5707,-2.5705,-2.5676,-2.5639,-2.5625,-2.5595,-2.5523,-2.5538,-2.548,-2.5425,-2.5406,-2.5351,-2.5303,-2.4219,0.0,0.0,-2.5703,0.0,0.0,-2.5762,0.0,0.0,-2.5703,-2.5703,0.0,-2.5703,-2.5703,-2.5703,-2.5703,-2.5703,0.0,-2.5703,0.0,0.0,-2.5703,-2.5703,-2.5703,-2.5703,-2.5703,0.0,-2.5703,0.0,0.0,-2.5703,0.0,0.0,0.0,0.0,-2.543,0.0,-2.4551,-2.3652,-2.2383,-2.1523,-2.1172,0.0,-2.0742,-2.0605,-2.0604,-2.0564,-2.0584,-2.0721,-2.1579,-2.2418,-2.3256,-2.4132,-2.5009,-2.5691,-2.5661,-2.5654,-2.5645,-2.557,-2.4326,-2.3047,-2.2963,-2.1696,-2.0454,-2.0404,-2.0429,-2.0454,0.0,-2.0399,-2.0239,0.0,0.0,0.0,0.0,0.0,0.0,0.0,0.0,0.0,0.0,-1.538,0.0,-1.2826,-1.2641,-1.2639,-1.2753,-1.4723,0.0,0.0,0.0,-2.0521,-2.0566,-2.0999,-2.1823,-2.3093,-2.3581,-2.4461,-2.5691,-2.5691,-2.5709,-2.5705,-2.5679,-2.5651,-2.5645,-2.5629,-2.5589,-2.5566,-2.556,-2.5525,-2.5459,-2.5464,-2.5415,-2.5351,-2.5351,-2.5322,-2.5303,0.0,0.0,0.0,0.0,0.0,0.0,0.0,-2.5879,0.0,-2.5879,0.0,-2.5703,-2.5703,-2.5703,-2.5703,-2.5703,0.0,-2.5703,-2.5703,-2.5703,-2.5703,-2.5703,-2.5703,-2.5703,-2.5703,-2.5703,0.0,0.0,0.0,0.0,0.0,0.0,0.0,0.0,0.0,0.0,0.0,-2.4766,-2.4004,-2.3281,-2.2402,-2.1992,-2.1797,-2.1053,-2.068,-2.0579,-2.0515,-2.0536,-2.0734,-2.1668,-2.2465,-2.3261,-2.4249,-2.5086,-2.5668,-2.5601,-2.5589,-2.5561,-2.5504,-2.4257,-2.2978,-2.2908,-2.1623,-2.0392,-2.0392,-2.0392,-2.0392,-2.0392,-2.0392,-2.0366,-2.0314,0.0,0.0,0.0,0.0,0.0,0.0,0.0,0.0,0.0,0.0,0.0,-1.2931,-1.3345,-1.3391,-1.275,0.0,0.0,0.0,0.0,-2.0373,-2.0474,-2.0483,-2.1311,-2.3068,-2.3088,-2.3965,-2.5684,-2.5684,-2.5681,-2.5678,-2.5601,-2.5589,-2.5585,-2.5535,-2.5511,-2.5486,-2.549,-2.5461,-2.539,-2.5397,-2.5351,-2.5303,-2.5303,-2.5293,-2.5293,0.0,0.0,0.0,0.0,0.0,-2.6953,-2.6797,-2.6777,-2.6777,-2.6777,-2.6152,-2.5703,-2.5703,-2.5703,-2.5703,-2.5703,-2.5703,0.0,0.0,0.0,0.0,-2.5703,-2.5703,-2.5703,-2.5703,-2.5703,-2.5703,0.0,0.0,0.0,0.0,0.0,0.0,0.0,0.0,0.0,-2.5644,-2.4765,0.0,-2.4114,-2.3235,-2.2453,-2.1806,-2.1649,-2.1136,-2.0523,-2.0494,-2.0501,-2.0761,-2.2341,-2.2978,-2.3364,-2.4908,-2.5488,-2.56,-2.5546,-2.551,-2.5511,-2.5432,-2.4184,-2.2905,-2.2821,-2.1567,-2.032,-2.0318,-2.0313,-2.032,-2.0318,-2.0318,-2.0311,-2.0289,0.0,0.0,0.0,0.0,0.0,0.0,0.0,0.0,0.0,0.0,-1.3843,0.0,-1.2574,0.0,0.0,0.0,0.0,0.0,0.0,-1.9663,0.0,-2.0418,-2.1243,0.0,0.0,-2.3887,-2.5624,-2.5624,-2.5591,-2.5526,-2.5521,-2.5517,-2.5511,-2.5517,-2.5476,-2.5426,-2.5418,-2.5412,-2.5388,-2.5332,-2.5322,-2.5292,-2.5292,-2.5271,-2.5239,0.0,0.0,0.0,0.0,0.0,0.0,0.0,-2.8359,-2.8027,-2.7129,-2.6621,-2.6191,-2.5742,-2.5703,-2.5703,-2.5703,-2.5703,-2.5703,-2.5703,-2.5703,-2.5703,-2.5703,-2.5703,0.0,-2.5703,-2.5703,-2.5703,-2.5703,0.0,0.0,0.0,0.0,0.0,0.0,0.0,-2.5702,0.0,0.0,0.0,-2.5002,-2.412,-2.3513,-2.3042,-2.2138,-2.1542,-2.1104,-2.0613,-2.0449,-2.0648,-2.1947,-2.2658,-2.3222,-2.4475,-2.5181,-2.5518,-2.5466,-2.5452,-2.543,-2.5421,-2.4141,-2.2832,-2.2799,-2.1548,-2.0296,-2.0308,-2.0296,-2.0296,-2.0308,-2.0308,-2.03,-2.0292,-2.0312,0.0,0.0,0.0,0.0,0.0,0.0,0.0,0.0,0.0,0.0,0.0,0.0,0.0,0.0,0.0,0.0,0.0,0.0,-1.9475,0.0,0.0,0.0,-2.2258,0.0,-2.3597,-2.4878,-2.5324,-2.5525,-2.5505,-2.5459,-2.5456,-2.5445,-2.5448,-2.5423,-2.5406,-2.535,-2.5341,-2.5332,-2.5312,-2.5282,-2.525,-2.522,-2.5145,-2.5106,0.0,-2.8301,0.0,0.0,-2.9023,0.0,-2.9609,-2.9609,-2.9043,-2.748,-2.7129,-2.668,-2.5801,-2.5703,-2.5703,-2.5703,-2.5703,-2.5703,-2.5703,-2.5703,-2.5703,-2.5703,-2.5703,-2.5703,-2.5703,-2.5703,-2.5703,0.0,0.0,0.0,0.0,0.0,0.0,0.0,0.0,0.0,0.0,0.0,-2.5673,-2.5626,-2.4914,-2.4518,-2.4179,-2.2621,-2.1908,-2.1647,-2.073,-2.0394,-2.0474,-2.1161,-2.195,-2.2785,-2.3644,-2.4385,-2.4931,-2.488,-2.4979,-2.5125,-2.5109,-2.4118,-2.303,-2.2859,-2.1677,-2.0504,-2.035,-2.0312,-2.0312,-2.0312,-2.0312,-2.0312,-2.0312,-2.0312,0.0,0.0,0.0,0.0,0.0,0.0,0.0,0.0,0.0,0.0,-1.3277,0.0,0.0,0.0,0.0,0.0,-1.6476,0.0,0.0,0.0,0.0,-2.0779,-2.1597,0.0,-2.3338,-2.4181,-2.505,-2.5476,-2.5468,-2.5412,-2.5385,-2.5376,-2.5379,-2.538,-2.538,-2.5313,-2.5283,-2.5271,-2.5271,-2.5228,-2.5153,-2.508,-2.5013,-2.4953,0.0,0.0,0.0,0.0,0.0,0.0,-2.9609,-2.9609,-2.9258,-2.8301,-2.748,-2.668,-2.5801,-2.5703,-2.5703,-2.5703,-2.5703,-2.5703,-2.5703,-2.5703,-2.5703,-2.5703,-2.5703,-2.5703,-2.5703,-2.5703,-2.5703,0.0,0.0,-2.5701,0.0,0.0,0.0,0.0,0.0,0.0,-2.569,-2.5636,-2.5609,-2.559,-2.5443,-2.4915,-2.4109,-2.3159,-2.2313,-2.152,-2.0688,-2.0354,-2.0327,-2.041,-2.1003,-2.1874,-2.2748,-2.3087,-2.3138,-2.3056,-2.3606,-2.4223,-2.4215,-2.4091,-2.3783,-2.3013,-2.2081,-2.1196,-2.0465,-2.0312,-2.0312,-2.0312,-2.0312,-2.0312,-2.0312,-2.0312,-2.0312,0.0,0.0,0.0,0.0,0.0,0.0,0.0,0.0,0.0,0.0,-1.4964,0.0,0.0,-1.4017,0.0,0.0,0.0,0.0,-2.0253,-2.0311,-2.0723,-2.1594,-2.2462,-2.3311,-2.4122,-2.499,-2.5406,-2.5407,-2.5407,-2.537,-2.5313,-2.5313,-2.5322,-2.5321,-2.5292,-2.5261,-2.5198,-2.5138,-2.5087,-2.5006,-2.4942,-2.4851,-2.4723,0.0,0.0,0.0,0.0,0.0,0.0,0.0,-2.9919,-2.9295,-2.8416,-2.7539,-2.668,-2.5801,-2.5703,-2.5703,-2.5703,-2.5703,-2.5703,-2.5703,-2.5703,-2.5702,-2.5702,-2.5701,-2.57,-2.57,-2.5697,-2.5696,0.0,0.0,0.0,0.0,0.0,0.0,0.0,0.0,-2.5636,-2.5643,-2.5576,-2.5529,-2.5538,-2.5511,-2.5297,-2.4895,-2.401,-2.3132,-2.2267,-2.1427,-2.0769,-2.0292,-2.0289,-2.0855,-2.1602,-2.196,-2.2423,-2.2819,-2.281,-2.3041,-2.3426,-2.3956,-2.3725,-2.3244,-2.2889,-2.2139,-2.1293,-2.0485,-2.0312,-2.0312,-2.0312,-2.0312,-2.0312,-2.0312,-2.0312,-2.0312,-2.0312,0.0,0.0,0.0,0.0,0.0,0.0,0.0,0.0,0.0,0.0,0.0,0.0,0.0,0.0,0.0,0.0,0.0,-2.0242,0.0,-2.0462,-2.0816,-2.2172,-2.3,-2.3347,-2.4687,-2.5332,-2.5351,-2.5351,-2.5332,-2.5302,-2.5302,-2.5282,-2.5239,-2.5209,-2.5134,-2.5069,-2.5006,-2.4915,-2.4808,-2.4746,-2.4639,-2.451,-3.0777,0.0,-3.0866,0.0,-3.0845,-3.0847,-3.0806,-2.9871,-2.8974,-2.8351,-2.73,-2.6385,-2.5761,-2.5702,-2.5702,-2.5702,-2.5701,-2.57,-2.57,-2.5698,-2.5696,-2.5696,-2.5691,0.0,-2.5707,-2.5681,-2.5676,-2.5676,-2.5673,0.0,0.0,0.0,0.0,-2.558,-2.5571,-2.5568,-2.557,-2.5499,-2.5478,-2.5476,-2.5456,-2.5459,-2.5354,-2.4488,-2.3794,-2.311,-2.1987,-2.1182,-2.0616,-2.0369,-2.0677,-2.1158,-2.1158,-2.1562,-2.2062,-2.2062,-2.2235,-2.2601,-2.3475,-2.3283,-2.2793,-2.2793,-2.2139,-2.1293,-2.0485,-2.0312,-2.0312,-2.0312,-2.0312,-2.0312,-2.0312,-2.0312,-2.0312,-2.0312,0.0,0.0,0.0,-1.9135,0.0,0.0,-1.697,-1.6816,-1.6816,-1.7066,0.0,0.0,0.0,0.0,0.0,0.0,0.0,0.0,0.0,0.0,-2.0312,-2.1966,-2.2793,-2.2812,-2.4505,-2.5303,-2.5303,-2.5303,-2.5283,-2.5282,-2.5241,-2.5198,-2.513,-2.5068,-2.4981,-2.4912,-2.4832,-2.4731,-2.461,-2.4561,-2.4459,-2.4338,-3.0691,-3.0767,-3.0798,-3.0798,-3.0798,-3.0801,-3.0791,-2.9327,-2.8212,-2.8198,-2.6754,-2.5703,-2.5693,-2.5691,-2.5707,-2.5707,-2.5707,-2.5707,-2.5707,-2.5703,-2.5701,0.0,0.0,-2.571,-2.571,-2.5632,-2.5601,-2.5601,0.0,0.0,-2.561,-2.554,-2.5504,-2.5498,-2.5505,-2.5495,-2.5495,-2.5437,-2.5393,-2.5406,-2.5407,-2.5361,-2.5216,-2.4418,-2.4091,-2.386,-2.212,-2.1485,-2.137,-2.0581,-2.0312,-2.0312,-2.0312,-2.0331,-2.0331,-2.0331,-2.0889,-2.1716,-2.2581,-2.2812,-2.2793,-2.2793,-2.2139,-2.1293,-2.0485,-2.0312,-2.0312,-2.0312,-2.0312,-2.0312,-2.0312,-2.0312,-2.0312,-2.0312,0.0,0.0,0.0,-1.9432,0.0,-1.8863,-1.8111,-1.7587,-1.7587,-1.8368,0.0,0.0,0.0,0.0,0.0,0.0,0.0,-2.0273,-2.0312,-2.0312,-2.0312,-2.1966,-2.2793,-2.2812,-2.4505,-2.5303,-2.5303,-2.5302,-2.5252,-2.5212,-2.5138,-2.5056,-2.4993,-2.4915,-2.4818,-2.4707,-2.4623,-2.4508,-2.4389,-2.4411,-2.4321,-2.421,-3.0685,-3.0714,-3.0725,-3.0728,-3.0739,-3.0531,-2.9941,-2.8875,-2.7931,-2.739,-2.6286,-2.5552,-2.5561,-2.5658,-2.5696,0.0,-2.5665,-2.5639,0.0,-2.5625,-2.5636,-2.5636,-2.5595,-2.5566,-2.5566,-2.554,-2.5523,-2.5523,0.0,0.0,-2.5525,-2.5459,-2.5425,-2.543,-2.5437,-2.544,-2.544,-2.5406,-2.5397,-2.5407,-2.5351,-2.5313,-2.5264,-2.5024,-2.4582,-2.3956,-2.2793,-2.2004,-2.1389,-2.0581,-2.0312,-2.0312,-2.0312,-2.0312,-2.0312,-2.0312,-2.0869,-2.1696,-2.2562,-2.2793,-2.2793,-2.2793,-2.2139,-2.1293,-2.0485,-2.0312,-2.0312,-2.0312,-2.0312,-2.0312,-2.0312,-2.0265,-2.0238,-2.0238,-2.0205,0.0,-2.0134,0.0,-1.9697,-1.9659,-1.9421,-1.924,-1.924,-1.9497,0.0,0.0,0.0,0.0,0.0,0.0,0.0,-2.02,-2.0238,-2.0238,-2.0312,-2.1966,-2.2793,-2.2812,-2.4505,-2.5293,-2.5302,-2.5252,-2.5209,-2.513,-2.505,-2.4966,-2.4846,-2.4731,-2.4623,-2.4493,-2.4479,-2.4374,-2.4248,-2.4248,-2.4247,-2.419,-3.061,-3.0622,-3.0618,-3.0614,-3.0377,-2.9984,-2.9446,-2.8372,-2.7433,-2.6934,-2.6075,-2.5493,-2.5506,-2.5579,0.0,-2.5628,-2.5591,-2.5561,-2.5561,-2.556,-2.5568,-2.5568,-2.5518,-2.5506,-2.5506,-2.5478,-2.5464,-2.5464,-2.5456,-2.5461,-2.5464,-2.5429,-2.5393,-2.5395,-2.5369,-2.536,-2.536,-2.5361,-2.5361,-2.5361,-2.5313,-2.5303,-2.5303,-2.5303,-2.4986,-2.4428,-2.359,-2.2735,-2.187,-2.1023,-2.0562,-2.0312,-2.0312,-2.0312,-2.0312,-2.0312,-2.0869,-2.1696,-2.2562,-2.2562,-2.2389,-2.2716,-2.1927,-2.1004,-2.0812,-2.0746,-2.0834,-2.1161,-2.0952,-2.0713,-2.0713,-2.0408,-2.0169,-2.0161,-2.0135,-2.0108,-2.004,0.0,-1.9966,0.0,0.0,-1.9892,0.0,-1.9915,-1.9936,0.0,0.0,0.0,0.0,0.0,-1.9588,-2.015,-2.0169,-2.035,-2.0713,-2.2085,-2.2939,-2.3275,-2.4639,-2.5302,-2.5252,-2.5179,-2.5111,-2.5032,-2.494,-2.4813,-2.4679,-2.458,-2.4461,-2.432,-2.4321,-2.4266,-2.4191,-2.4191,-2.419,-2.4208,-3.0491,-3.0492,-3.0472,-3.0414,-2.9795,-2.9253,-2.9135,-2.7788,-2.6761,-2.6711,-2.6006,-2.548,-2.5484,-2.5484,-2.5499,-2.5478,0.0,0.0,-2.5492,-2.5483,-2.5488,-2.5488,-2.5492,-2.5484,-2.5484,-2.5421,-2.5393,-2.5393,-2.5395,-2.5387,-2.5387,-2.5388,-2.5389,-2.5389,-2.5322,-2.5303,-2.5303,-2.5303,-2.5303,-2.5303,-2.5303,-2.5303,-2.5303,-2.5303,-2.5303,-2.5187,-2.4399,-2.3552,-2.2658,-2.1793,-2.0966,-2.0312,-2.0369,-2.0389,-2.0389,-2.0389,-2.0966,-2.1773,-2.2639,-2.2254,-2.1773,-2.2601,-2.1581,-2.0573,-2.1323,-2.1537,-2.1807,-2.2613,-2.2096,-2.1455,-2.1397,-2.0728,-2.0155,-2.0098,-2.0029,-1.9947,-1.9896,-1.983,-1.9795,0.0,0.0,-1.9686,-1.9686,-1.9757,-1.9782,0.0,0.0,0.0,0.0,0.0,-2.0069,-2.0079,-2.0136,-2.0575,-2.1397,-2.2306,-2.3217,-2.4081,-2.4898,-2.5252,-2.5182,-2.5118,-2.5,-2.4874,-2.4749,-2.461,-2.4478,-2.4411,-2.4321,-2.4192,-2.4192,-2.4209,-2.419,-2.419,-2.4208,-2.417,-3.0419,0.0,-3.0278,-2.962,-2.9351,-2.8782,-2.7431,-2.6948,-2.6474,-2.5826,-2.5558,-2.5425,-2.5425,-2.5379,-2.5351,-2.534,-2.5393,-2.5426,-2.5426,-2.5421,-2.5412,-2.5412,-2.5415,-2.5416,-2.5416,-2.5351,-2.5313,-2.5313,-2.5332,-2.5322,-2.5322,-2.5322,-2.5322,-2.5322,-2.5313,-2.5303,-2.5303,-2.5303,-2.5303,-2.5303,-2.5303,-2.5303,-2.5303,-2.5303,-2.5303,-2.5187,-2.4399,-2.3552,-2.2658,-2.1793,-2.0966,-2.0408,-2.1023,-2.1216,-2.1216,-2.1216,-2.1812,-2.2677,-2.3571,-2.3167,-2.2543,-2.2754,-2.1996,-2.125,-2.1387,-2.1943,-2.2459,-2.2609,-2.2473,-2.2119,-2.145,-2.1103,-2.0728,-2.0064,-1.99,-1.9818,-1.9763,-1.9688,-1.966,0.0,-1.9625,-1.9611,-1.9611,-1.9638,-1.9652,0.0,0.0,-1.9675,-1.9719,-1.977,-1.9835,-1.995,-2.0595,-2.1054,-2.1325,-2.2806,-2.3984,-2.4831,-2.5042,-2.5103,-2.5043,-2.4968,-2.4861,-2.4734,-2.461,-2.4461,-2.4339,-2.4266,-2.4229,-2.4209,-2.4209,-2.4209,-2.419,-2.419,-2.417,-2.4113,-3.0394,-3.0425,-3.0186,-2.9308,-2.8856,-2.8144,-2.6814,-2.6285,-2.589,-2.5408,-2.5341,-2.5351,-2.5351,-2.5322,-2.5303,-2.5303,-2.5331,-2.535,-2.535,-2.536,-2.5351,-2.5351,-2.5341,-2.5351,-2.5351,-2.5313,-2.5303,-2.5303,-2.5303,-2.5303,-2.5303,-2.5303,-2.5303,-2.5303,-2.5303,-2.5303,-2.5303,-2.5303,-2.5303,-2.5303,-2.5303,-2.5303,-2.5303,-2.5303,-2.5303,-2.5245,-2.4812,-2.4101,-2.3321,-2.2851,-2.212,-2.1523,-2.1966,-2.2081,-2.2177,-2.2562,-2.3024,-2.3485,-2.3938,-2.3717,-2.3246,-2.2863,-2.2384,-2.2096,-2.2429,-2.2844,-2.3255,-2.3574,-2.3284,-2.2817,-2.2357,-2.1909,-2.133,-2.0452,-2.0281,-2.0103,-1.9679,-1.9541,-1.9522,-1.9512,-1.9479,-1.946,-1.946,-1.9479,-1.9674,-2.0022,-2.0088,0.0,-2.0674,-2.0711,-2.0593,-2.0364,-2.0828,-2.1457,-2.2262,-2.3632,-2.4537,-2.5,-2.5,-2.4994,-2.4947,-2.4818,-2.47,-2.4594,-2.4461,-2.4338,-2.4247,-2.4228,-2.419,-2.419,-2.419,-2.419,-2.419,-2.419,-2.4151,-2.4074,-3.0398,-3.0398,-3.0121,-2.9198,-2.8409,-2.7563,-2.6563,-2.5793,-2.5303,-2.5303,-2.5303,-2.5303,-2.5303,-2.5303,-2.5303,-2.5303,-2.5303,-2.5303,-2.5303,-2.5303,-2.5303,-2.5303,-2.5303,-2.5303,-2.5303,-2.5303,-2.5303,-2.5303,-2.5303,-2.5303,-2.5303,-2.5303,-2.5303,-2.5303,-2.5303,-2.5303,-2.5303,-2.5303,-2.5303,-2.5303,-2.5303,-2.5303,-2.5303,-2.5303,-2.5303,-2.5303,-2.5303,-2.4774,-2.411,-2.411,-2.3514,-2.2812,-2.2947,-2.3004,-2.3167,-2.4033,-2.4274,-2.4265,-2.4197,-2.4081,-2.3764,-2.2879,-2.271,-2.2932,-2.3586,-2.3796,-2.4033,-2.4695,-2.4166,-2.3536,-2.339,-2.2768,-2.1984,-2.1113,-2.0845,-2.0519,-1.9767,-1.949,-1.939,-1.939,-1.9323,-1.9305,-1.9305,-1.9467,-1.985,-2.0531,-2.0763,-2.1166,-2.185,-2.1887,-2.1676,-2.122,-2.1231,-2.1984,-2.3555,-2.4417,-2.4847,-2.4861,-2.4861,-2.4851,-2.4842,-2.4654,-2.4526,-2.4461,-2.4339,-2.4247,-2.421,-2.4209,-2.419,-2.419,-2.419,-2.419,-2.419,-2.419,-2.4151,-2.4036,-3.0398,-3.0398,-3.0052,-2.8948,-2.8275,-2.7351,-2.5755,-2.538,-2.5303,-2.5303,-2.5303,-2.5303,-2.5303,-2.5303,-2.5303,-2.5303,-2.5303,-2.5303,-2.5303,-2.5303,-2.5303,-2.5303,-2.5303,-2.5303,-2.5303,-2.5303,-2.5303,-2.5303,-2.5303,-2.5303,-2.5303,-2.5303,-2.5303,-2.5303,-2.5303,-2.5303,-2.5303,-2.5303,-2.5303,-2.5303,-2.5303,-2.5303,-2.5303,-2.5303,-2.5303,-2.5303,-2.5303,-2.4774,-2.411,-2.411,-2.3514,-2.2928,-2.3667,-2.3898,-2.4072,-2.487,-2.5101,-2.51,-2.503,-2.443,-2.3606,-2.2683,-2.3,-2.353,-2.3465,-2.4024,-2.4557,-2.4556,-2.4433,-2.4102,-2.3363,-2.3128,-2.2743,-2.1874,-2.1108,-2.0597,-2.0452,-1.9795,-1.9323,-1.9323,-1.9323,-1.9305,-1.9305,-1.9913,-2.0391,-2.0519,-2.1215,-2.1691,-2.182,-2.182,-2.2077,-2.2665,-2.2785,-2.3312,-2.4323,-2.4487,-2.4594,-2.4645,-2.4645,-2.4629,-2.4561,-2.4476,-2.4391,-2.4321,-2.4248,-2.421,-2.4209,-2.419,-2.419,-2.419,-2.419,-2.419,-2.419,-2.4151,-2.4054,-2.3896,-3.0398,-3.0398,-3.0033,-2.8898,-2.8255,-2.7313,-2.5572,-2.5303,-2.5303,-2.5303,-2.5303,-2.5303,-2.5303,-2.5303,-2.5303,-2.5303,-2.5303,-2.5303,-2.5303,-2.5303,-2.5303,-2.5303,-2.5303,-2.5303,-2.5303,-2.5303,-2.5303,-2.5303,-2.5303,-2.5303,-2.5303,-2.5303,-2.5303,-2.5303,-2.5303,-2.5303,-2.5303,-2.5303,-2.5303,-2.5303,-2.5303,-2.5303,-2.5303,-2.5303,-2.5303,-2.5303,-2.5303,-2.5063,-2.4755,-2.4755,-2.4485,-2.4216,-2.462,-2.4745,-2.4812,-2.5197,-2.5252,-2.5179,-2.5103,-2.4727,-2.4236,-2.3757,-2.3888,-2.411,-2.4014,-2.4284,-2.4532,-2.4464,-2.4393,-2.4227,-2.3803,-2.3749,-2.3474,-2.2644,-2.2168,-2.1746,-2.1305,-2.0499,-1.995,-1.995,-1.995,-1.995,-1.995,-2.0703,-2.1382,-2.1805,-2.2226,-2.263,-2.307,-2.3088,-2.3254,-2.3639,-2.3713,-2.3915,-2.432,-2.441,-2.4464,-2.4481,-2.4481,-2.4481,-2.4428,-2.4338,-2.4284,-2.4229,-2.421,-2.419,-2.419,-2.419,-2.419,-2.419,-2.419,-2.417,-2.4151,-2.4074,-2.3937,-2.3753,-3.0398,-3.0186,-2.9687,-2.8698,-2.8005,-2.7082,-2.5534,-2.5303,-2.5303,-2.5303,-2.5303,-2.5303,-2.5303,-2.5303,-2.5303,-2.5303,-2.5303,-2.5303,-2.5303,-2.5303,-2.5303,-2.5303,-2.5303,-2.5303,-2.5303,-2.5303,-2.5303,-2.5303,-2.5303,-2.5303,-2.5303,-2.5303,-2.5303,-2.5303,-2.5303,-2.5303,-2.5303,-2.5303,-2.5303,-2.5303,-2.5303,-2.5303,-2.5303,-2.5303,-2.5303,-2.5303,-2.5303,-2.5303,-2.5303,-2.5303,-2.5303,-2.5303,-2.5303,-2.5283,-2.5282,-2.5271,-2.5157,-2.5031,-2.4955,-2.4837,-2.4726,-2.4645,-2.4564,-2.4461,-2.4444,-2.4393,-2.4339,-2.4358,-2.4284,-2.421,-2.421,-2.419,-2.4006,-2.3382,-2.3125,-2.2795,-2.2171,-2.1345,-2.0813,-2.0813,-2.0813,-2.0813,-2.0813,-2.1584,-2.2336,-2.296,-2.318,-2.3547,-2.4171,-2.419,-2.419,-2.419,-2.4209,-2.421,-2.421,-2.4303,-2.4358,-2.4358,-2.4358,-2.4358,-2.4358,-2.4266,-2.421,-2.421,-2.4209,-2.419,-2.417,-2.417,-2.417,-2.4151,-2.4151,-2.4113,-2.4036,-2.3976,-2.3795,-2.3624,-3.0398,-2.9552,-2.864,-2.8063,-2.7255,-2.639,-2.5437,-2.5303,-2.5303,-2.5303,-2.5303,-2.5303,-2.5303,-2.5303,-2.5303,-2.5303,-2.5303,-2.5303,-2.5303,-2.5303,-2.5303,-2.5303,-2.5303,-2.5303,-2.5303,-2.5303,-2.5303,-2.5303,-2.5303,-2.5303,-2.5303,-2.5303,-2.5303,-2.5303,-2.5303,-2.5303,-2.5303,-2.5303,-2.5303,-2.5303,-2.5303,-2.5303,-2.5303,-2.5303,-2.5303,-2.5303,-2.5303,-2.5303,-2.5303,-2.5303,-2.5303,-2.5303,-2.5302,-2.5252,-2.5201,-2.5138,-2.4994,-2.4804,-2.4734,-2.466,-2.4582,-2.4446,-2.4393,-2.4375,-2.4248,-2.421,-2.421,-2.4209,-2.4209,-2.419,-2.419,-2.419,-2.4171,-2.4116,-2.3492,-2.2997,-2.2923,-2.2208,-2.1711,-2.1711,-2.1711,-2.1711,-2.1711,-2.2446,-2.2942,-2.3015,-2.3694,-2.4135,-2.419,-2.419,-2.419,-2.419,-2.419,-2.419,-2.419,-2.4209,-2.4209,-2.4209,-2.4209,-2.4209,-2.4209,-2.4209,-2.419,-2.419,-2.419,-2.417,-2.4094,-2.4094,-2.4074,-2.4016,-2.4016,-2.3976,-2.3896,-2.3774,-2.3624,-2.3481,-3.0398,-3.0052,-2.9014,-2.6697,-2.6909,-2.6928,-2.5514,-2.5303,-2.5303,-2.5303,-2.5303,-2.5303,-2.5303,-2.5303,-2.5303,-2.5303,-2.5303,-2.5303,-2.5303,-2.5303,-2.5303,-2.5303,-2.5303,-2.5303,-2.5303,-2.5303,-2.5303,-2.5303,-2.5303,-2.5303,-2.5303,-2.5303,-2.5303,-2.5303,-2.5303,-2.5303,-2.5303,-2.5303,-2.5303,-2.5303,-2.5303,-2.5303,-2.5303,-2.5303,-2.5303,-2.5303,-2.5303,-2.5303,-2.5303,-2.5312,-2.5302,-2.5292,-2.525,-2.5187,-2.5099,-2.4902,-2.4779,-2.4642,-2.4478,-2.4445,-2.4446,-2.4303,-2.4266,-2.4266,-2.4209,-2.419,-2.419,-2.419,-2.419,-2.419,-2.419,-2.419,-2.419,-2.419,-2.3933,-2.3749,-2.3749,-2.3052,-2.2538,-2.2538,-2.2538,-2.2538,-2.2538,-2.3272,-2.3749,-2.3749,-2.4025,-2.419,-2.419,-2.419,-2.419,-2.419,-2.419,-2.419,-2.419,-2.419,-2.417,-2.4151,-2.4151,-2.4094,-2.4016,-2.4016,-2.3996,-2.3937,-2.3937,-2.3937,-2.3917,-2.3917,-2.3858,-2.3816,-2.3816,-2.375,-2.3642,-2.3553,-2.3389,-2.3151,-3.0398,-3.0398,-2.9648,-2.7302,-2.7294,-2.7274,-2.6274,-2.612,-2.612,-2.612,-2.589,-2.5707,-2.5707,-2.5457,-2.5303,-2.5303,-2.5303,-2.5303,-2.5303,-2.5303,-2.5303,-2.5303,-2.5303,-2.5303,-2.5303,-2.5303,-2.5303,-2.5303,-2.5303,-2.5303,-2.5303,-2.5303,-2.5303,-2.5303,-2.5303,-2.5303,-2.5303,-2.5303,-2.5303,-2.5303,-2.5303,-2.5303,-2.5303,-2.5303,-2.5303,-2.5303,-2.5303,-2.5303,-2.5293,-2.5282,-2.5252,-2.522,-2.5153,-2.5057,-2.4907,-2.4689,-2.458,-2.4498,-2.4321,-2.4303,-2.4321,-2.4229,-2.419,-2.419,-2.419,-2.419,-2.419,-2.419,-2.419,-2.419,-2.419,-2.419,-2.419,-2.419,-2.419,-2.419,-2.419,-2.3731,-2.3382,-2.3382,-2.3382,-2.3382,-2.3382,-2.3878,-2.419,-2.419,-2.419,-2.419,-2.419,-2.419,-2.419,-2.417,-2.417,-2.417,-2.4151,-2.417,-2.417,-2.4094,-2.4074,-2.3996,-2.3876,-2.3855,-2.3795,-2.3753,-2.3753,-2.3732,-2.3728,-2.3728,-2.3646,-2.358,-2.358,-2.3486,-2.3365,-2.3313,-2.3119,-2.2893,-3.0398,-3.0398,-3.0398,-3.0398,-2.8533,-2.7217,-2.7813,-2.789,-2.789,-2.789,-2.714,-2.6601,-2.6601,-2.5832,-2.5303,-2.5303,-2.5303,-2.5303,-2.5303,-2.5303,-2.5303,-2.5303,-2.5303,-2.5303,-2.5303,-2.5303,-2.5303,-2.5303,-2.5303,-2.5303,-2.5303,-2.5303,-2.5303,-2.5303,-2.5303,-2.5303,-2.5303,-2.5303,-2.5303,-2.5303,-2.5303,-2.5303,-2.5303,-2.5303,-2.5303,-2.5303,-2.5303,-2.5312,-2.5282,-2.5222,-2.516,-2.5091,-2.5032,-2.4823,-2.4591,-2.4528,-2.4445,-2.4358,-2.4247,-2.4192,-2.421,-2.4209,-2.419,-2.419,-2.419,-2.419,-2.419,-2.419,-2.419,-2.419,-2.419,-2.419,-2.419,-2.419,-2.419,-2.419,-2.419,-2.419,-2.419,-2.419,-2.419,-2.419,-2.419,-2.419,-2.419,-2.419,-2.419,-2.419,-2.4208,-2.4208,-2.417,-2.4094,-2.4094,-2.4074,-2.3996,-2.4113,-2.417,-2.4094,-2.4016,-2.3917,-2.3795,-2.3732,-2.3671,-2.3588,-2.3588,-2.3558,-2.3504,-2.3504,-2.3412,-2.3289,-2.3289,-2.3217,-2.3095,-2.302,-2.2868,-2.2685,-3.0398,-3.0398,-3.0398,-3.0398,-2.984,-2.9063,-2.8044,-2.789,-2.789,-2.789,-2.714,-2.6601,-2.6601,-2.5832,-2.5303,-2.5303,-2.5303,-2.5303,-2.5303,-2.5303,-2.5303,-2.5302,-2.5293,-2.5303,-2.5303,-2.5303,-2.5303,-2.5303,-2.5303,-2.5303,-2.5303,-2.5312,-2.5302,-2.5302,-2.5241,-2.5231,-2.5231,-2.519,-2.516,-2.516,-2.516,-2.516,-2.516,-2.516,-2.516,-2.516,-2.516,-2.516,-2.5157,-2.508,-2.505,-2.4987,-2.4775,-2.4607,-2.4459,-2.4374,-2.4321,-2.4247,-2.4209,-2.419,-2.4209,-2.419,-2.419,-2.419,-2.419,-2.419,-2.419,-2.419,-2.419,-2.419,-2.419,-2.419,-2.419,-2.419,-2.419,-2.419,-2.419,-2.419,-2.417,-2.4151,-2.4132,-2.4113,-2.4074,-2.4094,-2.4132,-2.4132,-2.4132,-2.4094,-2.3996,-2.3996,-2.3976,-2.3896,-2.3896,-2.3876,-2.3795,-2.3976,-2.3976,-2.3816,-2.3735,-2.3602,-2.3389,-2.3301,-2.323,-2.3109,-2.3109,-2.3084,-2.3077,-2.3077,-2.3028,-2.2944,-2.2944,-2.2868,-2.2738,-2.2738,-2.2605,-2.2487,-3.0398,-3.0398,-3.0398,-3.0398,-3.0398,-3.0063,-2.9044,-2.889,-2.8775,-2.8409,-2.764,-2.6986,-2.664,-2.5832,-2.5303,-2.5303,-2.5293,-2.5293,-2.5293,-2.5273,-2.5252,-2.5261,-2.5231,-2.5241,-2.5262,-2.5262,-2.5262,-2.5233,-2.5233,-2.5233,-2.5222,-2.5212,-2.522,-2.5217,-2.5184,-2.5141,-2.5111,-2.508,-2.5068,-2.5068,-2.5068,-2.5068,-2.5068,-2.5068,-2.5068,-2.5068,-2.5068,-2.5037,-2.5,-2.4968,-2.4893,-2.4764,-2.4578,-2.4444,-2.432,-2.4266,-2.4229,-2.4209,-2.4209,-2.419,-2.419,-2.419,-2.419,-2.419,-2.419,-2.419,-2.419,-2.419,-2.419,-2.419,-2.419,-2.419,-2.419,-2.419,-2.417,-2.417,-2.417,-2.4113,-2.4074,-2.4016,-2.3996,-2.3976,-2.3917,-2.3976,-2.3976,-2.3976,-2.3976,-2.3917,-2.3816,-2.3795,-2.3753,-2.3667,-2.3667,-2.3642,-2.3535,-2.3664,-2.3685,-2.3624,-2.3558,-2.3394,-2.3119,-2.3045,-2.2944,-2.2816,-2.2816,-2.2816,-2.279,-2.279,-2.2738,-2.2685,-2.2685,-2.2623,-2.2515,-2.2515,-2.246,-2.2366,-3.0417,-3.0398,-3.0398,-3.0398,-3.0398,-3.0398,-3.0398,-3.0398,-3.0102,-2.9198,-2.839,-2.7563,-2.6697,-2.5822,-2.5303,-2.5293,-2.5292,-2.5282,-2.5271,-2.5209,-2.5195,-2.5176,-2.5106,-2.5125,-2.5153,-2.5176,-2.5145,-2.5084,-2.5084,-2.5084,-2.5084,-2.5072,-2.5068,-2.5069,-2.5057,-2.5044,-2.4968,-2.4968,-2.4968,-2.4968,-2.4968,-2.4968,-2.4968,-2.4968,-2.4968,-2.4968,-2.4968,-2.4929,-2.4874,-2.4851,-2.4689,-2.4461,-2.4393,-2.4303,-2.4192,-2.4192,-2.4209,-2.419,-2.419,-2.419,-2.419,-2.419,-2.419,-2.419,-2.419,-2.419,-2.419,-2.419,-2.419,-2.419,-2.419,-2.419,-2.419,-2.417,-2.4113,-2.4074,-2.4074,-2.3976,-2.3876,-2.3876,-2.3795,-2.3774,-2.3753,-2.3774,-2.3774,-2.3774,-2.3732,-2.3671,-2.3649,-2.3584,-2.3518,-2.3458,-2.3458,-2.3389,-2.3265,-2.3265,-2.3319,-2.3458,-2.3383,-2.3217,-2.2952,-2.2893,-2.279,-2.2659,-2.2659,-2.2632,-2.2579,-2.2579,-2.2542,-2.2487,-2.2487,-2.2432,-2.2377,-2.2377,-2.2366,-2.231,-3.0533,-3.0398,-3.0398,-3.0398,-3.0398,-3.0398,-3.0398,-3.0398,-3.0102,-2.9198,-2.839,-2.7582,-2.6705,-2.5821,-2.5282,-2.522,-2.5168,-2.5145,-2.513,-2.5137,-2.5082,-2.4968,-2.4942,-2.4907,-2.4808,-2.4955,-2.5031,-2.5019,-2.5019,-2.5019,-2.5019,-2.4981,-2.4942,-2.4929,-2.4837,-2.4783,-2.4764,-2.4723,-2.4692,-2.4692,-2.4692,-2.4692,-2.4692,-2.4692,-2.4692,-2.4692,-2.4692,-2.4676,-2.466,-2.4543,-2.4425,-2.4339,-2.4248,-2.421,-2.4209,-2.4209,-2.4209,-2.419,-2.419,-2.419,-2.419,-2.419,-2.419,-2.419,-2.419,-2.419,-2.419,-2.419,-2.419,-2.417,-2.4113,-2.4113,-2.4094,-2.3976,-2.3937,-2.3917,-2.3795,-2.3774,-2.371,-2.3598,-2.3576,-2.3508,-2.3412,-2.3486,-2.3571,-2.3571,-2.3553,-2.344,-2.323,-2.3223,-2.3133,-2.3028,-2.3028,-2.2977,-2.2919,-2.2919,-2.2995,-2.3102,-2.3028,-2.2868,-2.2623,-2.2542,-2.246,-2.2394,-2.2394,-2.2394,-2.2366,-2.2366,-2.2366,-2.2338,-2.2338,-2.2338,-2.231,-2.231,-2.231,-2.2282,-3.0465,-3.0292,-3.0292,-3.0292,-3.0305,-3.0299,-3.0299,-3.033,-2.9901,-2.8603,-2.8065,-2.7305,-2.6025,-2.5485,-2.5184,-2.5111,-2.5043,-2.5006,-2.5,-2.4934,-2.4865,-2.4808,-2.4746,-2.467,-2.4594,-2.4666,-2.4741,-2.4823,-2.4823,-2.4823,-2.4823,-2.4779,-2.4731,-2.4716,-2.4642,-2.4594,-2.4543,-2.4528,-2.4512,-2.4512,-2.4512,-2.4512,-2.4512,-2.4512,-2.4512,-2.4512,-2.4512,-2.4513,-2.4481,-2.4356,-2.4284,-2.4247,-2.421,-2.419,-2.419,-2.419,-2.419,-2.419,-2.419,-2.419,-2.419,-2.419,-2.419,-2.419,-2.419,-2.419,-2.419,-2.417,-2.4151,-2.4113,-2.4016,-2.3976,-2.3917,-2.3816,-2.375,-2.3685,-2.3602,-2.3491,-2.3394,-2.3319,-2.3247,-2.3316,-2.3611,-2.3696,-2.3728,-2.3728,-2.3703,-2.3488,-2.2987,-2.2944,-2.2868,-2.2764,-2.2764,-2.2712,-2.2659,-2.2659,-2.2685,-2.2712,-2.2738,-2.2659,-2.246,-2.2422,-2.2349,-2.231,-2.231,-2.231,-2.231,-2.231,-2.231,-2.231,-2.231,-2.231,-2.231,-2.231,-2.2282,-2.2225,-3.0515,-3.0266,-3.0171,-3.0171,-3.0166,-3.0161,-3.0161,-3.0221,-2.964,-2.7892,-2.7669,-2.6988,-2.5251,-2.505,-2.5019,-2.4955,-2.4888,-2.4847,-2.4832,-2.4734,-2.466,-2.4645,-2.4528,-2.4461,-2.4461,-2.4391,-2.4425,-2.4564,-2.4564,-2.4564,-2.4564,-2.4566,-2.4549,-2.4478,-2.4461,-2.4408,-2.4373,-2.4373,-2.4373,-2.4373,-2.4373,-2.4373,-2.4373,-2.4373,-2.4373,-2.4373,-2.4373,-2.4375,-2.4358,-2.4229,-2.421,-2.421,-2.4209,-2.419,-2.419,-2.419,-2.419,-2.419,-2.419,-2.419,-2.419,-2.419,-2.419,-2.4208,-2.419,-2.417,-2.417,-2.4094,-2.4074,-2.3996,-2.3876,-2.3774,-2.371,-2.3606,-2.3508,-2.3435,-2.3389,-2.3298,-2.3237,-2.3212,-2.3206,-2.344,-2.4091,-2.4143,-2.4143,-2.4143,-2.3967,-2.3594,-2.2962,-2.2754,-2.2605,-2.2569,-2.2569,-2.2566,-2.2647,-2.2528,-2.25,-2.2564,-2.2675,-2.2607,-2.2377,-2.2377,-2.2349,-2.231,-2.231,-2.231,-2.231,-2.231,-2.231,-2.231,-2.231,-2.231,-2.231,-2.2282,-2.2225,-2.214,-3.1169,-3.054,-3.0026,-3.0026,-3.0041,-3.0041,-3.0041,-3.0022,-2.9432,-2.7742,-2.7532,-2.6858,-2.5113,-2.4823,-2.4753,-2.4734,-2.4676,-2.4629,-2.4561,-2.4545,-2.4513,-2.4429,-2.4411,-2.4358,-2.4248,-2.4229,-2.4284,-2.4442,-2.4442,-2.4442,-2.4425,-2.4446,-2.443,-2.4393,-2.4284,-2.4248,-2.4229,-2.4228,-2.4228,-2.4228,-2.4228,-2.4228,-2.4228,-2.4228,-2.4228,-2.4228,-2.4228,-2.4228,-2.4228,-2.4209,-2.4209,-2.4209,-2.419,-2.419,-2.419,-2.419,-2.419,-2.419,-2.419,-2.419,-2.419,-2.419,-2.419,-2.419,-2.4132,-2.4113,-2.4094,-2.4016,-2.3917,-2.3813,-2.366,-2.3594,-2.3463,-2.3223,-2.3175,-2.3077,-2.2902,-2.3423,-2.3742,-2.365,-2.4122,-2.4509,-2.47,-2.47,-2.47,-2.47,-2.4082,-2.3642,-2.3414,-2.2773,-2.2405,-2.2338,-2.2338,-2.2626,-2.327,-2.266,-2.2643,-2.327,-2.327,-2.2948,-2.231,-2.231,-2.231,-2.231,-2.231,-2.231,-2.231,-2.231,-2.231,-2.231,-2.231,-2.231,-2.2282,-2.2225,-2.2094,-2.1899,-3.0299,-2.9979,-2.9716,-2.9716,-2.975,-2.9784,-2.9784,-2.9836,-2.9266,-2.7554,-2.7327,-2.6673,-2.4904,-2.4642,-2.4578,-2.4526,-2.4497,-2.4481,-2.4446,-2.4374,-2.4321,-2.4284,-2.4303,-2.4266,-2.4209,-2.4209,-2.4247,-2.4284,-2.4284,-2.4284,-2.4284,-2.4284,-2.4284,-2.4284,-2.4228,-2.4209,-2.4209,-2.4209,-2.419,-2.419,-2.419,-2.419,-2.419,-2.419,-2.419,-2.419,-2.419,-2.419,-2.419,-2.419,-2.419,-2.419,-2.419,-2.419,-2.419,-2.419,-2.419,-2.419,-2.4151,-2.4151,-2.4132,-2.4054,-2.4016,-2.4016,-2.3955,-2.3894,-2.3852,-2.3855,-2.3771,-2.362,-2.3412,-2.3295,-2.3151,-2.2952,-2.2868,-2.279,-2.2712,-2.3241,-2.379,-2.4113,-2.4411,-2.4754,-2.5193,-2.5244,-2.5244,-2.5244,-2.4968,-2.4377,-2.3485,-2.3146,-2.2762,-2.2327,-2.2699,-2.3071,-2.3393,-2.3477,-2.368,-2.4002,-2.4002,-2.3613,-2.2919,-2.2919,-2.2919,-2.2885,-2.2496,-2.231,-2.231,-2.231,-2.231,-2.231,-2.231,-2.231,-2.2282,-2.2225,-2.2065,-2.1811]},{"header":{"parameterUnit":"m.s-1","parameterCategory":1,"la1":30.6,"la2":28.766,"lo1":-90.7593,"lo2":-88.6598,"dy":0.0162,"dx":0.0183,"nx":116,"ny":114,"refTime":"2023-07-25T12:00:00:Z","depth":0,"parameterNumber":3,"parameterNumberName":"V-component_of_WINDS"},"data":[0.0,0.0,0.0,0.0,0.0,0.0,0.0,0.0,0.0,0.0,0.0,0.0,0.0,0.0,0.0,0.0,0.0,0.0,0.0,0.0,0.0,0.0,0.0,0.0,0.0,0.0,0.0,0.0,0.0,0.0,0.0,0.0,0.0,0.0,0.0,0.0,0.0,0.0,0.0,0.0,0.0,0.0,0.0,0.0,0.0,0.0,0.0,0.0,0.0,0.0,0.0,0.0,0.0,0.0,0.0,0.0,0.0,0.0,0.0,0.0,0.0,0.0,0.0,0.0,0.0,0.0,0.0,0.0,0.0,0.0,0.0,0.0,0.0,0.0,0.0,0.0,0.0,0.0,0.0,0.0,0.0,0.0,0.0,0.0,0.0,0.0,0.0,0.0,0.0,0.0,0.0,0.0,0.0,0.0,0.0,0.0,0.0,0.0,0.0,0.0,0.0,0.0,0.0,0.0,0.0,0.0,0.0,0.0,0.0,0.0,0.0,0.0,0.0,0.0,0.0,0.0,0.0,0.0,0.0,0.0,0.0,0.0,0.0,0.0,0.0,0.0,0.0,0.0,0.0,0.0,0.0,0.0,0.0,0.0,0.0,0.0,0.0,0.0,0.0,0.0,0.0,0.0,0.0,0.0,0.0,0.0,0.0,0.0,0.0,0.0,0.0,0.0,0.0,0.0,0.0,0.0,0.0,0.0,0.0,0.0,0.0,0.0,0.0,0.0,0.0,0.0,0.0,0.0,0.0,0.0,0.0,0.0,0.0,0.0,0.0,0.0,0.0,0.0,0.0,0.0,0.0,0.0,0.0,0.0,0.0,0.0,0.0,0.0,0.0,0.0,0.0,0.0,0.0,0.0,0.0,0.0,0.0,0.0,0.0,0.0,0.0,0.0,0.0,0.0,0.0,0.0,0.0,0.0,0.0,0.0,0.0,0.0,0.0,0.0,0.0,0.0,0.0,0.0,0.0,0.0,0.0,0.0,0.0,0.0,0.0,0.0,0.0,0.0,0.0,0.0,0.0,0.0,0.0,0.0,0.0,0.0,0.0,0.0,0.0,0.0,0.0,0.0,0.0,0.0,0.0,0.0,0.0,0.0,0.0,0.0,0.0,0.0,0.0,0.0,0.0,0.0,0.0,0.0,0.0,0.0,0.0,0.0,0.0,0.0,0.0,0.0,0.0,0.0,0.0,0.0,0.0,0.0,0.0,0.0,0.0,0.0,0.0,0.0,0.0,0.0,0.0,0.0,0.0,0.0,0.0,0.0,0.0,0.0,0.0,0.0,0.0,0.0,0.0,0.0,0.0,0.0,0.0,0.0,0.0,0.0,0.0,0.0,0.0,0.0,0.0,0.0,0.0,0.0,0.0,0.0,0.0,0.0,0.0,0.0,0.0,0.0,0.0,0.0,0.0,0.0,0.0,0.0,0.0,0.0,0.0,0.0,0.0,0.0,0.0,0.0,0.0,0.0,0.0,0.0,0.0,0.0,0.0,0.0,0.0,0.0,0.0,0.0,0.0,0.0,0.0,0.0,0.0,0.0,0.0,0.0,0.0,0.0,0.0,0.0,0.0,0.0,0.0,0.0,0.0,0.0,0.0,0.0,0.0,0.0,0.0,0.0,0.0,0.0,0.0,0.0,0.0,0.0,0.0,0.0,0.0,0.0,0.0,0.0,0.0,0.0,0.0,0.0,0.0,0.0,0.0,0.0,0.0,0.0,0.0,0.0,0.0,0.0,0.0,0.0,0.0,0.0,0.0,0.0,0.0,0.0,0.0,0.0,0.0,0.0,0.0,0.0,0.0,0.0,0.0,0.0,0.0,0.0,0.0,0.0,0.0,0.0,0.0,0.0,0.0,0.0,0.0,0.0,0.0,0.0,0.0,0.0,0.0,0.0,0.0,0.0,0.0,0.0,0.0,0.0,0.0,0.0,0.0,0.0,0.0,0.0,0.0,0.0,0.0,0.0,0.0,0.0,0.0,0.0,0.0,0.0,0.0,0.0,0.0,0.0,0.0,0.0,0.0,0.0,0.0,0.0,0.0,0.0,0.0,0.0,0.0,0.0,0.0,0.0,0.0,0.0,0.0,0.0,0.0,0.0,0.0,0.0,0.0,0.0,0.0,0.0,0.0,0.0,0.0,0.0,0.0,0.0,0.0,0.0,0.0,0.0,0.0,0.0,0.0,0.0,0.0,0.0,0.0,0.0,0.0,0.0,0.0,0.0,0.0,0.0,0.0,0.0,0.0,0.0,0.0,0.0,0.0,0.0,0.0,0.0,0.0,0.0,0.0,0.0,0.0,0.0,0.0,0.0,0.0,0.0,0.0,0.0,0.0,0.0,0.0,0.0,0.0,0.0,0.0,0.0,0.0,0.0,0.0,0.0,0.0,0.0,0.0,0.0,0.0,0.0,0.0,0.0,0.0,0.0,0.0,0.0,0.0,0.0,0.0,0.0,0.0,0.0,0.0,0.0,0.0,0.0,0.0,0.0,0.0,0.0,0.0,0.0,0.0,0.0,0.0,0.0,0.0,0.0,0.0,0.0,0.0,0.0,0.0,0.0,0.0,0.0,0.0,0.0,0.0,0.0,0.0,0.0,0.0,0.0,0.0,0.0,0.0,0.0,0.0,0.0,0.0,0.0,0.0,0.0,0.0,0.0,0.0,0.0,0.0,0.0,0.0,0.0,0.0,0.0,0.0,0.0,0.0,0.0,0.0,0.0,0.0,0.0,0.0,0.0,0.0,0.0,0.0,0.0,0.0,0.0,0.0,0.0,0.0,0.0,0.0,0.0,0.0,0.0,0.0,0.0,0.0,0.0,0.0,0.0,0.0,0.0,0.0,0.0,0.0,0.0,0.0,0.0,0.0,0.0,0.0,0.0,0.0,0.0,0.0,0.0,0.0,0.0,0.0,0.0,0.0,0.0,0.0,0.0,0.0,0.0,0.0,0.0,0.0,0.0,0.0,0.0,0.0,0.0,0.0,0.0,0.0,0.0,0.0,0.0,0.0,0.0,0.0,0.0,0.0,0.0,0.0,0.0,0.0,0.0,0.0,0.0,0.0,0.0,0.0,0.0,0.0,0.0,0.0,0.0,0.0,0.0,0.0,0.0,0.0,0.0,0.0,0.0,0.0,0.0,0.0,0.0,0.0,0.0,0.0,0.0,0.0,0.0,0.0,0.0,0.0,0.0,0.0,0.0,0.0,0.0,0.0,0.0,0.0,0.0,0.0,0.0,0.0,0.0,0.0,0.0,0.0,0.0,0.0,0.0,0.0,0.0,0.0,0.0,0.0,0.0,0.0,0.0,0.0,0.0,0.0,0.0,0.0,0.0,0.0,0.0,0.0,0.0,0.0,0.0,0.0,0.0,0.0,0.0,0.0,0.0,0.0,0.0,0.0,0.0,0.0,0.0,0.0,0.0,0.0,0.0,0.0,0.0,0.0,0.0,0.0,0.0,0.0,0.0,0.0,0.0,0.0,0.0,0.0,0.0,0.0,0.0,0.0,0.0,0.0,0.0,0.0,0.0,0.0,0.0,0.0,0.0,0.0,0.0,0.0,0.0,0.0,0.0,0.0,0.0,0.0,0.0,0.0,0.0,0.0,0.0,0.0,0.0,0.0,0.0,0.0,0.0,0.0,0.0,0.0,0.0,0.0,0.0,0.0,0.0,0.0,0.0,0.0,0.0,0.0,0.0,0.0,0.0,0.0,0.0,0.0,0.0,0.0,0.0,0.0,0.0,0.0,0.0,0.0,0.0,0.0,0.0,0.0,0.0,0.0,0.0,0.0,0.0,0.0,0.0,0.0,0.0,0.0,0.0,0.0,0.0,0.0,0.0,0.0,0.0,0.0,0.0,0.0,0.0,0.0,0.0,0.0,0.0,0.0,0.0,0.0,0.0,0.0,0.0,0.0,0.0,0.0,0.0,0.0,0.0,0.0,0.0,0.0,0.0,0.0,0.0,0.0,0.0,0.0,0.0,0.0,0.0,0.0,0.0,0.0,0.0,0.0,0.0,0.0,0.0,0.0,0.0,0.0,0.0,0.0,0.0,0.0,0.0,0.0,0.0,0.0,0.0,0.0,0.0,0.0,0.0,0.0,0.0,0.0,0.0,0.0,0.0,0.0,0.0,0.0,0.0,0.0,0.0,0.0,0.0,0.0,0.0,0.0,0.0,0.0,0.0,0.0,0.0,0.0,0.0,0.0,0.0,0.0,0.0,0.0,0.0,0.0,0.0,0.0,0.0,0.0,0.0,0.0,0.0,0.0,0.0,0.0,0.0,0.0,0.0,0.0,0.0,0.0,0.0,0.0,0.0,0.0,0.0,0.0,0.0,0.0,0.0,0.0,0.0,0.0,0.0,0.0,0.0,0.0,0.0,0.0,0.0,0.0,0.0,0.0,0.0,0.0,0.0,0.0,0.0,0.0,0.0,0.0,0.0,0.0,0.0,0.0,0.0,0.0,0.0,0.0,0.0,0.0,0.0,0.0,0.0,0.0,0.0,0.0,0.0,0.0,0.0,0.0,0.0,0.0,0.0,0.0,0.0,0.0,0.0,0.0,0.0,0.0,0.0,0.0,0.0,0.0,0.0,0.0,0.0,0.0,0.0,0.0,0.0,0.0,0.0,0.0,0.0,0.0,0.0,0.0,0.0,0.0,0.0,0.0,0.0,0.0,0.0,0.0,0.0,0.0,0.0,0.0,0.0,0.0,0.0,0.0,0.0,0.0,0.0,0.0,0.0,0.0,0.0,0.0,0.0,0.0,0.0,0.0,0.0,0.0,0.0,0.0,0.0,0.0,0.0,0.0,0.0,0.0,0.0,0.0,0.0,0.0,0.0,0.0,0.0,0.0,0.0,0.0,0.0,0.0,0.0,0.0,0.0,0.0,0.0,0.0,0.0,0.0,0.0,0.0,0.0,0.0,0.0,0.0,0.0,0.0,0.0,0.0,0.0,0.0,0.0,0.0,0.0,0.0,0.0,0.0,0.0,0.0,0.0,0.0,0.0,0.0,0.0,0.0,0.0,0.0,0.0,0.0,0.0,0.0,0.0,0.0,0.0,0.0,0.0,0.0,0.0,0.0,0.0,0.0,0.0,0.0,0.0,0.0,0.0,0.0,0.0,0.0,0.0,0.0,0.0,0.0,0.0,0.0,0.0,0.0,0.0,0.0,0.0,0.0,0.0,0.0,0.0,0.0,0.0,0.0,0.0,0.0,0.0,0.0,0.0,0.0,0.0,0.0,0.0,0.0,0.0,0.0,0.0,0.0,0.0,0.0,0.0,0.0,0.0,0.0,0.0,0.0,0.0,0.0,0.0,0.0,0.0,0.0,0.0,0.0,0.0,0.0,0.0,0.0,0.0,0.0,0.0,0.0,0.0,0.0,0.0,0.0,0.0,0.0,0.0,0.0,0.0,0.0,0.0,0.0,0.0,0.0,0.0,0.0,0.0,0.0,0.0,0.0,0.0,0.0,0.0,0.0,0.0,0.0,0.0,0.0,0.0,0.0,0.0,0.0,0.0,0.0,0.0,0.0,0.0,0.0,0.0,0.0,0.0,0.0,0.0,0.0,0.0,0.0,0.0,0.0,0.0,0.0,0.0,0.0,0.0,0.0,0.0,0.0,0.0,0.0,0.0,0.0,0.0,0.0,0.0,0.0,0.0,0.0,0.0,0.0,0.0,0.0,0.0,0.0,0.0,0.0,0.0,0.0,0.0,0.0,0.0,0.0,0.0,0.0,0.0,0.0,0.0,0.0,0.0,0.0,0.0,0.0,0.0,0.0,0.0,0.0,0.0,0.0,0.0,0.0,0.0,0.0,0.0,0.0,0.0,0.0,0.0,0.0,0.0,0.0,0.0,0.0,0.0,0.0,0.0,0.0,0.0,0.0,0.0,0.0,0.0,0.0,0.0,0.0,0.0,0.0,0.0,0.0,0.0,0.0,0.0,0.0,0.0,0.0,0.0,0.0,0.0,0.0,0.0,0.0,0.0,0.0,0.0,0.0,0.0,0.0,0.0,0.0,0.0,0.0,0.0,0.0,0.0,0.0,0.0,0.0,0.0,0.0,0.0,0.0,0.0,0.0,0.0,0.0,0.0,0.0,0.0,0.0,0.0,-0.5536,0.0,0.0,0.0,0.0,0.0,0.0,0.0,0.0,0.0,0.0,0.0,0.0,0.0,0.0,0.0,0.0,0.0,0.0,0.0,0.0,0.0,0.0,0.0,0.0,0.0,0.0,0.0,0.0,0.0,0.0,0.0,0.0,0.0,0.0,0.0,0.0,0.0,0.0,0.0,0.0,0.0,0.0,0.0,0.0,0.0,0.0,0.0,0.0,0.0,0.0,0.0,0.0,0.0,0.0,0.0,0.0,0.0,0.0,0.0,0.0,0.0,0.0,0.0,0.0,0.0,0.0,0.0,0.0,0.0,0.0,0.0,0.0,0.0,0.0,0.0,0.0,0.0,0.0,0.0,0.0,0.0,0.0,0.0,0.0,0.0,0.0,0.0,0.0,0.0,0.0,0.0,0.0,0.0,0.0,0.0,0.0,0.0,0.0,0.0,0.0,0.0,0.0,0.0,0.0,0.0,0.0,0.0,0.0,0.0,0.0,0.0,0.0,0.0,0.0,0.0,0.0,-0.6129,0.0,0.0,0.0,0.0,0.0,0.0,0.0,0.0,0.0,0.0,0.0,0.0,0.0,0.0,0.0,0.0,0.0,0.0,0.0,0.0,0.0,0.0,0.0,0.0,0.0,0.0,0.0,0.0,0.0,0.0,0.0,0.0,0.0,0.0,0.0,0.0,0.0,0.0,0.0,0.0,0.0,0.0,0.0,0.0,0.0,0.0,0.0,0.0,0.0,0.0,0.0,0.0,0.0,0.0,0.0,0.0,0.0,0.0,0.0,0.0,0.0,0.0,0.0,0.0,0.0,0.0,0.0,0.0,0.0,0.0,0.0,0.0,0.0,0.0,0.0,0.0,0.0,0.0,0.0,0.0,0.0,0.0,0.0,0.0,0.0,0.0,0.0,0.0,0.0,0.0,0.0,0.0,0.0,0.0,0.0,0.0,0.0,0.0,0.0,0.0,0.0,0.0,0.0,0.0,0.0,0.0,0.0,0.0,-0.9013,-0.8772,-0.829,-0.852,-0.8561,-0.8404,-0.805,-0.7455,-0.6788,-0.674,0.0,0.0,0.0,0.0,0.0,0.0,0.0,0.0,0.0,0.0,0.0,0.0,0.0,0.0,0.0,0.0,0.0,0.0,0.0,0.0,0.0,0.0,0.0,0.0,0.0,0.0,0.0,0.0,0.0,0.0,0.0,0.0,0.0,0.0,0.0,0.0,0.0,0.0,-1.4629,-1.5049,-1.5128,-1.4982,0.0,0.0,0.0,0.0,0.0,0.0,0.0,0.0,0.0,0.0,0.0,0.0,0.0,0.0,0.0,0.0,0.0,0.0,0.0,0.0,0.0,0.0,0.0,0.0,0.0,0.0,0.0,0.0,0.0,0.0,0.0,0.0,0.0,0.0,0.0,0.0,0.0,0.0,0.0,0.0,0.0,0.0,0.0,0.0,-1.1819,-1.2175,0.0,0.0,0.0,0.0,0.0,0.0,0.0,0.0,0.0,0.0,0.0,0.0,0.0,-1.0885,-1.1075,-1.0977,-1.0856,-1.0758,-1.0643,-1.0499,-1.0214,-1.0254,-1.0127,-0.9821,-0.9787,0.0,-0.761,-0.7375,0.0,0.0,0.0,0.0,0.0,0.0,0.0,0.0,0.0,0.0,0.0,0.0,0.0,0.0,0.0,0.0,0.0,0.0,0.0,0.0,0.0,0.0,0.0,0.0,0.0,0.0,0.0,0.0,0.0,0.0,0.0,0.0,0.0,0.0,0.0,0.0,-1.4678,-1.5439,-1.5898,-1.6562,-1.6875,-1.6855,-1.6475,-1.5712,-1.4656,-1.4122,0.0,0.0,0.0,0.0,0.0,0.0,0.0,0.0,0.0,0.0,0.0,0.0,0.0,0.0,0.0,0.0,0.0,0.0,0.0,0.0,0.0,0.0,0.0,0.0,0.0,0.0,0.0,0.0,0.0,0.0,0.0,0.0,0.0,0.0,0.0,0.0,0.0,0.0,0.0,-1.1877,-1.2224,-1.248,-1.2529,-1.2529,0.0,0.0,0.0,0.0,0.0,0.0,0.0,0.0,0.0,-1.3476,-1.3261,-1.3093,-1.2972,-1.29,-1.266,-1.2301,-1.2095,-1.1799,-1.1364,-1.1364,-1.1136,-1.0842,-1.0681,-1.0159,-0.9297,-0.8528,-0.794,-0.7573,0.0,0.0,0.0,0.0,-0.7075,-0.7024,0.0,0.0,0.0,0.0,0.0,0.0,0.0,0.0,0.0,0.0,0.0,0.0,0.0,0.0,0.0,-1.3652,0.0,0.0,0.0,0.0,0.0,0.0,0.0,0.0,0.0,0.0,0.0,0.0,-1.582,-1.6738,-1.7402,-1.8144,-1.8555,-1.8662,-1.8662,-1.7628,-1.5853,-1.539,-1.4687,0.0,0.0,0.0,0.0,0.0,0.0,0.0,0.0,0.0,0.0,0.0,0.0,0.0,0.0,0.0,0.0,0.0,0.0,0.0,0.0,0.0,0.0,0.0,0.0,0.0,0.0,0.0,0.0,0.0,0.0,0.0,0.0,0.0,0.0,0.0,0.0,0.0,0.0,-1.2482,-1.2669,-1.3034,-1.3053,-1.3103,0.0,0.0,0.0,0.0,0.0,0.0,-1.5138,-1.5021,-1.5091,-1.5435,-1.5377,-1.5207,-1.485,-1.46,-1.4204,-1.351,-1.328,-1.279,-1.2211,-1.2131,-1.1931,-1.1637,-1.1343,-1.1056,-1.0695,-0.9593,-0.8864,-0.8448,-0.8108,-0.7847,-0.7679,-0.7669,-0.7637,-0.7535,0.0,0.0,0.0,0.0,0.0,0.0,0.0,0.0,0.0,0.0,0.0,0.0,0.0,0.0,-1.3662,-1.4009,-1.4048,-1.3936,0.0,0.0,0.0,0.0,0.0,0.0,0.0,0.0,0.0,-1.6027,-1.6875,-1.7949,-1.917,-1.9609,-2.0039,-2.0439,-2.0439,-1.9482,-1.7822,-1.6918,-1.6263,-1.5648,0.0,0.0,0.0,0.0,0.0,0.0,0.0,0.0,0.0,0.0,0.0,0.0,0.0,0.0,0.0,0.0,0.0,0.0,0.0,0.0,0.0,0.0,0.0,0.0,0.0,0.0,0.0,0.0,0.0,0.0,0.0,0.0,0.0,0.0,0.0,0.0,0.0,0.0,0.0,-1.397,-1.4019,0.0,0.0,0.0,0.0,-1.4717,-1.5498,-1.6162,-1.6548,-1.6809,-1.7158,-1.7591,-1.7133,-1.6772,-1.6515,-1.574,-1.4976,-1.4328,-1.3931,-1.3533,-1.3133,-1.2839,-1.2538,-1.2238,-1.1951,-1.1657,-1.1316,-1.0421,-0.9713,-0.911,-0.8871,-0.8591,-0.8317,-0.7988,-0.7882,-0.7882,0.0,0.0,0.0,0.0,0.0,0.0,0.0,0.0,0.0,0.0,0.0,0.0,0.0,-1.4238,-1.4795,-1.4941,-1.4961,-1.4775,-1.4355,0.0,0.0,0.0,0.0,0.0,0.0,0.0,-1.5879,-1.6914,-1.832,-1.9394,-2.0127,-2.085,-2.1269,-2.1416,-2.1416,-2.1074,-2.041,-1.8984,-1.7901,-1.7021,-1.5747,-1.4573,0.0,0.0,0.0,0.0,0.0,0.0,0.0,0.0,0.0,0.0,0.0,0.0,0.0,0.0,0.0,0.0,0.0,0.0,0.0,0.0,0.0,0.0,0.0,0.0,0.0,0.0,0.0,0.0,0.0,0.0,0.0,0.0,0.0,0.0,0.0,0.0,0.0,-1.5293,-1.5371,0.0,-1.5722,-1.6201,-1.6455,-1.6455,-1.7236,-1.791,-1.835,-1.8699,-1.9054,-1.9331,-1.9155,-1.8743,-1.8013,-1.7224,-1.632,-1.5372,-1.4667,-1.4069,-1.3487,-1.3373,-1.3053,-1.2585,-1.2553,-1.2158,-1.169,-1.1369,-1.0788,-1.006,-0.9766,-0.9472,-0.9178,-0.8884,-0.8718,-0.8692,0.0,0.0,0.0,0.0,0.0,0.0,0.0,0.0,0.0,0.0,0.0,-1.3613,-1.3906,-1.4814,-1.5537,-1.583,-1.5723,-1.5391,-1.4824,0.0,0.0,0.0,0.0,0.0,0.0,-1.6055,-1.7217,-1.8232,-1.9658,-2.0654,-2.123,-2.1816,-2.2168,-2.2305,-2.2305,-2.2305,-2.2227,-2.0928,-1.9632,-1.8395,-1.7125,-1.5975,-1.4857,0.0,0.0,0.0,0.0,0.0,0.0,0.0,0.0,0.0,0.0,0.0,0.0,0.0,0.0,0.0,0.0,0.0,0.0,0.0,0.0,0.0,0.0,0.0,0.0,0.0,0.0,0.0,0.0,0.0,0.0,0.0,0.0,0.0,0.0,0.0,-1.5977,-1.6826,-1.7061,-1.7266,-1.7568,-1.7978,-1.8232,-1.8232,-1.9033,-1.9639,-1.9932,-2.0352,-2.0625,-2.0678,-2.0542,-2.0108,-1.9186,-1.8355,-1.7358,-1.6134,-1.5333,-1.4566,-1.3864,-1.3687,-1.3373,-1.2899,-1.2869,-1.254,-1.2011,-1.2011,-1.1617,-1.1021,-1.0461,-1.0087,-0.9793,-0.9499,-0.9385,-0.9345,0.0,0.0,0.0,0.0,0.0,0.0,0.0,0.0,0.0,0.0,-1.3262,-1.3848,-1.4678,-1.5166,-1.5781,-1.6641,-1.6299,-1.5684,-1.4844,-1.4365,0.0,0.0,0.0,0.0,-1.6154,-1.7402,-1.8691,-1.9951,-2.084,-2.1699,-2.251,-2.2519,-2.2754,-2.3135,-2.3135,-2.3135,-2.3105,-2.2705,-2.1553,-1.9883,-1.8603,-1.7502,-1.6481,0.0,0.0,0.0,0.0,0.0,0.0,0.0,0.0,0.0,0.0,0.0,0.0,0.0,0.0,0.0,0.0,0.0,0.0,0.0,0.0,0.0,0.0,0.0,0.0,0.0,0.0,0.0,0.0,0.0,0.0,0.0,0.0,0.0,-1.6184,-1.6885,-1.7764,-1.8613,-1.9092,-1.9355,-1.9365,-1.9736,-1.998,-1.998,-2.0781,-2.1279,-2.1279,-2.1689,-2.1841,-2.1499,-2.1313,-2.0792,-1.9853,-1.9162,-1.812,-1.6591,-1.5906,-1.522,-1.4398,-1.3864,-1.35,-1.3206,-1.2899,-1.2592,-1.2318,-1.2305,-1.2131,-1.1784,-1.0987,-1.0408,-1.0107,-0.9806,-0.9693,-0.9646,0.0,0.0,0.0,0.0,0.0,0.0,0.0,0.0,0.0,0.0,-1.3516,-1.4053,-1.4287,-1.5254,-1.5986,-1.6221,-1.584,-1.5361,-1.4814,0.0,0.0,0.0,0.0,0.0,-1.7451,-1.873,-1.9883,-2.0869,-2.1738,-2.2285,-2.2519,-2.2822,-2.3027,-2.3135,-2.3135,-2.3135,-2.3135,-2.3018,-2.251,-2.1689,-2.0381,-1.9346,-1.8377,0.0,0.0,0.0,0.0,0.0,0.0,0.0,0.0,0.0,0.0,0.0,0.0,0.0,0.0,0.0,0.0,0.0,0.0,0.0,0.0,0.0,0.0,0.0,0.0,0.0,0.0,0.0,0.0,0.0,0.0,0.0,0.0,-1.748,-1.748,-1.8223,-1.9199,-2.0381,-2.0625,-2.083,-2.1143,-2.1279,-2.1348,-2.1348,-2.1846,-2.2158,-2.2158,-2.2559,-2.262,-2.2187,-2.1926,-2.1401,-2.0421,-1.9516,-1.8451,-1.7293,-1.6126,-1.534,-1.4713,-1.4179,-1.3801,-1.3507,-1.3213,-1.2906,-1.2605,-1.2392,-1.2131,-1.1824,-1.1369,-1.1009,-1.0688,-1.018,-0.9866,-0.9673,0.0,0.0,0.0,0.0,0.0,0.0,0.0,0.0,0.0,0.0,-1.3457,-1.4004,-1.4365,-1.5234,-1.5859,-1.6105,-1.5664,-1.5156,-1.4551,0.0,0.0,0.0,0.0,-1.748,-1.8779,-2.0078,-2.1074,-2.1768,-2.2441,-2.2871,-2.3057,-2.3301,-2.3506,-2.3672,-2.3486,-2.3408,-2.3398,-2.3213,-2.2998,-2.2715,-2.1953,-2.1025,-1.9961,-1.8601,-1.7775,-1.7205,-1.609,-1.5581,-1.5302,-1.4483,0.0,0.0,0.0,0.0,0.0,0.0,0.0,0.0,0.0,0.0,0.0,0.0,0.0,0.0,0.0,0.0,0.0,0.0,0.0,0.0,0.0,0.0,0.0,0.0,-1.7959,-1.9004,-1.9551,-2.0059,-2.0723,-2.166,-2.1924,-2.2129,-2.2383,-2.2412,-2.2412,-2.2412,-2.2637,-2.2773,-2.2773,-2.3008,-2.2969,-2.2618,-2.2441,-2.2008,-2.1284,-2.0329,-1.9418,-1.8361,-1.6858,-1.5763,-1.5196,-1.447,-1.3928,-1.3627,-1.334,-1.3033,-1.2802,-1.2425,-1.2204,0.0,0.0,0.0,0.0,0.0,-1.0194,-1.0033,0.0,0.0,0.0,0.0,0.0,0.0,0.0,0.0,0.0,0.0,0.0,-1.3799,-1.4561,-1.5019,-1.543,-1.5811,-1.5449,-1.4873,0.0,0.0,0.0,-1.6223,-1.751,-1.8818,-2.0107,-2.1338,-2.2168,-2.2578,-2.3008,-2.3408,-2.3789,-2.3838,-2.4062,-2.4394,-2.4033,-2.3857,-2.3838,-2.3398,-2.3213,-2.3213,-2.3154,-2.2432,-2.125,-2.0039,-1.9277,-1.8718,-1.8182,-1.7668,-1.7167,-1.6485,0.0,0.0,0.0,0.0,0.0,0.0,0.0,0.0,0.0,0.0,0.0,0.0,0.0,0.0,0.0,0.0,0.0,0.0,0.0,0.0,0.0,0.0,0.0,0.0,-1.9404,-2.0644,-2.1924,-2.2139,-2.2275,-2.2549,-2.291,-2.3135,-2.3135,-2.3135,-2.3135,-2.3135,-2.3135,-2.3135,-2.3135,0.0,0.0,0.0,0.0,-2.2539,-2.2097,-2.1365,-2.0454,-1.9398,-1.7624,-1.6425,-1.5605,-1.461,-1.3975,-1.3674,-1.3387,-1.3086,-1.2849,-1.2478,-1.2311,-1.2198,-1.1643,-1.1249,-1.0955,-1.0668,-1.0624,-1.0584,0.0,0.0,0.0,0.0,0.0,0.0,0.0,0.0,0.0,-1.2881,-1.3242,-1.3574,-1.373,-1.4131,-1.4414,-1.4502,-1.4121,-1.3809,0.0,0.0,-1.6123,-1.709,-1.8682,-2.0156,-2.1475,-2.209,-2.2598,-2.3018,-2.3457,-2.3711,-2.3799,-2.4141,-2.4336,-2.4414,-2.4336,-2.4297,-2.4268,-2.3848,-2.3662,-2.3633,-2.3281,-2.2793,-2.2197,-2.1602,-2.0889,-2.0088,-1.9316,-1.8689,-1.8251,-1.7687,-1.7016,-1.6188,-1.5351,0.0,0.0,0.0,0.0,0.0,0.0,0.0,0.0,0.0,0.0,0.0,0.0,0.0,0.0,0.0,0.0,0.0,0.0,0.0,0.0,-2.0342,-2.1396,-2.2344,-2.3291,-2.3711,-2.3701,-2.3086,-2.3086,-2.3135,-2.3135,-2.3135,-2.3135,-2.3135,-2.3135,-2.3135,-2.3135,-2.3135,-2.2969,-2.2803,-2.2803,-2.2441,-2.1741,-2.1275,-2.0413,-1.9257,0.0,0.0,-1.5655,-1.4831,-1.4275,-1.3981,-1.3687,-1.3394,-1.3093,-1.2786,-1.2452,-1.1917,-1.1563,-1.1249,-1.0955,-1.0668,-1.0624,-1.0618,0.0,0.0,0.0,0.0,0.0,0.0,0.0,0.0,0.0,0.0,-1.3066,-1.3271,-1.3486,-1.3691,-1.3818,-1.3818,-1.3633,0.0,0.0,-1.5557,-1.6973,-1.8281,-1.9775,-2.1084,-2.2178,-2.2607,-2.293,-2.3135,-2.3359,-2.3682,-2.4111,-2.4316,-2.4648,-2.5068,-2.4844,-2.4746,-2.4697,-2.4062,-2.3789,-2.375,-2.332,-2.3018,-2.2783,-2.2353,-2.1787,-2.1143,-2.0498,-1.998,-1.9531,-1.9029,-1.8399,-1.7767,-1.7135,-1.589,-1.4515,0.0,0.0,0.0,0.0,0.0,0.0,0.0,0.0,0.0,0.0,0.0,0.0,0.0,0.0,-1.7326,0.0,0.0,-2.0439,-2.1953,-2.2734,-2.3379,-2.4014,-2.4287,-2.418,-2.3545,-2.3467,-2.3379,-2.3164,-2.3135,-2.3135,-2.3135,-2.3135,-2.3135,-2.3135,-2.3135,-2.2969,-2.2803,-2.2803,-2.2539,-2.1919,-2.1275,-2.0538,-1.9538,-1.8001,-1.6853,-1.6069,-1.498,-1.4442,-1.4275,-1.3834,-1.3561,-1.3394,-1.2939,-1.2485,-1.2044,-1.1597,-1.1249,-1.0955,-1.0668,-1.0624,-1.0624,0.0,0.0,0.0,0.0,0.0,0.0,0.0,0.0,0.0,0.0,-1.2881,-1.3008,-1.335,-1.3389,-1.3389,0.0,0.0,0.0,0.0,-1.6162,-1.7676,-1.9219,-2.0615,-2.1719,-2.249,-2.292,-2.3135,-2.3135,-2.3223,-2.3623,-2.4297,-2.4463,-2.4922,-2.5596,-2.5322,-2.5195,-2.5146,-2.4277,-2.3906,-2.3867,-2.335,-2.3086,-2.2978,-2.2646,-2.2246,-2.1816,-2.1289,-2.0771,-2.0264,-1.9912,-1.9438,-1.8885,-1.8342,-1.7123,-1.5799,-1.5052,-1.3749,0.0,0.0,0.0,0.0,0.0,0.0,0.0,0.0,0.0,-1.7291,-1.7815,-1.8733,-1.9774,-2.0611,-2.1273,-2.2129,-2.334,-2.3818,-2.4189,-2.4609,-2.4678,-2.4482,-2.3975,-2.3838,-2.3652,-2.3301,-2.3184,-2.3135,-2.3135,-2.3135,-2.3135,-2.3135,-2.3135,-2.2969,-2.2803,-2.2715,-2.2441,-2.2008,-2.1266,-2.0447,-1.9613,-1.8055,-1.7007,-1.6303,-1.5116,-1.4576,-1.4489,-1.3901,-1.3559,-1.3594,-1.2993,-1.2605,-1.2331,-1.1744,-1.1336,-1.1035,-1.0752,-1.0624,-1.0624,0.0,0.0,0.0,0.0,0.0,0.0,0.0,0.0,0.0,0.0,0.0,0.0,0.0,0.0,0.0,0.0,0.0,0.0,-1.4756,-1.6719,-1.8291,-1.9248,-2.0908,-2.2031,-2.25,-2.292,-2.3135,-2.3135,-2.3525,-2.3769,-2.3877,-2.4639,-2.5049,-2.5156,-2.5508,-2.5664,-2.5605,-2.4717,-2.4346,-2.4277,-2.3467,-2.292,-2.2578,-2.2529,-2.2246,-2.1777,-2.0937,-2.0117,-1.9424,-1.9375,-1.8928,-1.8356,-1.8166,-1.7577,-1.6735,-1.5296,0.0,-1.3893,-1.3034,-1.3147,-1.3752,-1.4709,-1.5329,-1.5902,0.0,0.0,-1.9061,-1.9567,-2.0825,-2.2022,-2.2495,-2.3125,-2.3799,-2.4707,-2.4893,-2.5078,-2.5527,-2.5586,-2.5283,-2.4443,-2.4014,-2.3769,-2.3721,-2.3359,-2.3135,-2.3135,-2.3135,-2.3135,-2.3135,-2.3135,-2.2969,-2.2803,-2.253,-2.2167,-2.1445,-2.0736,-1.9729,-1.8519,-1.7755,-1.6765,-1.5858,-1.5244,-1.477,-1.4489,-1.3901,-1.3559,-1.3594,-1.2993,-1.2802,-1.2714,-1.2051,-1.1637,-1.1309,-1.0762,-1.0624,-1.0624,0.0,0.0,0.0,0.0,0.0,0.0,0.0,0.0,0.0,0.0,0.0,0.0,0.0,0.0,0.0,0.0,0.0,0.0,-1.4736,-1.6338,-1.7764,-1.8857,-2.0322,-2.1445,-2.2129,-2.2559,-2.2891,-2.3135,-2.332,-2.3545,-2.3799,-2.416,-2.4453,-2.4697,-2.4883,-2.4971,-2.4932,-2.4316,-2.4053,-2.3975,-2.3115,-2.2676,-2.2402,-2.1387,-2.0889,-2.0693,-2.0322,-1.9316,0.0,0.0,-1.8193,-1.7813,-1.7918,-1.7501,-1.6816,-1.5799,-1.4939,0.0,-1.3803,-1.4559,0.0,0.0,-1.7278,-1.8342,-1.9127,-2.0477,-2.1635,-2.1987,-2.2842,-2.365,-2.4088,-2.4414,-2.4736,0.0,-2.5459,-2.5527,-2.5713,-2.5518,-2.5215,-2.4844,-2.4199,-2.3691,-2.3437,-2.3242,-2.3135,-2.3135,-2.3135,-2.3135,-2.3135,-2.3135,-2.2969,-2.2618,-2.2157,-2.1624,-2.0736,-1.9903,-1.898,-1.7963,-1.7232,-1.6612,-1.6026,-1.5359,-1.471,-1.4255,-1.4008,-1.3801,-1.3546,-1.3373,-1.306,-1.2782,-1.2285,-1.1944,-1.161,-1.1029,-1.0701,-1.0624,0.0,0.0,0.0,0.0,0.0,0.0,0.0,0.0,0.0,0.0,0.0,0.0,0.0,0.0,0.0,0.0,0.0,0.0,0.0,-1.582,-1.7012,-1.7998,-1.9463,-2.0566,-2.1328,-2.1875,-2.2363,-2.2793,-2.2793,-2.2959,-2.3262,-2.3389,-2.3603,-2.3896,-2.4014,-2.4072,-2.4043,-2.3623,-2.3437,-2.3359,-2.251,-2.2012,-2.1641,-2.0264,-1.9365,-1.8867,-1.8994,-1.8174,0.0,0.0,-1.7012,-1.6738,-1.6973,-1.6701,-1.6222,-1.5722,-1.5047,-1.4596,-1.4885,0.0,0.0,-1.787,-1.9231,-2.053,-2.1087,-2.2485,-2.3673,-2.3784,-2.42,-2.4697,-2.501,-2.4971,-2.5029,-2.5478,-2.5557,-2.5557,-2.5557,-2.5273,-2.498,-2.4746,-2.417,-2.3623,-2.3184,-2.3135,-2.3135,-2.3135,-2.3135,-2.3193,-2.331,-2.3232,-2.2957,-2.2523,-2.1968,-2.1194,-2.011,-1.908,-1.8249,-1.7512,-1.6864,-1.6312,-1.6103,-1.5322,-1.4643,-1.4088,-1.4088,-1.3968,-1.3761,-1.3674,-1.3387,-1.2959,-1.2572,-1.2245,-1.1924,-1.1423,-1.1049,-1.0795,0.0,0.0,0.0,0.0,0.0,0.0,0.0,0.0,0.0,0.0,0.0,0.0,0.0,0.0,0.0,0.0,0.0,0.0,0.0,-1.5361,-1.6289,-1.6768,-1.8418,-1.9531,-1.9961,-2.083,-2.1484,-2.1924,-2.1924,-2.1934,-2.1953,-2.2363,-2.2559,-2.2588,-2.3018,-2.3203,-2.3174,-2.2734,-2.2549,-2.248,-2.1621,-2.0762,-1.9941,-1.9482,-1.8008,-1.624,-1.667,0.0,0.0,0.0,-1.5215,-1.4885,-1.5031,-1.4977,0.0,-1.4423,-1.4678,0.0,0.0,0.0,-1.8658,-1.978,-2.1109,-2.2143,-2.2544,-2.3653,-2.464,-2.464,-2.484,-2.5049,-2.5068,-2.4727,-2.458,-2.5019,-2.5088,-2.5088,-2.5088,-2.5078,-2.4766,-2.3926,-2.3809,-2.3623,0.0,-2.3135,-2.3135,-2.3135,-2.3135,-2.332,-2.375,-2.349,-2.3219,-2.2674,-2.1942,-2.0937,-1.9646,-1.8635,-1.7714,-1.6979,-1.6508,-1.6028,-1.5812,-1.5231,-1.4643,-1.4088,-1.4088,-1.4082,-1.4048,-1.3761,-1.3552,-1.3554,-1.2966,-1.2552,-1.2251,-1.1951,-1.1657,-1.1403,0.0,0.0,0.0,0.0,0.0,0.0,0.0,0.0,0.0,0.0,0.0,0.0,0.0,0.0,0.0,0.0,0.0,0.0,0.0,-1.4385,-1.498,-1.542,-1.6816,-1.7793,-1.8223,-1.9355,-2.0156,-2.0576,-2.0869,-2.1006,-2.1016,-2.1152,-2.1221,-2.123,-2.1367,-2.1435,-2.1426,-2.1279,-2.1055,-2.0742,-2.0166,-1.9424,-1.8545,-1.7529,-1.6523,-1.5537,0.0,0.0,0.0,0.0,0.0,0.0,-1.394,0.0,0.0,-1.4057,-1.4797,-1.5734,0.0,0.0,-1.962,-2.04,-2.1896,-2.3287,-2.3711,-2.4392,-2.4886,-2.4604,-2.4322,-2.4043,-2.3477,-2.3486,-2.3633,-2.376,-2.4033,-2.4316,-2.46,-2.4394,-2.4111,-2.3828,-2.3535,0.0,0.0,0.0,0.0,-2.3135,-2.3135,-2.333,-2.3769,-2.3248,-2.2872,-2.252,-2.1343,-2.0137,-1.8804,-1.7807,-1.7073,-1.6508,-1.6123,-1.5725,-1.5251,-1.5057,-1.4643,-1.4088,-1.4088,-1.4088,-1.4082,-1.3981,-1.3821,-1.3539,-1.342,-1.316,-1.2893,-1.2792,-1.2565,-1.2218,0.0,0.0,0.0,0.0,0.0,0.0,0.0,0.0,0.0,0.0,0.0,0.0,0.0,0.0,0.0,0.0,0.0,0.0,0.0,0.0,-1.4033,-1.4316,-1.543,-1.624,-1.667,-1.7637,-1.834,-1.8779,-1.9209,-1.9424,-1.9434,-1.958,-1.9648,-1.9648,-1.9648,-1.9648,-1.9639,-1.9492,-1.9268,-1.8965,-1.8369,-1.7715,-1.6973,-1.5986,-1.5244,0.0,0.0,0.0,0.0,0.0,0.0,0.0,0.0,-1.3358,-1.3593,-1.3996,-1.4915,-1.6026,0.0,-1.87,-2.0589,-2.1389,-2.2935,-2.426,-2.4393,-2.4668,-2.4668,-2.4082,-2.3506,-2.2891,-2.2187,-2.2158,-2.2334,-2.2637,-2.3047,-2.3477,-2.3896,-2.3857,-2.373,-2.3574,-2.331,-2.3135,0.0,0.0,0.0,-2.2969,-2.3105,-2.3287,-2.3621,-2.3028,-2.2546,-2.2075,-2.0677,-1.9402,-1.8156,-1.7246,-1.6595,-1.6028,-1.5927,-1.5524,-1.4963,-1.4963,-1.4643,-1.4088,-1.4088,-1.4088,-1.4088,-1.4088,-1.3975,-1.3794,-1.3687,-1.3527,-1.3353,-1.3253,-1.3086,-1.2812,0.0,0.0,0.0,0.0,0.0,0.0,0.0,0.0,0.0,0.0,0.0,0.0,0.0,0.0,0.0,0.0,0.0,0.0,0.0,0.0,0.0,-1.3408,-1.4209,-1.4834,-1.5234,-1.5703,-1.6143,-1.6562,-1.7031,-1.7256,-1.7266,-1.7676,-1.7881,-1.7881,-1.7881,-1.7881,-1.7852,-1.7451,-1.7266,-1.7178,-1.64,-1.5723,-1.5273,-1.4873,0.0,0.0,0.0,0.0,0.0,0.0,0.0,0.0,0.0,0.0,-1.3557,-1.4138,-1.5138,-1.6313,-1.7658,-1.9633,-2.1599,-2.2656,-2.4019,-2.5101,-2.4679,-2.4397,-2.3971,-2.3106,-2.2249,-2.1611,0.0,0.0,-2.0752,-2.1611,-2.2139,-2.2598,-2.3047,-2.3496,-2.3633,0.0,0.0,0.0,0.0,0.0,0.0,-2.2861,0.0,-2.3338,-2.3308,-2.282,-2.2236,-2.1483,-2.0066,-1.8769,-1.7692,-1.6951,-1.6298,-1.5832,-1.5832,-1.5524,-1.4963,-1.4963,-1.4643,-1.4088,-1.4088,-1.4088,-1.4088,-1.4088,-1.4088,-1.4055,-1.3774,-1.3667,-1.3552,-1.3353,-1.3247,-1.3193,0.0,0.0,0.0,0.0,0.0,0.0,0.0,0.0,0.0,0.0,0.0,0.0,0.0,0.0,0.0,0.0,0.0,0.0,0.0,0.0,0.0,0.0,0.0,0.0,0.0,0.0,0.0,0.0,0.0,-1.5449,-1.5459,-1.5879,-1.6074,0.0,-1.6074,-1.6074,-1.6074,-1.5957,-1.5732,-1.543,0.0,-1.4658,-1.3984,0.0,0.0,0.0,0.0,0.0,0.0,0.0,0.0,0.0,0.0,0.0,-1.385,-1.48,0.0,-1.6806,-1.787,-1.9637,-2.1234,-2.2013,-2.2965,-2.3602,-2.318,-2.2583,-2.1708,-2.0731,-1.9913,-1.9088,0.0,0.0,0.0,-1.9853,-2.0859,0.0,-2.2568,-2.332,0.0,0.0,0.0,-2.4092,-2.4092,-2.39,0.0,0.0,-2.3161,-2.3185,-2.3441,-2.2232,-2.1379,-2.0908,-1.9264,-1.7984,-1.716,-1.64,-1.5927,-1.5832,-1.5832,-1.5524,-1.4963,-1.4963,-1.4643,-1.4088,-1.4088,-1.4088,-1.4088,-1.4088,-1.4088,-1.4082,-1.4001,-1.3975,-1.3968,-1.3631,-1.3467,-1.3277,0.0,0.0,0.0,0.0,0.0,0.0,0.0,0.0,0.0,0.0,0.0,0.0,0.0,0.0,0.0,0.0,0.0,0.0,0.0,0.0,0.0,0.0,0.0,0.0,0.0,0.0,0.0,0.0,0.0,0.0,0.0,-1.4102,-1.4297,-1.4297,-1.4297,-1.4297,-1.4287,0.0,0.0,0.0,0.0,0.0,0.0,0.0,0.0,0.0,0.0,0.0,0.0,0.0,0.0,-1.37,-1.4471,-1.4653,-1.48,-1.6039,0.0,-1.7313,-1.8517,-1.9908,-2.1226,-2.1731,-2.2346,-2.2595,-2.2034,-2.1016,-1.9934,-1.8768,-1.7884,0.0,0.0,0.0,0.0,0.0,0.0,0.0,-2.1765,-2.2775,-2.3419,0.0,-2.3977,0.0,-2.4414,-2.4127,-2.3832,0.0,-2.3073,-2.2758,-2.2425,-2.1196,-2.0213,-1.965,-1.8233,-1.7153,-1.6501,-1.6021,-1.5832,-1.5832,-1.5832,-1.5591,-1.515,-1.5023,-1.471,-1.4269,0.0,-1.4088,-1.4088,-1.4088,-1.4162,-1.4282,-1.4282,-1.4355,-1.4456,-1.4058,-1.3822,-1.3652,0.0,0.0,0.0,0.0,0.0,0.0,0.0,0.0,0.0,0.0,0.0,0.0,0.0,0.0,0.0,0.0,0.0,0.0,0.0,0.0,0.0,0.0,0.0,0.0,0.0,0.0,0.0,0.0,0.0,0.0,0.0,0.0,0.0,0.0,0.0,0.0,0.0,0.0,0.0,0.0,0.0,0.0,0.0,0.0,0.0,0.0,0.0,0.0,0.0,0.0,-1.3128,-1.4219,-1.5378,-1.5734,-1.5866,-1.7173,-1.755,-1.7757,-1.8993,-2.0087,-2.1039,-2.1189,-2.1497,-2.1503,-2.0606,-1.9433,-1.815,-1.6912,0.0,0.0,-1.5102,0.0,-1.6225,-1.7562,0.0,-1.9785,-2.0808,-2.1914,-2.2747,-2.3214,-2.3687,-2.4047,-2.4301,-2.4114,-2.3796,-2.3399,-2.2735,-2.2038,-2.1131,-2.0051,-1.9025,-1.8076,-1.706,-1.6298,-1.5832,-1.5832,-1.5832,-1.5832,-1.5832,-1.5678,-1.5391,-1.5137,-1.4836,-1.4509,-1.4295,-1.4182,-1.4148,-1.4188,-1.4355,-1.4583,-1.4583,-1.4736,-1.493,-1.4317,-1.4112,-1.4009,0.0,0.0,0.0,0.0,0.0,0.0,0.0,0.0,0.0,0.0,0.0,0.0,0.0,0.0,0.0,0.0,0.0,0.0,0.0,0.0,0.0,0.0,0.0,0.0,0.0,0.0,0.0,0.0,0.0,0.0,0.0,0.0,0.0,0.0,0.0,0.0,0.0,0.0,0.0,0.0,0.0,0.0,0.0,0.0,0.0,0.0,0.0,0.0,0.0,0.0,-1.3043,-1.4332,-1.487,-1.5321,-1.5823,-1.6791,-1.7218,-1.7623,-1.8418,-1.9147,-1.9633,-1.9651,-1.9388,-1.8891,-1.7903,-1.6624,0.0,0.0,0.0,-1.3327,-1.3334,-1.3952,0.0,-1.6011,0.0,0.0,0.0,0.0,-2.1989,0.0,0.0,0.0,0.0,0.0,0.0,0.0,0.0,-2.0899,-2.0891,-1.9606,-1.8155,-1.658,-1.6367,-1.6123,-1.5832,-1.5832,-1.5832,-1.5832,-1.5832,-1.5678,-1.5398,-1.5344,-1.503,-1.4529,-1.473,0.0,-1.4462,-1.471,-1.4843,-1.4883,-1.4883,-1.4917,-1.4867,-1.4186,-1.3748,-1.353,0.0,0.0,0.0,0.0,0.0,0.0,0.0,0.0,0.0,0.0,0.0,0.0,0.0,0.0,0.0,0.0,0.0,0.0,0.0,0.0,0.0,0.0,0.0,0.0,0.0,0.0,0.0,0.0,0.0,0.0,0.0,0.0,0.0,0.0,0.0,0.0,0.0,0.0,0.0,0.0,0.0,0.0,0.0,0.0,0.0,0.0,0.0,0.0,0.0,0.0,-1.2086,-1.3233,-1.4537,-1.519,-1.558,-1.6677,-1.7092,-1.7386,-1.8009,-1.8611,-1.8897,-1.8345,-1.8058,-1.7415,-1.6029,0.0,0.0,0.0,0.0,-1.1997,-1.2086,0.0,0.0,0.0,0.0,0.0,0.0,0.0,0.0,0.0,0.0,0.0,0.0,0.0,0.0,0.0,0.0,-2.02,-1.9811,-1.8386,-1.7057,-1.6035,-1.6028,-1.5927,-1.5832,-1.5832,-1.5832,-1.5832,-1.5832,-1.5758,-1.5618,-1.5464,-1.5244,-1.4977,-1.4963,-1.4883,-1.4763,-1.4903,-1.5057,-1.519,-1.5093,-1.5094,-1.5114,-1.4228,-1.3731,-1.3481,0.0,0.0,0.0,0.0,0.0,0.0,0.0,0.0,0.0,0.0,0.0,0.0,0.0,0.0,0.0,0.0,0.0,0.0,0.0,0.0,0.0,0.0,0.0,0.0,0.0,0.0,0.0,0.0,0.0,0.0,0.0,0.0,0.0,0.0,0.0,0.0,0.0,0.0,0.0,0.0,0.0,0.0,0.0,0.0,0.0,0.0,0.0,0.0,0.0,0.0,-1.093,-1.1795,-1.3561,-1.4402,-1.4943,-1.6119,-1.6553,-1.6905,-1.758,-1.8037,-1.8126,-1.7344,-1.6958,-1.6249,-1.4597,-1.363,0.0,0.0,-1.1005,-1.0875,-1.1027,0.0,0.0,0.0,0.0,0.0,0.0,0.0,0.0,0.0,0.0,0.0,0.0,0.0,0.0,0.0,0.0,0.0,-1.847,-1.7041,-1.6139,-1.5838,-1.5832,-1.5832,-1.5832,-1.5832,-1.5832,-1.5832,-1.5832,-1.5832,-1.5818,-1.5591,-1.5451,-1.5384,-1.5217,-1.5117,-1.5064,-1.5124,-1.5284,-1.5398,-1.5113,-1.5149,-1.5127,-1.4096,-1.3558,-1.3302,0.0,0.0,0.0,0.0,0.0,0.0,0.0,0.0,0.0,0.0,0.0,0.0,0.0,0.0,0.0,0.0,0.0,0.0,0.0,0.0,0.0,0.0,0.0,0.0,0.0,0.0,0.0,0.0,0.0,0.0,0.0,0.0,0.0,0.0,0.0,0.0,0.0,0.0,0.0,0.0,0.0,0.0,0.0,0.0,0.0,0.0,0.0,0.0,0.0,0.0,0.0,-1.0629,-1.1213,-1.239,-1.3769,-1.4541,0.0,0.0,-1.6612,-1.6867,-1.68,-1.6458,-1.5708,-1.4627,-1.3147,0.0,0.0,0.0,-0.9892,-0.9821,-1.0096,-1.0493,0.0,0.0,0.0,0.0,0.0,0.0,0.0,0.0,0.0,0.0,0.0,0.0,0.0,0.0,0.0,0.0,-1.7262,-1.6643,-1.6139,-1.5838,-1.5832,-1.5832,-1.5832,-1.5832,-1.5832,-1.5832,-1.5832,-1.5832,-1.5832,-1.5798,-1.5645,-1.5411,-1.5645,-1.5598,0.0,-1.5645,-1.567,-1.5501,-1.5229,-1.4765,-1.4262,-1.3237,-1.2713,-1.2467,0.0,0.0,0.0,0.0,0.0,0.0,0.0,0.0,0.0,0.0,0.0,0.0,0.0,0.0,0.0,0.0,0.0,0.0,0.0,0.0,0.0,0.0,0.0,0.0,0.0,0.0,0.0,0.0,0.0,0.0,0.0,0.0,0.0,0.0,0.0,0.0,0.0,0.0,0.0,0.0,0.0,0.0,0.0,0.0,0.0,0.0,0.0,0.0,0.0,0.0,0.0,0.0,-1.002,-1.0792,0.0,0.0,-1.4001,-1.4803,-1.5678,-1.6046,-1.6066,-1.5605,-1.4913,-1.3804,-1.2104,0.0,0.0,-0.9691,-0.9499,-0.9465,-0.9524,-0.9838,-1.0258,0.0,0.0,0.0,0.0,0.0,0.0,0.0,0.0,0.0,0.0,0.0,0.0,0.0,0.0,0.0,-1.665,-1.6263,-1.5952,-1.5832,-1.5832,-1.5832,-1.5832,-1.5832,-1.5832,-1.5832,-1.5832,-1.5832,-1.5832,-1.5832,-1.5765,-1.5665,-1.5778,-1.5765,0.0,-1.5589,-1.5452,-1.5172,-1.4586,-1.4011,-1.3383,-1.262,-1.2156,-1.1828,0.0,0.0,0.0,0.0,0.0,0.0,0.0,0.0,0.0,0.0,0.0,0.0,0.0,0.0,0.0,0.0,0.0,0.0,0.0,0.0,0.0,0.0,0.0,0.0,0.0,0.0,0.0,0.0,0.0,0.0,0.0,0.0,0.0,0.0,0.0,0.0,0.0,0.0,0.0,0.0,0.0,0.0,0.0,0.0,0.0,0.0,0.0,0.0,0.0,0.0,0.0,0.0,0.0,0.0,0.0,0.0,-1.2859,-1.3754,-1.4636,-1.509,-1.5197,-1.4696,-1.4058,-1.3094,0.0,0.0,-1.0331,-0.93,-0.9159,-0.9211,-0.9159,-0.934,-0.9618,0.0,0.0,0.0,0.0,0.0,0.0,0.0,0.0,0.0,0.0,0.0,0.0,0.0,0.0,0.0,-1.6146,-1.5945,-1.5832,-1.5832,-1.5832,-1.5832,-1.5832,-1.5832,-1.5832,-1.5832,-1.5832,-1.5832,-1.5832,-1.5832,-1.5832,-1.5832,-1.5832,-1.5737,0.0,-1.5452,-1.5121,-1.457,-1.3891,-1.3165,-1.2379,-1.1843,-1.1436,-1.1148,0.0,0.0,0.0,0.0,0.0,0.0,0.0,0.0,0.0,0.0,0.0,0.0,0.0,0.0,0.0,0.0,0.0,0.0,0.0,0.0,0.0,0.0,0.0,0.0,0.0,0.0,0.0,0.0,0.0,0.0,0.0,0.0,0.0,0.0,0.0,0.0,0.0,0.0,0.0,0.0,0.0,0.0,0.0,0.0,0.0,0.0,0.0,0.0,0.0,0.0,0.0,0.0,0.0,0.0,0.0,0.0,-1.1637,-1.2518,-1.342,-1.3881,-1.4035,-1.3734,-1.32,-1.2446,0.0,0.0,-0.9866,-0.8991,-0.8811,-0.8857,-0.8956,-0.9015,-0.926,-0.9973,0.0,0.0,0.0,0.0,0.0,0.0,0.0,0.0,0.0,0.0,0.0,0.0,0.0,0.0,-1.5845,-1.5832,-1.5832,-1.5832,-1.5832,-1.5832,-1.5832,-1.5832,-1.5832,-1.5832,-1.5832,-1.5832,-1.5832,-1.5832,-1.5832,-1.5832,-1.5832,-1.5737,0.0,-1.5172,-1.4539,-1.3538,-1.3057,-1.2253,-1.1385,-1.0895,-1.0636,-1.0568,0.0,0.0,0.0,0.0,0.0,0.0,0.0,0.0,0.0,0.0,0.0,0.0,0.0,0.0,0.0,0.0,0.0,0.0,0.0,0.0,0.0,0.0,0.0,0.0,0.0,0.0,0.0,-0.6495,-0.6779,0.0,0.0,0.0,0.0,0.0,0.0,0.0,0.0,0.0,0.0,0.0,0.0,0.0,0.0,0.0,0.0,0.0,0.0,0.0,0.0,0.0,0.0,0.0,0.0,0.0,0.0,0.0,0.0,0.0,-1.2245,-1.2645,-1.2799,-1.2505,-1.1984,-1.1269,-1.0207,-0.9733,-0.9385,-0.8905,-0.8804,-0.8804,-0.8857,-0.8857,-0.9052,-0.9701,-0.9795,0.0,0.0,0.0,0.0,0.0,0.0,0.0,0.0,0.0,0.0,0.0,0.0,0.0,-1.5832,-1.5832,-1.5832,-1.5832,-1.5832,-1.5832,-1.5832,-1.5832,-1.5832,-1.5832,-1.5832,-1.5832,-1.5832,-1.5832,-1.5832,-1.5825,-1.5635,-1.5452,-1.5172,-1.4586,-1.3755,-1.2963,-1.2309,-1.1512,-1.0634,-1.0476,-1.0083,-0.9728,0.0,0.0,0.0,0.0,0.0,0.0,0.0,0.0,0.0,0.0,0.0,0.0,0.0,0.0,0.0,0.0,0.0,0.0,0.0,0.0,0.0,0.0,0.0,0.0,0.0,0.0,-0.5914,-0.6071,-0.6406,-0.6687,-0.6908,-0.7216,0.0,0.0,0.0,0.0,0.0,0.0,0.0,0.0,0.0,0.0,-0.7167,0.0,0.0,0.0,0.0,0.0,0.0,0.0,0.0,0.0,0.0,0.0,0.0,0.0,-0.924,0.0,0.0,-1.1423,-1.1577,-1.1283,-1.0935,0.0,0.0,-0.9372,-0.9103,-0.8871,-0.8804,-0.8804,-0.8804,-0.8898,-0.9125,-0.9606,0.0,0.0,0.0,0.0,0.0,0.0,0.0,0.0,0.0,0.0,0.0,0.0,0.0,0.0,-1.5832,-1.5832,-1.5832,-1.5832,-1.5832,-1.5832,-1.5832,-1.5832,-1.5832,-1.5832,-1.5832,-1.5832,-1.5832,-1.5832,-1.573,-1.5635,-1.5452,-1.5013,0.0,-1.3767,-1.2986,-1.2042,-1.1497,-1.0817,-1.0149,-1.0065,-0.9671,-0.9199,0.0,0.0,0.0,0.0,0.0,0.0,0.0,0.0,0.0,0.0,0.0,0.0,0.0,0.0,0.0,0.0,0.0,0.0,0.0,0.0,0.0,0.0,0.0,0.0,0.0,-0.5309,-0.5411,-0.5678,-0.6035,-0.633,-0.6567,-0.6976,-0.7167,0.0,0.0,0.0,0.0,-0.7022,-0.7201,-0.7404,-0.7217,-0.7154,0.0,0.0,0.0,0.0,0.0,0.0,0.0,0.0,0.0,0.0,0.0,0.0,0.0,0.0,0.0,0.0,0.0,0.0,0.0,0.0,0.0,0.0,0.0,-0.915,0.0,-0.8864,-0.8804,-0.8804,-0.8804,-0.9045,-0.9339,-0.9633,0.0,0.0,0.0,0.0,0.0,0.0,0.0,0.0,0.0,0.0,0.0,0.0,0.0,0.0,-1.5832,-1.5832,-1.5818,-1.5798,-1.5798,-1.5812,-1.5832,-1.5832,-1.5832,-1.5832,-1.5832,-1.5825,-1.5737,-1.571,-1.5609,0.0,-1.5121,-1.4395,-1.3409,-1.2935,-1.201,-1.09,-1.0721,-1.0308,-0.9932,-0.9671,-0.9271,-0.8893,0.0,0.0,0.0,0.0,0.0,0.0,0.0,0.0,0.0,0.0,0.0,0.0,0.0,0.0,0.0,0.0,0.0,0.0,0.0,0.0,0.0,0.0,0.0,0.0,0.0,-0.5277,-0.5342,-0.5384,-0.5934,-0.623,-0.6303,-0.6828,-0.7027,-0.7056,-0.6868,-0.6644,-0.6409,-0.6409,-0.658,-0.6814,-0.6774,-0.6868,0.0,0.0,0.0,0.0,-0.6979,-0.6979,0.0,0.0,0.0,0.0,0.0,0.0,0.0,0.0,-0.7275,-0.7541,-0.8233,0.0,-0.9649,0.0,0.0,0.0,0.0,0.0,0.0,0.0,0.0,0.0,0.0,0.0,0.0,0.0,0.0,0.0,0.0,0.0,0.0,0.0,0.0,0.0,0.0,0.0,0.0,0.0,0.0,-1.5832,-1.5832,-1.5832,-1.5732,-1.5504,-1.5312,-1.5417,-1.5825,-1.5832,-1.5832,-1.5832,-1.5832,-1.5737,-1.5534,-1.5317,-1.5032,-1.4553,-1.3884,-1.3205,-1.2406,-1.1667,-1.1044,-1.0452,-0.9993,-0.9689,-0.9383,-0.9033,-0.8568,-0.8035,0.0,0.0,0.0,0.0,0.0,0.0,0.0,0.0,0.0,0.0,0.0,0.0,0.0,0.0,0.0,0.0,0.0,0.0,0.0,0.0,0.0,0.0,0.0,0.0,0.0,-0.5119,-0.5151,-0.5151,-0.5801,-0.6122,-0.6135,-0.6713,-0.6947,-0.6807,-0.6379,-0.6172,-0.6189,-0.6048,-0.6199,-0.6587,-0.6587,0.0,0.0,0.0,0.0,0.0,-0.6979,-0.6979,0.0,-0.6979,-0.6774,-0.6508,0.0,0.0,0.0,0.0,-0.6363,-0.6653,-0.7084,-0.8111,-0.8961,-0.886,-0.893,-0.9005,0.0,0.0,0.0,0.0,0.0,0.0,0.0,0.0,0.0,0.0,0.0,0.0,0.0,0.0,0.0,0.0,0.0,0.0,0.0,0.0,0.0,0.0,0.0,-1.5444,-1.5444,-1.5119,-1.4883,-1.4734,-1.4545,-1.4707,-1.5239,-1.5191,-1.5091,-1.4955,-1.4903,-1.4803,-1.4577,-1.4333,-1.3989,-1.343,-1.2837,-1.2075,-1.1242,-1.0702,-1.022,-0.9776,-0.9593,-0.9284,-0.9108,-0.8755,-0.8182,-0.755,0.0,0.0,0.0,0.0,0.0,0.0,0.0,0.0,0.0,0.0,0.0,0.0,0.0,0.0,0.0,0.0,0.0,0.0,0.0,0.0,0.0,0.0,0.0,0.0,0.0,0.0,0.0,-0.4928,-0.5625,-0.5981,-0.5987,0.0,-0.6847,-0.65,-0.5952,-0.5825,-0.6041,-0.5758,-0.5985,-0.6526,-0.6526,0.0,0.0,0.0,0.0,0.0,0.0,0.0,0.0,-0.6901,-0.6689,-0.6349,-0.6136,0.0,0.0,0.0,0.0,0.0,-0.6237,-0.7229,-0.8205,-0.8461,-0.8639,-0.8752,0.0,0.0,0.0,0.0,0.0,0.0,0.0,0.0,0.0,0.0,0.0,0.0,0.0,0.0,0.0,0.0,0.0,0.0,0.0,0.0,0.0,0.0,0.0,-1.4864,-1.4864,-1.417,-1.3748,-1.3705,-1.3435,-1.3597,-1.4097,-1.4153,-1.4007,-1.3767,-1.3731,-1.3626,-1.3399,-1.3085,-1.27,-1.2155,0.0,0.0,-1.0023,-0.9848,-0.9487,-0.917,-0.9082,-0.8982,-0.8694,-0.8511,-0.794,-0.7312,0.0,0.0,0.0,0.0,0.0,0.0,0.0,0.0,0.0,0.0,0.0,0.0,0.0,0.0,0.0,0.0,0.0,0.0,0.0,0.0,0.0,0.0,0.0,0.0,0.0,0.0,0.0,0.0,0.0,0.0,-0.5943,-0.6598,-0.6666,-0.6243,-0.5865,-0.5605,-0.5443,-0.5364,-0.5719,-0.6263,-0.6158,0.0,0.0,0.0,0.0,0.0,0.0,0.0,0.0,-0.6496,-0.6233,-0.5879,-0.5663,0.0,0.0,0.0,0.0,0.0,-0.5863,-0.6545,-0.7189,-0.7835,-0.8215,-0.8474,0.0,0.0,0.0,0.0,0.0,0.0,0.0,0.0,0.0,0.0,0.0,0.0,0.0,0.0,0.0,0.0,0.0,0.0,0.0,0.0,0.0,0.0,0.0,-1.401,-1.3835,-1.3513,-1.3117,-1.2721,-1.2271,-1.1993,-1.1782,-1.2861,-1.3259,-1.3036,-1.3076,-1.2803,-1.2387,-1.2182,-1.1552,-1.0646,0.0,-0.9495,-0.8761,-0.8589,-0.84,-0.8376,-0.8204,-0.8119,-0.7994,-0.7644,-0.7272,-0.6816,0.0,0.0,0.0,0.0,0.0,0.0,0.0,0.0,0.0,0.0,0.0,0.0,0.0,0.0,0.0,0.0,0.0,0.0,0.0,0.0,0.0,0.0,0.0,0.0,0.0,0.0,0.0,0.0,0.0,-0.5521,-0.5708,-0.6162,-0.6181,-0.5805,-0.5544,-0.5365,-0.5239,-0.5239,-0.5491,-0.5874,0.0,0.0,0.0,0.0,0.0,0.0,0.0,0.0,0.0,0.0,-0.5933,-0.562,-0.5443,0.0,0.0,0.0,0.0,0.0,-0.5079,-0.5727,-0.6386,-0.6974,-0.7688,-0.8321,0.0,0.0,0.0,0.0,0.0,0.0,0.0,0.0,0.0,0.0,0.0,0.0,0.0,0.0,0.0,0.0,0.0,0.0,0.0,0.0,0.0,0.0,0.0,-1.2831,-1.2652,-1.1893,-1.1336,-1.1144,-1.0607,-1.0289,-1.0024,-1.0563,-1.1018,-1.1295,-1.115,-1.096,-1.0568,-1.0298,-0.9902,-0.9283,0.0,-0.8552,-0.8201,-0.8113,-0.8028,-0.8028,-0.7944,-0.7811,-0.7635,-0.7119,-0.6829,-0.6614,0.0,0.0,0.0,0.0,0.0,0.0,0.0,0.0,0.0,0.0,0.0,0.0,0.0,0.0,0.0,0.0,0.0,0.0,0.0,0.0,0.0,0.0,0.0,0.0,0.0,0.0,-0.3896,-0.3961,-0.4632,-0.5085,-0.5397,-0.5603,-0.5611,-0.5396,-0.5209,-0.5112,-0.5112,-0.5112,-0.5254,-0.5469,0.0,0.0,0.0,0.0,0.0,0.0,0.0,0.0,0.0,0.0,0.0,0.0,0.0,0.0,0.0,-0.406,-0.3972,-0.4026,-0.4384,-0.5026,-0.5682,0.0,0.0,0.0,0.0,0.0,0.0,0.0,0.0,0.0,0.0,0.0,0.0,0.0,0.0,0.0,0.0,0.0,0.0,0.0,0.0,0.0,0.0,0.0,0.0,0.0,0.0,-1.1508,-1.1331,-1.0289,-0.9662,-0.9529,-0.9174,-0.8801,-0.8677,-0.8504,-0.8892,-0.9598,-0.9398,-0.9212,-0.8973,-0.8757,-0.8479,-0.8222,-0.8009,-0.7824,-0.7654,-0.7694,-0.7621,-0.7621,-0.7621,-0.7512,-0.7274,-0.6829,-0.6573,-0.6451,0.0,0.0,0.0,0.0,0.0,0.0,0.0,0.0,0.0,0.0,0.0,0.0,0.0,0.0,0.0,0.0,0.0,0.0,0.0,0.0,0.0,0.0,0.0,0.0,0.0,-0.3532,-0.3532,-0.3532,-0.3955,-0.4521,-0.513,-0.5157,-0.5144,-0.5114,-0.4928,-0.4844,-0.4844,-0.4844,-0.4958,-0.5126,-0.494,0.0,0.0,0.0,0.0,0.0,0.0,0.0,0.0,0.0,0.0,0.0,0.0,0.0,-0.3924,-0.3788,-0.3707,-0.3791,-0.4118,-0.4556,-0.5039,-0.5705,0.0,0.0,0.0,0.0,0.0,0.0,0.0,0.0,0.0,0.0,0.0,0.0,0.0,0.0,0.0,0.0,0.0,0.0,0.0,0.0,0.0,0.0,0.0,0.0,-1.0584,-0.997,-0.98,-0.9253,-0.8814,-0.8398,-0.8215,-0.8054,-0.7895,-0.7477,-0.7712,-0.8723,-0.8648,-0.856,-0.8281,-0.8115,-0.7788,-0.7361,-0.721,-0.7062,-0.6829,-0.6888,-0.6946,-0.6946,-0.6946,-0.6858,-0.6712,-0.6549,-0.6481,-0.6451,0.0,0.0,0.0,0.0,0.0,0.0,0.0,0.0,0.0,0.0,0.0,0.0,0.0,0.0,0.0,0.0,0.0,0.0,0.0,0.0,0.0,0.0,0.0,-0.3765,-0.3372,-0.3303,-0.3237,-0.3237,-0.3764,-0.4185,-0.448,-0.4605,0.0,0.0,-0.4421,-0.4441,-0.4441,-0.4441,-0.4459,-0.4526,-0.4405,-0.4368,0.0,0.0,0.0,0.0,0.0,0.0,0.0,0.0,-0.432,-0.4192,0.0,0.0,-0.3744,-0.37,-0.366,-0.3674,-0.386,-0.413,-0.455,-0.4948,0.0,0.0,0.0,0.0,0.0,0.0,0.0,0.0,0.0,0.0,0.0,0.0,0.0,0.0,0.0,0.0,0.0,0.0,0.0,0.0,0.0,0.0,0.0,-0.984,-0.9221,-0.8815,-0.8639,-0.8106,-0.7678,-0.7537,-0.7282,-0.717,-0.7116,-0.6947,-0.7003,-0.7458,-0.7458,-0.7377,-0.7289,-0.7228,-0.7119,-0.6951,-0.6892,-0.6781,-0.6705,-0.6763,-0.6787,-0.6787,-0.6787,-0.6695,-0.6552,-0.6495,-0.6417,-0.6332,0.0,0.0,0.0,0.0,0.0,0.0,0.0,0.0,0.0,0.0,0.0,0.0,0.0,0.0,0.0,0.0,0.0,0.0,0.0,0.0,0.0,0.0,0.0,-0.3765,-0.3311,-0.3142,-0.3039,-0.301,-0.3496,-0.3733,-0.3803,0.0,0.0,0.0,0.0,-0.3983,-0.3983,-0.3983,-0.3951,-0.3901,-0.385,-0.3774,0.0,0.0,0.0,0.0,0.0,0.0,0.0,0.0,-0.4016,0.0,0.0,0.0,0.0,0.0,-0.3619,-0.3622,-0.366,-0.3907,-0.4207,0.0,0.0,0.0,0.0,0.0,0.0,0.0,0.0,0.0,0.0,0.0,0.0,0.0,0.0,0.0,0.0,0.0,0.0,0.0,0.0,0.0,0.0,0.0,0.0,-0.8541,-0.8187,-0.7862,-0.7689,-0.725,-0.6922,-0.6873,-0.6709,-0.6607,-0.6563,-0.6563,-0.6563,-0.6563,-0.6563,-0.661,-0.6698,-0.6651,-0.6627,-0.6627,-0.658,-0.6563,-0.6566,-0.661,-0.6627,-0.6627,-0.6627,-0.6536,-0.6407,-0.6407,-0.6342,-0.6338,0.0,0.0,0.0,0.0,0.0,0.0,0.0,0.0,0.0,0.0,0.0,0.0,0.0,0.0,0.0,0.0,0.0,0.0,0.0,0.0,0.0,0.0,0.0,-0.3695,-0.3311,-0.3039,-0.2871,-0.2782,-0.301,-0.3105,-0.3105,-0.3245,0.0,0.0,0.0,0.0,0.0,-0.3499,-0.3405,-0.3278,-0.3212,-0.325,-0.3262,0.0,0.0,0.0,0.0,0.0,0.0,0.0,-0.3581,0.0,0.0,0.0,0.0,0.0,-0.3581,-0.3581,-0.3581,-0.3778,0.0,0.0,0.0,0.0,0.0,0.0,0.0,0.0,0.0,0.0,0.0,0.0,0.0,0.0,0.0,0.0,0.0,0.0,0.0,0.0,0.0,0.0,0.0,0.0,-0.7777,-0.7777,-0.736,-0.7109,-0.7105,-0.6857,-0.6624,-0.6471,-0.6464,-0.6396,-0.6335,-0.6257,-0.6257,-0.6257,-0.6257,-0.641,-0.6692,-0.6539,-0.6471,-0.6461,-0.6322,-0.6338,-0.6271,-0.6413,-0.6471,-0.6471,-0.6471,-0.6383,-0.6338,-0.6338,-0.6261,-0.6261,0.0,0.0,0.0,0.0,0.0,0.0,0.0,0.0,0.0,0.0,0.0,0.0,0.0,0.0,0.0,0.0,0.0,0.0,0.0,0.0,0.0,0.0,0.0,0.0,0.0,0.0,-0.2746,-0.2716,-0.2849,-0.2882,0.0,0.0,0.0,-0.3035,0.0,0.0,-0.3204,-0.3204,-0.3204,-0.315,-0.3102,-0.3071,-0.3101,0.0,0.0,0.0,0.0,0.0,0.0,0.0,0.0,0.0,0.0,0.0,0.0,-0.3581,-0.3581,-0.3581,-0.3581,0.0,0.0,0.0,0.0,0.0,0.0,0.0,0.0,0.0,0.0,0.0,0.0,0.0,0.0,0.0,0.0,0.0,0.0,0.0,0.0,0.0,0.0,0.0,0.0,0.0,-0.7078,-0.7022,-0.6845,-0.6655,-0.6551,-0.6366,-0.6159,-0.6003,-0.6,-0.5979,-0.5939,-0.5939,-0.5939,-0.5939,-0.5939,-0.6095,-0.639,-0.6342,-0.6325,-0.6322,-0.6278,-0.6338,-0.6264,-0.6305,-0.6325,-0.6325,-0.6325,-0.6298,-0.6338,-0.6338,-0.618,-0.6022,0.0,0.0,0.0,0.0,0.0,0.0,0.0,0.0,0.0,0.0,0.0,0.0,0.0,0.0,0.0,0.0,0.0,0.0,0.0,0.0,0.0,0.0,0.0,0.0,0.0,-0.2812,-0.2679,0.0,0.0,0.0,0.0,0.0,0.0,-0.2841,0.0,-0.2944,0.0,-0.3015,-0.3011,-0.3022,-0.3035,-0.3059,-0.3135,0.0,0.0,0.0,0.0,0.0,0.0,0.0,0.0,0.0,0.0,0.0,0.0,-0.3581,-0.3581,-0.3581,-0.3581,0.0,0.0,0.0,0.0,0.0,0.0,0.0,0.0,0.0,0.0,0.0,0.0,0.0,0.0,0.0,0.0,0.0,0.0,0.0,0.0,0.0,0.0,0.0,0.0,-0.6384,-0.6402,-0.6335,-0.6257,-0.6169,-0.6081,-0.5989,-0.5895,-0.5803,-0.58,-0.58,-0.58,-0.58,-0.58,-0.58,-0.58,-0.5898,-0.6081,-0.6142,-0.6203,-0.6338,-0.6338,-0.6227,-0.6169,-0.6169,-0.6132,-0.6078,-0.6078,-0.6115,-0.609,-0.609,-0.5893,-0.5628,0.0,0.0,0.0,0.0,0.0,0.0,0.0,0.0,0.0,0.0,0.0,0.0,0.0,0.0,0.0,0.0,0.0,0.0,0.0,0.0,0.0,0.0,0.0,0.0,0.0,0.0,0.0,0.0,0.0,0.0,0.0,0.0,-0.2686,-0.2703,0.0,-0.271,-0.273,-0.2869,-0.2927,-0.294,-0.3045,-0.3185,-0.3309,-0.3323,0.0,0.0,0.0,0.0,0.0,0.0,0.0,0.0,0.0,0.0,-0.3581,-0.3581,-0.3581,-0.3581,0.0,0.0,0.0,0.0,0.0,0.0,0.0,0.0,0.0,0.0,0.0,0.0,0.0,0.0,0.0,0.0,0.0,0.0,0.0,0.0,0.0,0.0,0.0,0.0,0.0,-0.5793,-0.58,-0.58,-0.58,-0.5796,-0.5783,-0.5783,-0.5776,-0.5762,-0.5762,-0.5762,-0.5762,-0.5762,-0.5762,-0.5762,-0.5762,-0.5769,-0.5786,-0.5939,-0.6084,-0.6217,-0.6217,-0.6139,-0.601,-0.5935,-0.5852,-0.5803,-0.5728,-0.5663,-0.5628,-0.5628,-0.5409,-0.5132,0.0,0.0,0.0,0.0,0.0,0.0,0.0,0.0,0.0,0.0,0.0,0.0,0.0,0.0,0.0,0.0,0.0,0.0,0.0,0.0,0.0,0.0,0.0,0.0,0.0,0.0,0.0,0.0,0.0,0.0,0.0,0.0,0.0,-0.2788,0.0,-0.292,-0.3029,-0.3059,-0.3076,-0.3051,-0.3199,-0.3279,-0.3319,-0.3483,-0.3551,0.0,0.0,0.0,0.0,0.0,0.0,0.0,-0.3581,-0.3581,-0.3581,-0.3581,-0.3581,0.0,0.0,0.0,0.0,0.0,0.0,0.0,0.0,0.0,0.0,0.0,0.0,0.0,0.0,0.0,0.0,0.0,0.0,0.0,0.0,0.0,0.0,0.0,0.0,0.0,-0.5637,-0.5735,-0.58,-0.58,-0.58,-0.5752,-0.564,-0.5637,-0.5579,-0.546,-0.5457,-0.5457,-0.5457,-0.5457,-0.5457,-0.5457,-0.5457,-0.5518,-0.564,-0.5786,-0.5867,-0.5901,-0.5901,-0.5881,-0.585,-0.5636,-0.562,-0.5519,-0.5297,-0.5168,-0.5119,-0.4832,-0.4559,-0.4151,0.0,0.0,0.0,0.0,0.0,0.0,0.0,0.0,0.0,0.0,0.0,0.0,0.0,0.0,0.0,0.0,0.0,0.0,0.0,0.0,0.0,0.0,0.0,0.0,0.0,0.0,0.0,0.0,0.0,0.0,0.0,0.0,0.0,-0.2723,0.0,-0.2951,-0.3088,-0.3159,-0.3189,-0.3202,-0.3398,-0.3459,-0.347,-0.3551,-0.3581,-0.3581,-0.3581,0.0,0.0,0.0,0.0,0.0,0.0,0.0,-0.3581,-0.3581,-0.3581,-0.3581,0.0,0.0,0.0,0.0,0.0,0.0,0.0,0.0,0.0,0.0,0.0,0.0,0.0,0.0,0.0,0.0,0.0,0.0,0.0,0.0,0.0,0.0,0.0,0.0,-0.5267,-0.5335,-0.5379,-0.5379,-0.5379,-0.5345,-0.527,-0.5267,-0.5264,-0.525,-0.525,-0.525,-0.525,-0.525,-0.525,-0.525,-0.525,-0.5229,-0.5252,-0.5601,-0.58,-0.58,-0.5731,-0.562,-0.5553,-0.5277,-0.5096,-0.4896,-0.4616,-0.4369,-0.4204,-0.4063,-0.3667,-0.3207,0.0,0.0,0.0,0.0,0.0,0.0,0.0,0.0,0.0,0.0,0.0,0.0,0.0,0.0,0.0,0.0,0.0,0.0,0.0,0.0,0.0,0.0,-0.2094,0.0,0.0,0.0,-0.1678,0.0,0.0,0.0,0.0,0.0,0.0,-0.2609,0.0,-0.2949,-0.3169,-0.3293,-0.3346,-0.336,-0.3527,-0.3581,-0.3581,-0.3581,-0.3581,-0.3581,-0.3581,-0.3581,-0.3581,-0.3581,0.0,0.0,0.0,0.0,-0.3581,-0.3581,-0.3581,-0.3581,0.0,0.0,0.0,0.0,0.0,0.0,0.0,0.0,0.0,0.0,0.0,0.0,0.0,0.0,0.0,0.0,0.0,0.0,0.0,0.0,0.0,0.0,0.0,0.0,-0.4918,-0.4918,-0.4918,-0.4918,-0.4918,-0.4918,-0.4918,-0.4918,-0.4972,-0.5091,-0.5094,-0.5094,-0.5094,-0.5094,-0.5094,-0.5094,-0.5031,-0.4971,-0.4798,-0.5277,-0.5507,-0.551,-0.5374,-0.518,-0.5027,-0.4685,-0.4363,-0.409,-0.3825,-0.347,-0.3192,-0.3053,-0.2675,-0.2228,0.0,0.0,0.0,0.0,0.0,0.0,0.0,0.0,0.0,0.0,0.0,0.0,0.0,0.0,0.0,0.0,0.0,0.0,-0.2683,0.0,0.0,-0.1944,-0.1754,-0.1544,0.0,0.0,-0.111,0.0,0.0,0.0,0.0,0.0,0.0,-0.2511,0.0,0.0,0.0,-0.3497,-0.3551,-0.3551,-0.3571,-0.3581,-0.3581,-0.3581,-0.3581,-0.3581,-0.3581,-0.3581,-0.3581,-0.3581,-0.3581,0.0,0.0,0.0,-0.3581,-0.3581,-0.3581,0.0,0.0,0.0,0.0,0.0,0.0,0.0,0.0,0.0,0.0,0.0,0.0,0.0,0.0,0.0,0.0,0.0,0.0,0.0,0.0,0.0,0.0,0.0,0.0,0.0,-0.4918,-0.4918,-0.4918,-0.4918,-0.4918,-0.4918,-0.4918,-0.4918,-0.4928,-0.4948,-0.4948,-0.4948,-0.4948,-0.4948,-0.4948,-0.4948,-0.4822,-0.4577,-0.4273,-0.4258,-0.4281,-0.4409,-0.4409,-0.4273,-0.4032,-0.3704,-0.3488,-0.3291,-0.2684,-0.2421,-0.2294,-0.1756,-0.1422,-0.1296,0.0,0.0,0.0,0.0,0.0,0.0,0.0,0.0,0.0,0.0,0.0,0.0,0.0,0.0,0.0,-0.2537,-0.2462,-0.2345,-0.2112,-0.1958,-0.1763,-0.1459,-0.1318,-0.1145,-0.0875,0.0,0.0,0.0,0.0,0.0,0.0,-0.1134,-0.1657,0.0,0.0,0.0,0.0,0.0,-0.3534,-0.3581,-0.3581,-0.3581,-0.3581,-0.3581,-0.3581,-0.3581,-0.3581,-0.3581,-0.3581,-0.3581,-0.3581,-0.3581,-0.3581,0.0,0.0,0.0,0.0,0.0,0.0,0.0,0.0,0.0,0.0,0.0,0.0,0.0,0.0,0.0,0.0,0.0,0.0,0.0,0.0,0.0,0.0,0.0,0.0,0.0,0.0,0.0,0.0,0.0,-0.4493,-0.4493,-0.4493,-0.4375,-0.4375,-0.4375,-0.4314,-0.4256,-0.4293,-0.4308,-0.4311,-0.4311,-0.4311,-0.4311,-0.4311,-0.4311,-0.4206,-0.3961,-0.3597,-0.3416,-0.363,-0.3936,-0.3691,-0.3534,-0.3393,-0.2875,-0.2594,-0.2368,-0.187,-0.1612,-0.1411,-0.1142,-0.0875,-0.0674,0.0,0.0,0.0,0.0,0.0,0.0,0.0,0.0,0.0,0.0,0.0,0.0,0.0,0.0,0.0,0.0,-0.2107,-0.1946,-0.1664,-0.1527,-0.1337,-0.1026,-0.0888,-0.0752,-0.0549,0.0,0.0,0.0,0.0,0.0,-0.0432,-0.0652,-0.113,0.0,-0.2218,0.0,0.0,0.0,0.0,0.0,-0.3534,-0.349,0.0,0.0,0.0,0.0,-0.3445,-0.3442,-0.3442,-0.3534,-0.3534,-0.3534,-0.3578,-0.3581,0.0,0.0,0.0,0.0,0.0,0.0,0.0,0.0,0.0,0.0,0.0,0.0,0.0,0.0,0.0,0.0,0.0,0.0,0.0,0.0,0.0,0.0,0.0,0.0,0.0,0.0,0.0,0.0,-0.4082,-0.4027,-0.3971,-0.3858,-0.3858,-0.3799,-0.363,-0.363,-0.3615,-0.3647,-0.3593,-0.3593,-0.3593,-0.3593,-0.3593,-0.3535,-0.3502,-0.3261,-0.2785,-0.2609,-0.2761,-0.3124,-0.2885,-0.2718,-0.2561,-0.1999,-0.1718,-0.1486,-0.1188,-0.0865,-0.0666,-0.0599,-0.0464,-0.0198,0.0,0.0,0.0,0.0,0.0,0.0,0.0,0.0,0.0,0.0,0.0,0.0,0.0,-0.1956,-0.1916,-0.182,-0.1827,-0.1692,-0.1424,-0.1073,-0.0796,-0.0711,-0.0537,0.0,-0.0145,-0.0138,0.0,0.0,0.0,0.0,-0.0236,-0.0354,-0.0619,-0.0981,-0.1781,-0.2364,-0.2729,0.0,0.0,0.0,0.0,0.0,0.0,0.0,0.0,0.0,0.0,0.0,-0.3078,-0.3306,-0.3398,-0.3442,-0.3578,-0.3581,0.0,0.0,0.0,0.0,0.0,0.0,0.0,0.0,0.0,0.0,0.0,0.0,0.0,0.0,0.0,0.0,0.0,0.0,0.0,0.0,0.0,0.0,0.0,0.0,0.0,0.0,0.0,0.0,-0.3638,-0.3638,-0.3583,-0.3469,-0.3413,-0.3355,-0.313,-0.313,-0.3132,-0.3137,-0.3137,-0.3137,-0.3137,-0.3137,-0.3026,-0.2742,-0.2749,-0.2469,-0.185,-0.1738,-0.1517,-0.1241,-0.1689,-0.1662,-0.13,-0.1065,-0.092,-0.084,-0.0453,-0.0324,-0.0324,-0.0129,0.0,0.0,0.0,0.0,0.0,0.0,0.0,0.0,0.0,0.0,0.0,0.0,0.0,0.0,0.0,-0.1578,-0.1498,-0.1252,-0.1166,-0.1033,-0.0853,-0.0708,-0.052,-0.0379,-0.0327,-0.0197,-0.0038,-0.0036,0.0,0.0,0.0,-0.0038,-0.0079,-0.0209,-0.0393,-0.0628,-0.1343,-0.1878,-0.2324,-0.2726,0.0,0.0,0.0,0.0,0.0,0.0,0.0,0.0,0.0,0.0,0.0,-0.2907,-0.2998,-0.3087,-0.3135,0.0,0.0,0.0,0.0,0.0,0.0,0.0,0.0,0.0,0.0,0.0,0.0,0.0,0.0,0.0,0.0,0.0,0.0,0.0,0.0,0.0,0.0,0.0,0.0,0.0,0.0,0.0,0.0,0.0,-0.3019,-0.3019,-0.2907,-0.2631,-0.2631,-0.2517,-0.2293,-0.2293,-0.2181,-0.1961,-0.1961,-0.1961,-0.1961,-0.1961,-0.1905,-0.1792,-0.1736,-0.1512,-0.1232,-0.1064,-0.0841,-0.0505,-0.0672,-0.079,-0.0858,-0.0584,-0.0418,-0.0366,-0.0187,-0.0126,-0.0126,0.0,0.0,0.0,0.0,0.0,0.0,0.0,0.0,0.0,0.0,0.0,0.0,0.0,0.0,0.0,0.0,0.0,-0.0986,-0.0762,-0.0629,-0.0494,-0.0405,-0.036,-0.0266,-0.0129,-0.0127,-0.0083,0.0,0.0,0.0,0.0,0.0,0.0,0.0,0.0,-0.0222,-0.036,-0.0852,-0.1344,0.0,0.0,0.0,-0.2768,0.0,0.0,-0.2509,0.0,0.0,0.0,0.0,0.0,0.0,0.0,0.0,0.0,0.0,0.0,0.0,0.0,0.0,0.0,0.0,0.0,0.0,0.0,0.0,0.0,0.0,0.0,0.0,0.0,0.0,0.0,0.0,0.0,0.0,0.0,0.0,0.0,0.0,0.0,0.0,0.0,0.0,-0.2406,-0.2237,-0.2237,-0.2127,-0.1849,-0.1849,0.0,-0.1512,-0.1511,-0.14,-0.1178,-0.1178,-0.1178,-0.1178,-0.1178,-0.1122,-0.1122,-0.101,-0.0842,-0.0673,-0.0561,-0.0393,-0.0112,-0.0112,-0.028,-0.0449,-0.023,-0.0117,-0.0118,-0.006,0.0,0.0,0.0,0.0,0.0,0.0,0.0,0.0,0.0,0.0,0.0,0.0,0.0,0.0,0.0,0.0,0.0,0.0,0.0,0.0,-0.0405,-0.027,-0.018,-0.018,-0.009,0.0,0.0,0.0,0.0,0.0,0.0,0.0,0.0,0.0,0.0,0.0,0.0,-0.0086,0.0,-0.0315,-0.0763,-0.1433,0.0,-0.2279,-0.2324,0.0,-0.2328,-0.1794,0.0,0.0,0.0,-0.1299,-0.1389,0.0,0.0,0.0,0.0,0.0,0.0,0.0,0.0,0.0,0.0,0.0,0.0,0.0,0.0,0.0,0.0,0.0,0.0,0.0,0.0,0.0,0.0,0.0,0.0,0.0,0.0,0.0,0.0,0.0,0.0,0.0,0.0,0.0,-0.129,-0.129,-0.129,-0.1234,-0.1066,-0.1066,-0.101,-0.0898,-0.0898,-0.0898,-0.0898,-0.0898,-0.0898,-0.0898,-0.0898,-0.0785,-0.0673,-0.0673,-0.0505,-0.0168,-0.0168,-0.0112,0.0,0.0,0.0,0.0,0.0,0.0,0.0,0.0,0.0,0.0,0.0,0.0,0.0,0.0,0.0,0.0,0.0,0.0,0.0,0.0,0.0,0.0,0.0,0.0,0.0,0.0,0.0,-0.0135,-0.009,-0.009,-0.0045,-0.0045,0.0,0.0,0.0,0.0,0.0,0.0,0.0,0.0,0.0,0.0,0.0,0.0,0.0,0.0,0.0,-0.018,-0.0449,-0.0808,-0.1478,0.0,0.0,-0.2196,-0.1971,0.0,0.0,0.0,0.0,0.0,-0.0942,-0.1074,0.0,-0.1297,-0.1386,0.0,0.0,0.0,0.0,0.0,0.0,-0.0763,0.0,0.0,0.0,0.0,0.0,0.0,0.0,0.0,0.0,0.0,0.0,0.0,0.0,0.0,0.0,0.0,0.0,0.0,0.0,0.0,0.0,0.0,-0.0954,-0.0898,-0.0842,-0.0785,0.0,-0.0617,-0.0561,-0.0393,-0.028,-0.0224,-0.0224,-0.0224,-0.0224,-0.0224,-0.0224,-0.0224,-0.0168,-0.0168,-0.0168,-0.0056,-0.0056,-0.0056,0.0,0.0,0.0,0.0,0.0,0.0,0.0,0.0,0.0,0.0,0.0,0.0,0.0,0.0,0.0,0.0,0.0,0.0,0.0,0.0,0.0,0.0,0.0,0.0,0.0,0.0,0.0,0.0,0.0,0.0,0.0,0.0,0.0,0.0,0.0,0.0,0.0,0.0,0.0,0.0,0.0,0.0,0.0,0.0,0.0,0.0,0.0,0.0,0.0,0.0,0.0,0.0,0.0,-0.1839,0.0,0.0,-0.0986,-0.0674,0.0,0.0,0.0,-0.0627,-0.0717,-0.0807,0.0,0.0,0.0,0.0,0.0,0.0,0.0,0.0,0.0,0.0,0.0,0.0,0.0,-0.0298,-0.0337,-0.0419,0.0,0.0,0.0,0.0,0.0,0.0,0.0,0.0,0.0,0.0,0.0,0.0,0.0,0.0,0.0,-0.0439,-0.0389,-0.0336,-0.0224,-0.0224,-0.0224,-0.0112,-0.0056,0.0,0.0,0.0,0.0,0.0,0.0,0.0,0.0,0.0,0.0,0.0,0.0,0.0,0.0,0.0,0.0,0.0,0.0,0.0,0.0,0.0,0.0,0.0,0.0,0.0056,0.0056,0.0,0.0,0.0,0.0,0.0,0.0,0.0,0.0,0.0,0.0,0.0,0.0,0.0,0.0,0.0,0.0,0.0,0.0,0.0,0.0,0.0,0.0,0.0,0.0,0.0,0.0,0.0,0.0,0.0,0.0,0.0,0.0,0.0,0.0,0.0,0.0,0.0,0.0,0.0,-0.1299,-0.1478,-0.1258,0.0,0.0,-0.0272,0.0,-0.0136,-0.0181,-0.0226,-0.0405,-0.0539,0.0,0.0,0.0,0.0,0.0,-0.0315,0.0,0.0,0.0,0.0,0.0,0.0,0.0,0.0,0.0,0.0,0.0,0.0,0.0,0.0,0.0,0.0,0.0,0.0,0.0,0.0,0.0,0.0,0.0,0.0,0.0,0.0,0.0,0.0,0.0,0.0,0.0,0.0,0.0,0.0,0.0,0.0,0.0,0.0,0.0,0.0,0.0,0.0,0.0,0.0,0.0,0.0,0.0,0.0,0.0,0.0,0.0,0.0,0.0,0.0,0.0,0.0,0.0,0.0112,0.0224,0.0,0.0,0.0,0.0,0.0,0.0,0.0,0.0,0.0,0.0,0.0,0.0,0.0,0.0,0.0,0.0,0.0,0.0,0.0,0.0,0.0,0.0,0.0,0.0,0.0,0.0,0.0,0.0,0.0,0.0,0.0,0.0,0.0,0.0,0.0,0.0,0.0,0.0,0.0,-0.0718,-0.0941,0.0,-0.0706,-0.0377,-0.0145,0.0,-0.0048,-0.0047,-0.0047,0.0,-0.0135,-0.0135,0.0,0.0,0.0,0.0,0.0,0.0,0.0,0.0,0.0,0.0,0.0,0.0,0.0,0.0,0.0,0.0,0.0,0.0,0.0,0.0,0.0,0.0,0.0,0.0,0.0,0.0,0.0,0.0,0.0,0.0,0.0,0.0,0.0,0.0,0.0,0.0,0.0,0.0,0.0,0.0,0.0,0.0,0.0,0.0,0.0,0.0,0.0,0.0,0.0,0.0,0.0,0.0,0.0,0.0,0.0,0.0,0.0,0.0,0.0,0.0,0.0,0.0112,0.0224,0.0393,0.0,0.0,0.0,0.0,0.0,0.0,0.0,0.0,0.0,0.0,0.0,0.0,0.0,0.0,0.0,0.0,0.0,0.0,0.0,0.0,0.0,0.0,0.0,0.0,0.0,0.0,0.0,0.0,0.0,0.0,0.0,0.0,0.0,0.0,0.0,0.0,0.0,0.0,-0.0352,-0.045,-0.0628,0.0,-0.0524,-0.0287,-0.0098,0.0,0.0,0.0,0.0,0.0,0.0,0.0,0.0,0.0,0.0,0.0,0.0,0.0,0.0,0.0,0.0,0.0,0.0,0.0,0.0,0.0,0.0,0.0,0.0,0.0,0.0,0.0,0.0,0.0,0.0,0.0,0.0,0.0,0.0,0.0,0.0,0.0,0.0,0.0,0.0,0.0,0.0,0.0,0.0,0.0,0.0,0.0,0.0,0.0,0.0,0.0,0.0,0.0,0.0,0.0,0.0,0.0,0.0,0.0,0.0,0.0,0.0,0.0,0.0,0.0,0.0,0.0056,0.0112,0.0224,0.0505,0.0785,0.0,0.0,0.0,0.0,0.0,0.0,0.0,0.0,0.0,0.0,0.0,0.0,0.0,0.0,0.0,0.0,0.0,0.0,0.0,0.0,0.0,0.0,0.0,0.0,0.0,0.0,0.0,0.0,0.0,0.0,0.0,0.0,0.0,0.0,0.0,0.0,0.0,0.0,0.0,-0.0315,0.0,-0.0369,-0.0334,-0.0191,-0.0098,0.0,0.0,0.0,0.0,0.0,0.0,0.0,0.0,0.0,0.0,0.0,0.0,0.0,0.0,0.0,0.0,0.0,0.0,0.0,0.0,0.0,0.0,0.0,0.0,0.0,0.0,0.0,0.0,0.0,0.0,0.0,0.0,0.0,0.0,0.0,0.0,0.0,0.0,0.0,0.0,0.0,0.0,0.0,0.0,0.0,0.0,0.0,0.0,0.0,0.0,0.0,0.0,0.0,0.0,0.0,0.0,0.0,0.0,0.0,0.0,0.0,0.0,0.0,0.0,0.0,0.0056,0.0112,0.028,0.0449,0.0841,0.1289,0.0,0.0,0.0,0.0,0.0,0.0,0.0,0.0,0.0,0.0,0.0,0.0,0.0,0.0,0.0,0.0,0.0,0.0,0.0,0.0,0.0,0.0,0.0,0.0,0.0,0.0,0.0,0.0,0.0,0.0,0.0,0.0,0.0,0.0,0.0,0.0,0.0,0.0,-0.0043,0.0,-0.0045,-0.0138,0.0,-0.0096,0.0,0.0,0.0,0.0,0.0,0.0,0.0,0.0,0.0,0.0,0.0,0.0,0.0,0.0,0.0,0.0,0.0,0.0,0.0,0.0,0.0,0.0,0.0,0.0,0.0,0.0,0.0,0.0,0.0,0.0,0.0,0.0,0.0,0.0,0.0,0.0,0.0,0.0,0.0,0.0,0.0,0.0,0.0,0.0,0.0,0.0,0.0,0.0,0.0,0.0,0.0,0.0,0.0,0.0,0.0,0.0,0.0,0.0,0.0,0.0,0.0,0.0,0.0,0.0,0.0,0.0,0.0112,0.028,0.0449,0.0842,0.1345,0.179,0.0,0.0,0.0,0.0,0.0,0.0,0.0,0.0,0.0,0.0,0.0,0.0,0.0,0.0,0.0,0.0,0.0,0.0,0.0,0.0,0.0,0.0,0.0,0.0,0.0,0.0,0.0,0.0,0.0,0.0,0.0,0.0,0.0,0.0,0.0,0.0,0.0,0.0,0.0,0.0,0.0,0.0,0.0,0.0,0.0,0.0,0.0,0.0,0.0,0.0,0.0,0.0,0.0,0.0,0.0,0.0,0.0,0.0,0.0,0.0,0.0,0.0,0.0,0.0,0.0,0.0,0.0,0.0,0.0,0.0,0.0,0.0,0.0,0.0,0.0039,0.0,0.0,0.0,0.0,0.0,0.0,0.0,0.0,0.0,0.0,0.0,0.0,0.0,0.0,0.0,0.0,0.0,0.0,0.0,0.0,0.0,0.0,0.0,0.0,0.0,0.0,0.0,0.0,0.0,0.0,0.0,0.0,0.0,0.0056,0.0168,0.0393,0.0561,0.0729,0.1232,0.1792,0.2408,0.0,0.0,0.0,0.0,0.0,0.0,0.0,0.0,0.0,0.0,0.0,0.0,0.0,0.0,0.0,0.0,0.0,0.0,0.0,0.0,0.0,0.0,0.0,0.0,0.0,0.0,0.0,0.0,0.0,0.0,0.0,0.0,0.0,0.0,0.0,0.0,0.0,0.0,0.0,0.0,0.0,0.0,0.0,0.0,0.0,0.0,0.0,0.0,0.0,0.0,0.0,0.0,0.0,0.0,0.0,0.0,0.0,0.0,0.0,0.0,0.0,0.0,0.0,0.0,0.0,0.0,0.0,0.0,0.0,0.0,0.0,0.0,0.0,0.0,0.0,0.0,0.0,0.0,0.0,0.0,0.0,0.0,0.0,0.0043,0.0,0.0,0.0,0.0,0.0,0.0,0.0,0.0,0.0,0.0,0.0,0.0,0.0,0.0,0.0,0.0,0.0,0.0,0.0,0.0,0.0,0.0,0.0,0.0056,0.0112,0.028,0.0673,0.0953,0.1233,0.168,0.2294,0.2968,0.0,0.0,0.0,0.0,0.0,0.0,0.0,0.0,0.0,0.0,0.0,0.0,0.0,0.0,0.0,0.0,0.0,0.0,0.0,0.0,0.0,0.0,0.0,0.0,0.0,0.0,0.0,0.0,0.0,0.0,0.0,0.0,0.0,0.0,0.0,0.0,0.0,0.0,0.0,0.0,0.0,0.0,0.0,0.0,0.0,0.0,0.0,0.0,0.0,0.0,0.0,0.0,0.0,0.0,0.0,0.0,0.0,0.0,0.0,0.0,0.0,0.0,0.0,0.0,0.0,0.0,0.0,0.0,0.0,0.0,0.0,0.0,0.0,0.0,0.0,0.0,0.0,0.0,0.0,0.0,0.0,0.0,0.0,0.0079,0.0079,0.0,0.0,0.0,0.0,0.0,0.0,0.0,0.0,0.0,0.0,0.0,0.0,0.0,0.0,0.0,0.0,0.0,0.0,0.0,0.0,0.0,0.0,0.0112,0.028,0.0449,0.0898,0.1457,0.2015,0.2352,0.2856,0.3413,0.0,0.0,0.0,0.0,0.0,0.0,0.0,0.0,0.0,0.0,0.0,0.0,0.0,0.0,0.0,0.0,0.0,0.0,0.0,0.0,0.0,0.0,0.0,0.0,0.0,0.0,0.0,0.0,0.0,0.0,0.0,0.0,0.0,0.0,0.0,0.0,0.0,0.0,0.0,0.0,0.0,0.0,0.0,0.0,0.0,0.0,0.0,0.0,0.0,0.0,0.0,0.0,0.0,0.0,0.0,0.0,0.0,0.0,0.0,0.0,0.019,0.0375,0.0,0.0,0.0,0.0,0.0,0.0,0.0,0.0,0.0,0.0,0.0,0.0,0.0,0.0,0.0,0.0,0.0,0.0,0.0,0.0,0.0,0.0,0.0,0.015,0.0078,0.0082,0.0084,0.0045,0.0,0.0,0.0,0.0,0.0,0.0,0.0,0.0,0.0,0.0,0.0,0.0,0.0,0.0,0.0,0.0056,0.0168,0.028,0.0561,0.0898,0.14,0.2014,0.2627,0.274,0.313,0.3741,0.0,0.0,0.0,0.0,0.0,0.0,0.0,0.0,0.0,0.0,0.0,0.0,0.0,0.0,0.0,0.0,0.0,0.0,0.0,0.0,0.0,0.0,0.0,0.0,0.0,0.0,0.0,0.0,0.0,0.0,0.0,0.0,0.0,0.0,0.0,0.0,0.0,0.0,0.0,0.0,0.0,0.0,0.0,0.0,0.0,0.0,0.0,0.0,0.0,0.0,0.0,0.0,0.0,0.0,0.0,0.0052,0.0052,0.0105,0.031,0.0401,0.0,0.0669,0.0693,0.0,0.0718,0.0,0.0,0.0,0.0,0.0,0.0,0.0,0.0,0.0,0.0,0.0,0.0,0.1611,0.0,0.0,0.0,0.0,0.0,0.0,0.0516,0.031,0.0258,0.0196,0.0,0.0131,0.0091,0.0093,0.0049,0.0,0.0,0.0,0.0,0.0,0.0,0.0,0.0,0.0056,0.0056,0.0056,0.0224,0.028,0.0393,0.0617,0.0953,0.1401,0.1903,0.2517,0.3074,0.3128,0.3516,0.4073,0.0,0.0,0.0,0.0,0.0,0.0,0.0,0.0,0.0,0.0,0.0,0.0,0.0,0.0,0.0,0.0,0.0,0.0,0.0,0.0,0.0,0.0,0.0,0.0,0.0,0.0,0.0,0.0,0.0,0.0,0.0,0.0,0.0,0.0,0.0,0.0,0.0,0.0,0.0,0.0,0.0,0.0,0.0,0.0,0.0,0.0,0.0,0.0,0.0,0.0,0.0,0.0,0.0,0.0,0.0054,0.0167,0.0224,0.0334,0.0647,0.0779,0.0899,0.1012,0.1109,0.0,0.0,0.0,0.1119,0.0,0.0,0.0,0.0,0.0,0.0,0.0,0.0,0.0,0.0,0.0,0.0,0.0,0.0,0.0,0.0,0.0917,0.0794,0.0551,0.0478,0.0,0.0,0.03,0.0225,0.0225,0.0094,0.0,0.0,0.0,0.0,0.0,0.0,0.0,0.0056,0.0168,0.0224,0.028,0.0561,0.0729,0.0785,0.1178,0.1513,0.1902,0.2521,0.3023,0.3469,0.3572,0.4015,0.4519,0.0,0.0,0.0,0.0,0.0,0.0,0.0,0.0,0.0,0.0,0.0,0.0,0.0,0.0,0.0,0.0,0.0,0.0,0.0,0.0,0.0,0.0,0.0,0.0,0.0,0.0,0.0,0.0,0.0,0.0,0.0,0.0,0.0,0.0,0.0,0.0,0.0,0.0,0.0,0.0,0.0,0.0,0.0,0.0,0.0045,0.0135,0.0045,0.0,0.0,0.0093,0.0145,0.015,0.026,0.0323,0.0333,0.0503,0.0617,0.0839,0.1274,0.1375,0.151,0.1942,0.1841,0.1658,0.0,0.0,0.0,0.0,0.0,0.0,0.0,0.0,0.0,0.0,0.0,0.0,0.0,0.0,0.0,0.2637,0.0,0.0,0.1475,0.1233,0.1088,0.103,0.0903,0.0,0.0,0.0,0.0628,0.045,0.0374,0.034,0.0303,0.0314,0.0271,0.028,0.028,0.0393,0.0505,0.0561,0.0673,0.0898,0.0954,0.1177,0.1512,0.1736,0.2127,0.2683,0.3079,0.3524,0.4027,0.4024,0.4242,0.4519,0.0,0.0,0.0,0.0,0.0,0.0,0.0,0.0,0.0,0.0,0.0,0.0,0.0,0.0,0.0,0.0,0.0,0.0,0.0,0.0,0.0,0.0,0.0,0.0,0.0,0.0,0.0,0.0,0.0,0.0,0.0,0.0,0.0,0.0,0.0,0.0,0.0,0.0,0.0,0.0,0.0,0.0,0.0,0.0045,0.018,0.027,0.0314,0.0269,0.0226,0.033,0.0391,0.0507,0.0632,0.0709,0.0785,0.1064,0.1232,0.14,0.1956,0.2075,0.2118,0.2566,0.2472,0.233,0.2415,0.2373,0.233,0.0,0.246,0.2485,0.0,0.0,0.0,0.0,0.0,0.0,0.0,0.0,0.0,0.0,0.2643,0.0,0.1917,0.1692,0.1552,0.1425,0.1353,0.0,0.0,0.0,0.1031,0.0898,0.0825,0.0762,0.0756,0.0772,0.0747,0.0785,0.0785,0.0842,0.0954,0.1121,0.1288,0.14,0.168,0.1958,0.2237,0.2517,0.2852,0.3239,0.3635,0.3968,0.4356,0.4356,0.4408,0.4519,0.0,0.0,0.0,0.0,0.0,0.0,0.0,0.0,0.0,0.0,0.0,0.0,0.0,0.0,0.0,0.0,0.0,0.0,0.0,0.0,0.0,0.0,0.0,0.0,0.0,0.0,0.0,0.0,0.0,0.0,0.0,0.0,0.0,0.0,0.0,0.0,0.0,0.0,0.0052,0.0102,0.0098,0.0096,0.0095,0.023,0.0361,0.0539,0.0716,0.0672,0.0588,0.0709,0.0834,0.0965,0.1165,0.126,0.1345,0.179,0.1958,0.2068,0.2681,0.2764,0.277,0.3016,0.3039,0.2957,0.2957,0.2957,0.2957,0.2957,0.2957,0.2998,0.3081,0.0,0.0,0.0,0.0,0.0,0.0,0.0,0.0,0.0,0.0,0.0,0.2251,0.2143,0.1971,0.1763,0.0,0.0,0.0,0.0,0.1514,0.1477,0.1343,0.1257,0.131,0.1311,0.1361,0.1402,0.1402,0.1458,0.1514,0.179,0.1958,0.2014,0.2571,0.2794,0.2847,0.3299,0.3522,0.3738,0.4079,0.4356,0.4519,0.4519,0.4574,0.4574,0.0,0.0,0.0,0.0,0.0,0.0,0.0,0.0,0.0,0.0,0.0,0.0,0.0,0.0,0.0,0.0,0.0,0.0,0.0,0.0,0.0,0.0,0.0,0.0,0.0,0.0,0.0,0.0,0.0,0.0,0.0,0.0,0.0,0.0,0.0,0.0,0.0168,0.0162,0.0,0.0579,0.0558,0.0588,0.0666,0.0709,0.083,0.0986,0.1164,0.103,0.0906,0.1366,0.1506,0.1583,0.1906,0.2006,0.2071,0.246,0.2625,0.2794,0.3292,0.3345,0.3321,0.3614,0.3416,0.3173,0.3309,0.3217,0.3173,0.3309,0.3309,0.3353,0.3486,0.0,0.0,0.0,0.0,0.0,0.0,0.0,0.0,0.0,0.0,0.2472,0.0,0.2132,0.0,0.0,0.0,0.0,0.0,0.0,0.2197,0.0,0.1921,0.1905,0.0,0.0,0.1932,0.2017,0.2017,0.2183,0.2458,0.2514,0.2738,0.3132,0.3246,0.3411,0.363,0.3685,0.3855,0.4135,0.4353,0.4522,0.4688,0.4688,0.4798,0.4963,0.0,0.0,0.0,0.0,0.0,0.0,0.0,0.0,0.0,0.0,0.0,0.0,0.0,0.0,0.0,0.0,0.0,0.0,0.0,0.0,0.0,0.0,0.0,0.0,0.0,0.0,0.0,0.0,0.0,0.0,0.0,0.0,0.0,0.0,0.0,0.028,0.0,0.0,0.0,0.0928,0.1,0.1027,0.1056,0.116,0.1318,0.1429,0.1713,0.1789,0.1761,0.192,0.2082,0.2338,0.2572,0.2758,0.2907,0.3183,0.3294,0.3461,0.3799,0.377,0.3667,0.3866,0.3654,0.3442,0.349,0.3442,0.3442,0.349,0.349,0.3534,0.3578,0.3581,0.0,0.0,0.0,0.0,0.0,0.0,0.0,0.0,0.0,0.0,0.0,0.0,0.0,0.0,0.0,0.0,0.0,0.0,0.2607,0.0,0.0,0.0,0.2536,0.0,0.2689,0.2834,0.2885,0.3021,0.3188,0.3239,0.3408,0.3633,0.3747,0.3913,0.4024,0.4128,0.4298,0.4467,0.4577,0.4743,0.4908,0.4959,0.523,0.5508,0.0,0.0,0.0,0.0,0.0,0.0,0.0,0.0,0.0,0.0,0.0,0.0,0.0,0.0,0.0,0.0,0.0,0.0,0.0,0.0,0.0,0.0,0.0,0.0,0.0,0.0,0.0056,0.0,0.0,0.0,0.0,0.0,0.0,0.0,0.0,0.0,0.0,0.0,0.1233,0.1399,0.1524,0.1607,0.1691,0.183,0.1917,0.1989,0.2316,0.2504,0.265,0.2505,0.2647,0.2899,0.3113,0.3319,0.3504,0.3718,0.3845,0.3923,0.4146,0.4036,0.3906,0.3979,0.3822,0.3615,0.3588,0.3581,0.3581,0.3581,0.3581,0.3581,0.3581,0.3581,0.0,0.0,0.0,0.0,0.0,0.0,0.0,0.0,0.0,0.0,0.2311,0.0,0.0,0.0,0.0,0.0,0.272,0.0,0.0,0.0,0.0,0.3013,0.3083,0.0,0.3332,0.3506,0.3632,0.3694,0.3749,0.3855,0.3907,0.3962,0.419,0.4304,0.4304,0.4463,0.4629,0.4798,0.4798,0.5018,0.5289,0.5445,0.5832,0.6164,0.0,0.0,0.0,0.0,0.0,0.0,0.0,0.0,0.0,0.0,0.0,0.0,0.0,0.0,0.0,0.0,0.0,0.0,0.0,0.0,0.0,0.0,0.0,0.0,0.0,0.0112,0.0168,0.0,0.0,0.0336,0.0,0.0,0.0,0.0,0.0,0.0,0.129,0.1568,0.1959,0.2408,0.2506,0.2674,0.2853,0.2741,0.274,0.2785,0.2816,0.2951,0.3129,0.3233,0.3233,0.322,0.345,0.3553,0.3613,0.3755,0.3897,0.3999,0.4161,0.4194,0.414,0.4006,0.3894,0.3737,0.3609,0.3581,0.3581,0.3581,0.3581,0.3581,0.3581,0.3581,0.3581,0.0,0.0,0.0,0.0,0.0,0.0,0.0,0.0,0.0,0.0,0.2639,0.0,0.0,0.2503,0.0,0.0,0.0,0.0,0.3344,0.3353,0.3375,0.3372,0.3507,0.364,0.3767,0.3902,0.4024,0.4138,0.4138,0.4245,0.4463,0.4463,0.4522,0.4636,0.4688,0.4853,0.5069,0.5171,0.5504,0.5946,0.6046,0.6485,0.7031,0.0,0.0,0.0,0.0,0.0,0.0,0.0,0.0392,0.032,0.031,0.012,0.0,0.0,0.0,0.0,0.0,0.0056,0.0112,0.0112,0.0168,0.0224,0.0224,0.0336,0.0393,0.0393,0.0561,0.0617,0.0,0.0,0.0,0.0,0.0,0.0,0.0,0.0,0.1849,0.2018,0.235,0.2627,0.291,0.3132,0.3274,0.3333,0.3321,0.3251,0.3229,0.3298,0.3336,0.335,0.3486,0.3537,0.3567,0.3675,0.3752,0.387,0.392,0.3959,0.4025,0.417,0.413,0.4046,0.4036,0.3904,0.3754,0.3612,0.3581,0.3581,0.3581,0.3581,0.3581,0.3581,0.3581,0.3581,0.3581,0.0,0.0,0.0,0.0,0.0,0.0,0.0,0.0,0.0,0.0,0.0,0.0,0.0,0.0,0.0,0.0,0.0,0.3524,0.0,0.3516,0.353,0.371,0.3849,0.3907,0.4186,0.4353,0.4356,0.4356,0.4467,0.4632,0.4632,0.4743,0.4963,0.5014,0.5285,0.5673,0.5773,0.6154,0.6647,0.6804,0.7182,0.761,0.1209,0.0,0.0876,0.0,0.0942,0.0875,0.0941,0.0847,0.0759,0.0681,0.0477,0.0288,0.0225,0.0224,0.028,0.028,0.0336,0.0393,0.0393,0.0505,0.0617,0.0617,0.0785,0.0,0.0898,0.1065,0.1177,0.1177,0.1233,0.0,0.0,0.0,0.0,0.2069,0.2406,0.2631,0.28,0.3074,0.3241,0.3411,0.3691,0.3805,0.3846,0.3824,0.3715,0.366,0.363,0.3592,0.3542,0.3592,0.3646,0.3731,0.3731,0.3802,0.389,0.389,0.3921,0.3985,0.4086,0.4053,0.4019,0.4019,0.3904,0.3754,0.3612,0.3581,0.3581,0.3581,0.3581,0.3581,0.3581,0.3581,0.3581,0.3581,0.0,0.0,0.0,0.3503,0.0,0.0,0.3183,0.3155,0.3155,0.3201,0.0,0.0,0.0,0.0,0.0,0.0,0.0,0.0,0.0,0.0,0.3581,0.3873,0.4019,0.4022,0.4321,0.4519,0.4519,0.4519,0.4629,0.4743,0.4849,0.5069,0.5399,0.55,0.5882,0.6327,0.648,0.6858,0.7348,0.7509,0.7771,0.8143,0.2079,0.1814,0.1614,0.1614,0.1614,0.1547,0.1344,0.128,0.1293,0.117,0.111,0.101,0.0729,0.0785,0.0898,0.0898,0.0898,0.0898,0.0898,0.101,0.1066,0.0,0.0,0.1291,0.1291,0.1624,0.179,0.179,0.0,0.0,0.2184,0.2516,0.2681,0.2736,0.3188,0.3413,0.3413,0.3688,0.3852,0.4024,0.4138,0.4301,0.4446,0.4251,0.4194,0.4153,0.39,0.3788,0.3768,0.3629,0.3581,0.3581,0.3581,0.3585,0.3585,0.3585,0.3683,0.3829,0.3982,0.4022,0.4019,0.4019,0.3904,0.3754,0.3612,0.3581,0.3581,0.3581,0.3581,0.3581,0.3581,0.3581,0.3581,0.3581,0.0,0.0,0.0,0.3821,0.0,0.3881,0.385,0.3778,0.3778,0.3862,0.0,0.0,0.0,0.0,0.0,0.0,0.0,0.3575,0.3581,0.3581,0.3581,0.3873,0.4019,0.4022,0.4321,0.4519,0.4519,0.4632,0.4794,0.4901,0.5171,0.5555,0.6,0.6154,0.6534,0.7085,0.7235,0.7551,0.7925,0.8109,0.8374,0.8573,0.2887,0.2552,0.2418,0.2621,0.2487,0.2403,0.2422,0.2273,0.2076,0.1975,0.2069,0.2179,0.2068,0.1513,0.1178,0.0,0.1401,0.1512,0.0,0.1736,0.1849,0.1849,0.2127,0.2237,0.2237,0.2516,0.2683,0.2683,0.0,0.0,0.3021,0.3239,0.3347,0.3461,0.3688,0.3802,0.3802,0.4024,0.4079,0.4138,0.4356,0.4463,0.4512,0.4412,0.4334,0.417,0.4019,0.388,0.3771,0.3629,0.3581,0.3581,0.3581,0.3581,0.3581,0.3581,0.368,0.3826,0.3978,0.4019,0.4019,0.4019,0.3904,0.3754,0.3612,0.3581,0.3581,0.3581,0.3581,0.3581,0.3581,0.3619,0.366,0.366,0.3836,0.0,0.4096,0.0,0.4277,0.4358,0.435,0.4354,0.4354,0.4367,0.0,0.0,0.0,0.0,0.0,0.0,0.0,0.3653,0.366,0.366,0.3581,0.3873,0.4019,0.4022,0.4321,0.4574,0.4632,0.4794,0.5014,0.5399,0.5668,0.6109,0.6657,0.6858,0.7235,0.7664,0.7836,0.8096,0.8408,0.8468,0.8586,0.8745,0.3758,0.3489,0.3353,0.3556,0.3394,0.3218,0.329,0.3045,0.2823,0.2712,0.2856,0.2961,0.3019,0.2519,0.0,0.1961,0.2183,0.2293,0.2293,0.2517,0.2631,0.2631,0.2907,0.3019,0.3019,0.3241,0.3352,0.3352,0.3408,0.3522,0.3635,0.3744,0.3852,0.3965,0.4132,0.4187,0.4187,0.4301,0.4301,0.4301,0.4463,0.4519,0.4519,0.4519,0.4406,0.4307,0.4107,0.4009,0.3856,0.3707,0.3626,0.3581,0.3581,0.3581,0.3581,0.3581,0.368,0.3826,0.3978,0.3978,0.3948,0.4005,0.3866,0.3704,0.367,0.3705,0.3767,0.3826,0.3883,0.3886,0.3886,0.3921,0.3921,0.3965,0.4188,0.4412,0.4535,0.0,0.4932,0.0,0.0,0.5145,0.0,0.5058,0.4971,0.0,0.0,0.0,0.0,0.0,0.3941,0.3917,0.3921,0.391,0.3886,0.4093,0.42,0.4209,0.4456,0.4632,0.4794,0.5066,0.5395,0.5837,0.6218,0.6707,0.7252,0.7515,0.783,0.8196,0.8315,0.8474,0.8685,0.8685,0.8745,0.8811,0.4625,0.4489,0.435,0.4342,0.4254,0.4046,0.39,0.3658,0.3523,0.3457,0.3424,0.3524,0.3638,0.3638,0.3527,0.3241,0.0,0.0,0.313,0.3355,0.3469,0.3469,0.3583,0.3638,0.3638,0.3799,0.3852,0.3852,0.3965,0.4021,0.4021,0.4135,0.4249,0.4249,0.4408,0.4519,0.4519,0.4519,0.4519,0.4519,0.4519,0.4519,0.4519,0.4519,0.4519,0.4498,0.4247,0.41,0.3995,0.3843,0.3697,0.3581,0.3592,0.3595,0.3595,0.3595,0.3697,0.3839,0.3992,0.3924,0.3839,0.3985,0.3805,0.3674,0.3808,0.3943,0.4091,0.4242,0.4345,0.4463,0.4451,0.4406,0.4376,0.4456,0.467,0.4927,0.5053,0.5453,0.5723,0.0,0.0,0.6019,0.6019,0.5852,0.5766,0.0,0.0,0.0,0.0,0.0,0.4403,0.436,0.4372,0.4373,0.4451,0.4589,0.4618,0.4572,0.4671,0.4794,0.4952,0.5454,0.5887,0.6317,0.6864,0.7348,0.7777,0.8109,0.8374,0.8626,0.8626,0.8692,0.8804,0.8804,0.8811,0.8857,0.4954,0.0,0.4728,0.4758,0.4583,0.443,0.4345,0.4148,0.4016,0.386,0.3934,0.4027,0.4027,0.419,0.4242,0.4184,0.3852,0.363,0.363,0.3799,0.3855,0.3855,0.3968,0.4082,0.4082,0.4242,0.4349,0.4349,0.4353,0.4408,0.4408,0.4408,0.4408,0.4408,0.4463,0.4519,0.4519,0.4519,0.4519,0.4519,0.4519,0.4519,0.4519,0.4519,0.4519,0.4498,0.4247,0.41,0.3995,0.3843,0.3697,0.3598,0.3707,0.3741,0.3741,0.3741,0.3846,0.3999,0.4103,0.4033,0.3975,0.4012,0.3928,0.3986,0.4206,0.4415,0.462,0.4857,0.4931,0.4904,0.4854,0.4969,0.5024,0.4863,0.5193,0.5496,0.562,0.5879,0.6105,0.0,0.6282,0.6325,0.6325,0.6239,0.6196,0.0,0.0,0.5922,0.5841,0.5669,0.5361,0.4836,0.4992,0.5006,0.4874,0.5056,0.5153,0.5108,0.5152,0.5336,0.5609,0.5937,0.6372,0.6918,0.7348,0.783,0.8262,0.8415,0.858,0.8752,0.8752,0.8752,0.8804,0.8804,0.8857,0.8956,0.5223,0.516,0.5051,0.497,0.4829,0.471,0.4607,0.4458,0.4332,0.4252,0.4298,0.4356,0.4356,0.4408,0.4519,0.4519,0.4239,0.4128,0.4128,0.4187,0.4242,0.4242,0.4298,0.4356,0.4356,0.4463,0.4519,0.4519,0.4519,0.4519,0.4519,0.4519,0.4519,0.4519,0.4519,0.4519,0.4519,0.4519,0.4519,0.4519,0.4519,0.4519,0.4519,0.4519,0.4519,0.4508,0.4375,0.425,0.406,0.4029,0.39,0.3795,0.3873,0.3894,0.391,0.3978,0.406,0.4141,0.4275,0.4289,0.4256,0.4289,0.4402,0.4546,0.4767,0.5064,0.5369,0.5551,0.5752,0.5848,0.5834,0.5922,0.5965,0.5768,0.6008,0.6194,0.611,0.6349,0.6532,0.6623,0.666,0.6653,0.6653,0.666,0.6631,0.6699,0.6624,0.0,0.6717,0.673,0.6394,0.5647,0.5727,0.5799,0.5809,0.5728,0.5721,0.5714,0.5714,0.5828,0.6105,0.6534,0.6966,0.7402,0.783,0.8203,0.8527,0.8639,0.8745,0.8804,0.8804,0.8804,0.8804,0.8804,0.891,0.9061,0.5428,0.5428,0.5311,0.5148,0.5009,0.486,0.4684,0.4548,0.4519,0.4519,0.4519,0.4519,0.4519,0.4519,0.4519,0.4519,0.4519,0.4519,0.4519,0.4519,0.4519,0.4519,0.4519,0.4519,0.4519,0.4519,0.4519,0.4519,0.4519,0.4519,0.4519,0.4519,0.4519,0.4519,0.4519,0.4519,0.4519,0.4519,0.4519,0.4519,0.4519,0.4519,0.4519,0.4519,0.4519,0.4519,0.4519,0.4368,0.4197,0.4197,0.4093,0.4022,0.4046,0.4056,0.4033,0.4184,0.428,0.4333,0.4485,0.4572,0.4673,0.4811,0.5035,0.5294,0.5499,0.5878,0.6215,0.6387,0.6702,0.6916,0.6928,0.6961,0.6984,0.6758,0.6823,0.6816,0.6662,0.6806,0.6914,0.6914,0.6985,0.6979,0.6979,0.6989,0.7078,0.7321,0.7251,0.734,0.7631,0.7643,0.7358,0.6742,0.6643,0.6721,0.6921,0.66,0.6426,0.6372,0.6372,0.6485,0.6598,0.7128,0.7557,0.783,0.8262,0.8527,0.8633,0.8752,0.8804,0.8804,0.8804,0.8804,0.8804,0.8804,0.891,0.9106,0.5428,0.5428,0.5367,0.5104,0.4986,0.4823,0.4541,0.4532,0.4519,0.4519,0.4519,0.4519,0.4519,0.4519,0.4519,0.4519,0.4519,0.4519,0.4519,0.4519,0.4519,0.4519,0.4519,0.4519,0.4519,0.4519,0.4519,0.4519,0.4519,0.4519,0.4519,0.4519,0.4519,0.4519,0.4519,0.4519,0.4519,0.4519,0.4519,0.4519,0.4519,0.4519,0.4519,0.4519,0.4519,0.4519,0.4519,0.4368,0.4197,0.4197,0.4093,0.4043,0.412,0.416,0.419,0.4385,0.4539,0.4652,0.4809,0.5026,0.5233,0.5498,0.5681,0.5976,0.6452,0.6775,0.7042,0.7391,0.7528,0.7541,0.7479,0.7571,0.7555,0.7319,0.7268,0.7193,0.7192,0.7058,0.6985,0.6985,0.6985,0.6979,0.6979,0.7248,0.7422,0.7468,0.7669,0.7788,0.7834,0.7834,0.7927,0.8082,0.7735,0.7575,0.7553,0.7486,0.7402,0.73,0.73,0.7354,0.7509,0.7717,0.7984,0.8315,0.8468,0.8633,0.8752,0.8804,0.8804,0.8804,0.8804,0.8804,0.8804,0.891,0.9113,0.9413,0.5428,0.5428,0.5363,0.5161,0.4982,0.4816,0.4567,0.4519,0.4519,0.4519,0.4519,0.4519,0.4519,0.4519,0.4519,0.4519,0.4519,0.4519,0.4519,0.4519,0.4519,0.4519,0.4519,0.4519,0.4519,0.4519,0.4519,0.4519,0.4519,0.4519,0.4519,0.4519,0.4519,0.4519,0.4519,0.4519,0.4519,0.4519,0.4519,0.4519,0.4519,0.4519,0.4519,0.4519,0.4519,0.4519,0.4519,0.4419,0.4365,0.4365,0.4317,0.427,0.4341,0.4419,0.4487,0.4556,0.4794,0.5066,0.5336,0.5766,0.6212,0.6421,0.6681,0.697,0.7227,0.7482,0.7735,0.7949,0.8103,0.8165,0.8138,0.8236,0.8255,0.7963,0.7905,0.7808,0.7649,0.741,0.7261,0.7261,0.7261,0.7261,0.7261,0.7535,0.7782,0.799,0.809,0.8237,0.8397,0.8404,0.8464,0.8604,0.8339,0.8235,0.8196,0.8049,0.7949,0.7895,0.7895,0.7895,0.7996,0.8203,0.8362,0.8521,0.8633,0.8745,0.8804,0.8804,0.8804,0.8804,0.8804,0.8857,0.891,0.9061,0.9309,0.9718,0.5428,0.5391,0.5301,0.506,0.4938,0.4775,0.456,0.4519,0.4519,0.4519,0.4519,0.4519,0.4519,0.4519,0.4519,0.4519,0.4519,0.4519,0.4519,0.4519,0.4519,0.4519,0.4519,0.4519,0.4519,0.4519,0.4519,0.4519,0.4519,0.4519,0.4519,0.4519,0.4519,0.4519,0.4519,0.4519,0.4519,0.4519,0.4519,0.4519,0.4519,0.4519,0.4519,0.4519,0.4519,0.4519,0.4519,0.4519,0.4519,0.4519,0.4519,0.4519,0.4519,0.4629,0.4743,0.4798,0.5175,0.5664,0.5991,0.6539,0.709,0.73,0.7568,0.783,0.7883,0.8103,0.8321,0.8328,0.848,0.8633,0.8633,0.8745,0.8738,0.851,0.8417,0.8297,0.807,0.7769,0.7575,0.7575,0.7575,0.7575,0.7575,0.7856,0.813,0.8357,0.8437,0.8571,0.8798,0.8804,0.8804,0.8804,0.8692,0.8633,0.8633,0.8427,0.8328,0.8328,0.8328,0.8328,0.8328,0.8533,0.8633,0.8633,0.8752,0.8804,0.8857,0.8857,0.8857,0.891,0.891,0.8956,0.9106,0.9263,0.9614,1.0028,0.5428,0.5277,0.505,0.4948,0.4806,0.4653,0.4543,0.4519,0.4519,0.4519,0.4519,0.4519,0.4519,0.4519,0.4519,0.4519,0.4519,0.4519,0.4519,0.4519,0.4519,0.4519,0.4519,0.4519,0.4519,0.4519,0.4519,0.4519,0.4519,0.4519,0.4519,0.4519,0.4519,0.4519,0.4519,0.4519,0.4519,0.4519,0.4519,0.4519,0.4519,0.4519,0.4519,0.4519,0.4519,0.4519,0.4519,0.4519,0.4519,0.4519,0.4519,0.4519,0.4632,0.4794,0.4956,0.5171,0.5828,0.6588,0.6918,0.7246,0.7574,0.8002,0.8162,0.8215,0.8468,0.8573,0.8633,0.8752,0.8752,0.8804,0.8804,0.8804,0.8798,0.8778,0.855,0.837,0.8343,0.8083,0.7848,0.7848,0.7848,0.7848,0.7848,0.817,0.835,0.8377,0.8624,0.8784,0.8804,0.8804,0.8804,0.8804,0.8804,0.8804,0.8804,0.8752,0.8752,0.8752,0.8752,0.8752,0.8752,0.8752,0.8804,0.8804,0.8804,0.8857,0.9008,0.9008,0.9061,0.9159,0.9159,0.9263,0.9413,0.9666,1.0028,1.0454,0.5428,0.5367,0.5181,0.4707,0.4745,0.4748,0.4556,0.4519,0.4519,0.4519,0.4519,0.4519,0.4519,0.4519,0.4519,0.4519,0.4519,0.4519,0.4519,0.4519,0.4519,0.4519,0.4519,0.4519,0.4519,0.4519,0.4519,0.4519,0.4519,0.4519,0.4519,0.4519,0.4519,0.4519,0.4519,0.4519,0.4519,0.4519,0.4519,0.4519,0.4519,0.4519,0.4519,0.4519,0.4519,0.4519,0.4519,0.4519,0.4519,0.4577,0.4632,0.4688,0.4908,0.5124,0.5449,0.6209,0.6756,0.7241,0.7777,0.7943,0.8002,0.8368,0.8533,0.8593,0.8692,0.8745,0.8745,0.8804,0.8804,0.8804,0.8804,0.8804,0.8804,0.8804,0.8711,0.8644,0.8644,0.839,0.8203,0.8203,0.8203,0.8203,0.8203,0.847,0.8644,0.8644,0.8744,0.8804,0.8804,0.8804,0.8804,0.8804,0.8804,0.8804,0.8804,0.8804,0.8857,0.891,0.891,0.9008,0.9159,0.9159,0.9211,0.9309,0.9309,0.9309,0.9361,0.9361,0.9458,0.9562,0.9562,0.9777,1.0035,1.0241,1.0659,1.1167,0.5428,0.5428,0.5294,0.4876,0.4813,0.4809,0.4633,0.4606,0.4606,0.4606,0.4565,0.4591,0.4591,0.4546,0.4519,0.4519,0.4519,0.4519,0.4519,0.4519,0.4519,0.4519,0.4519,0.4519,0.4519,0.4519,0.4519,0.4519,0.4519,0.4519,0.4519,0.4519,0.4519,0.4519,0.4519,0.4519,0.4519,0.4519,0.4519,0.4519,0.4519,0.4519,0.4519,0.4519,0.4519,0.4519,0.4519,0.4519,0.4574,0.4743,0.4794,0.4959,0.5289,0.5727,0.6268,0.7079,0.7515,0.7842,0.8315,0.8368,0.8374,0.858,0.8745,0.8804,0.8804,0.8804,0.8804,0.8804,0.8804,0.8804,0.8804,0.8804,0.8804,0.8804,0.8804,0.8804,0.8804,0.8637,0.851,0.851,0.851,0.851,0.851,0.8691,0.8804,0.8804,0.8804,0.8804,0.8804,0.8804,0.8804,0.8857,0.8857,0.8857,0.891,0.8857,0.8857,0.9008,0.9061,0.9211,0.9465,0.9517,0.9614,0.9718,0.9718,0.9769,0.9829,0.9829,0.9976,1.0131,1.0131,1.0395,1.071,1.0871,1.1276,1.1728,0.5428,0.5428,0.5428,0.5428,0.5095,0.4799,0.4904,0.4918,0.4918,0.4918,0.4785,0.4691,0.4691,0.4555,0.4519,0.4519,0.4519,0.4519,0.4519,0.4519,0.4519,0.4519,0.4519,0.4519,0.4519,0.4519,0.4519,0.4519,0.4519,0.4519,0.4519,0.4519,0.4519,0.4519,0.4519,0.4519,0.4519,0.4519,0.4519,0.4519,0.4519,0.4519,0.4519,0.4519,0.4519,0.4519,0.4519,0.4577,0.4743,0.4846,0.5062,0.5391,0.5837,0.6593,0.7343,0.7616,0.7943,0.8268,0.8527,0.8626,0.8633,0.8752,0.8804,0.8804,0.8804,0.8804,0.8804,0.8804,0.8804,0.8804,0.8804,0.8804,0.8804,0.8804,0.8804,0.8804,0.8804,0.8804,0.8804,0.8804,0.8804,0.8804,0.8804,0.8804,0.8804,0.8804,0.8804,0.8804,0.8811,0.8811,0.8857,0.9008,0.9008,0.9061,0.9211,0.8956,0.8857,0.9008,0.9159,0.9361,0.9614,0.9769,0.9865,1.0012,1.0012,1.0182,1.0403,1.0403,1.0608,1.0922,1.0922,1.1074,1.1326,1.1477,1.1778,1.2126,0.5428,0.5428,0.5428,0.5428,0.5329,0.5125,0.4945,0.4918,0.4918,0.4918,0.4785,0.4691,0.4691,0.4555,0.4519,0.4519,0.4519,0.4519,0.4519,0.4519,0.4519,0.4632,0.4574,0.4519,0.4519,0.4519,0.4519,0.4519,0.4519,0.4519,0.4519,0.4577,0.4632,0.4632,0.4849,0.4904,0.4904,0.5011,0.5062,0.5062,0.5062,0.5062,0.5062,0.5062,0.5062,0.5062,0.5062,0.5062,0.5175,0.5445,0.5668,0.5941,0.6696,0.7289,0.7771,0.8096,0.8315,0.8527,0.8692,0.8745,0.8752,0.8804,0.8804,0.8804,0.8804,0.8804,0.8804,0.8804,0.8804,0.8804,0.8804,0.8804,0.8804,0.8804,0.8804,0.8804,0.8804,0.8804,0.8857,0.891,0.8962,0.8956,0.9061,0.9008,0.8962,0.8962,0.8962,0.9008,0.9211,0.9211,0.9263,0.9413,0.9413,0.9465,0.9614,0.9263,0.9263,0.9562,0.971,1.0079,1.0659,1.0804,1.0956,1.1209,1.1209,1.1259,1.1318,1.1318,1.1418,1.1628,1.1628,1.1778,1.2026,1.2026,1.2274,1.2529,0.5428,0.5428,0.5428,0.5428,0.5428,0.5301,0.5121,0.5094,0.5074,0.5009,0.4874,0.4758,0.4697,0.4555,0.4519,0.4519,0.4574,0.4574,0.4574,0.4684,0.4794,0.4853,0.4904,0.4849,0.4739,0.4739,0.4739,0.4791,0.4791,0.4791,0.4846,0.4901,0.4959,0.5073,0.5238,0.5344,0.5395,0.5445,0.55,0.55,0.55,0.55,0.55,0.55,0.55,0.55,0.55,0.555,0.5714,0.5937,0.6322,0.681,0.7456,0.7883,0.8196,0.8415,0.858,0.8692,0.8752,0.8804,0.8804,0.8804,0.8804,0.8804,0.8804,0.8804,0.8804,0.8804,0.8804,0.8804,0.8804,0.8804,0.8804,0.8804,0.8857,0.8857,0.8857,0.8956,0.9061,0.9159,0.9211,0.9263,0.9361,0.9263,0.9263,0.9263,0.9263,0.9361,0.9562,0.9614,0.9718,0.9925,0.9925,1.0035,1.0233,0.9984,0.9932,1.0028,1.0182,1.06,1.1276,1.1427,1.1628,1.1877,1.1877,1.1877,1.1927,1.1927,1.2026,1.2126,1.2126,1.2283,1.248,1.248,1.2578,1.2783,0.5432,0.5428,0.5428,0.5428,0.5428,0.5428,0.5428,0.5428,0.5308,0.5148,0.5006,0.486,0.4707,0.4611,0.4519,0.4574,0.4688,0.4743,0.4798,0.5014,0.5183,0.5179,0.5508,0.5513,0.5289,0.5179,0.523,0.5332,0.5332,0.5332,0.5332,0.5386,0.55,0.5673,0.5727,0.5782,0.5937,0.5937,0.5937,0.5937,0.5937,0.5937,0.5937,0.5937,0.5937,0.5937,0.5937,0.61,0.6317,0.6485,0.7079,0.783,0.8162,0.8427,0.8626,0.8626,0.8692,0.8804,0.8804,0.8804,0.8804,0.8804,0.8804,0.8804,0.8804,0.8804,0.8804,0.8804,0.8804,0.8804,0.8804,0.8804,0.8804,0.8857,0.8956,0.9061,0.9061,0.9263,0.9465,0.9465,0.9614,0.9666,0.9718,0.9666,0.9666,0.9666,0.9769,0.9865,0.9917,1.0072,1.0226,1.0506,1.0506,1.0659,1.0972,1.0972,1.0812,1.0506,1.0718,1.1074,1.1569,1.1728,1.1927,1.2175,1.2175,1.2224,1.2323,1.2323,1.2431,1.2529,1.2529,1.2627,1.2725,1.2725,1.2783,1.2881,0.5452,0.5428,0.5428,0.5428,0.5428,0.5428,0.5428,0.5428,0.5308,0.5148,0.5006,0.4863,0.4889,0.4727,0.4743,0.4959,0.512,0.523,0.5399,0.5458,0.5618,0.5937,0.6046,0.6268,0.6647,0.5991,0.5664,0.5719,0.5719,0.5719,0.5719,0.5882,0.6046,0.61,0.6539,0.6815,0.681,0.7031,0.7139,0.7139,0.7139,0.7139,0.7139,0.7139,0.7139,0.7139,0.7139,0.7192,0.7246,0.7503,0.7877,0.8262,0.8468,0.8633,0.8752,0.8752,0.8752,0.8804,0.8804,0.8804,0.8804,0.8804,0.8804,0.8804,0.8804,0.8804,0.8804,0.8804,0.8804,0.8857,0.8956,0.8956,0.9008,0.9263,0.9309,0.9361,0.9614,0.9666,0.9821,1.0138,1.019,1.0344,1.0608,1.0395,1.0249,1.0249,1.0241,1.0498,1.0956,1.1015,1.1158,1.1418,1.1418,1.1519,1.1678,1.1678,1.1528,1.1267,1.1418,1.1778,1.2283,1.2431,1.2578,1.2735,1.2735,1.2735,1.2783,1.2783,1.2783,1.2832,1.2832,1.2832,1.2881,1.2881,1.2881,1.2929,0.5922,0.5888,0.5888,0.5888,0.5822,0.5752,0.5752,0.569,0.5542,0.5366,0.5265,0.5184,0.5118,0.5127,0.5238,0.5395,0.5609,0.5773,0.5887,0.6159,0.6431,0.6647,0.6804,0.7074,0.7402,0.7015,0.6745,0.6593,0.6593,0.6593,0.6593,0.6756,0.6858,0.6912,0.7241,0.7402,0.7503,0.7616,0.767,0.767,0.767,0.767,0.767,0.767,0.767,0.767,0.767,0.7729,0.7895,0.815,0.8362,0.8527,0.8633,0.8745,0.8804,0.8804,0.8804,0.8804,0.8804,0.8804,0.8804,0.8804,0.8804,0.8804,0.8804,0.8804,0.8804,0.8857,0.891,0.8956,0.9159,0.9263,0.9361,0.9562,0.9777,0.9932,1.0079,1.0336,1.06,1.0812,1.0964,1.1184,1.1516,1.143,1.1318,1.1318,1.1369,1.1456,1.1586,1.1628,1.1778,1.1977,1.1977,1.2076,1.2175,1.2175,1.2126,1.2076,1.2026,1.2175,1.2578,1.2686,1.2774,1.2881,1.2881,1.2881,1.2881,1.2881,1.2881,1.2881,1.2881,1.2881,1.2881,1.2881,1.2929,1.3027,0.6556,0.6502,0.6482,0.6482,0.6412,0.6342,0.6342,0.6148,0.5963,0.5738,0.5755,0.5675,0.5483,0.5668,0.5891,0.5991,0.6263,0.6426,0.648,0.6918,0.7246,0.73,0.7616,0.783,0.783,0.7984,0.7877,0.7568,0.7568,0.7568,0.7568,0.7628,0.7681,0.7777,0.783,0.7931,0.8037,0.8037,0.8037,0.8037,0.8037,0.8037,0.8037,0.8037,0.8037,0.8037,0.8037,0.8156,0.8328,0.858,0.8633,0.8633,0.8752,0.8804,0.8804,0.8804,0.8804,0.8804,0.8804,0.8804,0.8804,0.8804,0.8804,0.8811,0.8804,0.8857,0.8857,0.9008,0.9061,0.9211,0.9465,0.9666,0.9821,1.002,1.0344,1.0557,1.0659,1.1175,1.1523,1.1573,1.1888,1.2202,1.2474,1.2501,1.2501,1.2501,1.2543,1.2413,1.2145,1.2162,1.2274,1.2382,1.2382,1.2508,1.2683,1.2616,1.2665,1.2831,1.2634,1.2596,1.2725,1.2725,1.2774,1.2881,1.2881,1.2881,1.2881,1.2881,1.2881,1.2881,1.2881,1.2881,1.2881,1.2929,1.3027,1.3172,0.7124,0.6981,0.6863,0.6863,0.6798,0.6798,0.6798,0.6793,0.666,0.6341,0.6293,0.6262,0.6087,0.6593,0.6923,0.6918,0.7192,0.7354,0.7509,0.7563,0.7729,0.8055,0.8109,0.8268,0.8468,0.8521,0.8302,0.7824,0.7824,0.7824,0.7877,0.8002,0.8115,0.8162,0.8362,0.8468,0.8521,0.8639,0.8699,0.8699,0.8699,0.8699,0.8699,0.8699,0.8699,0.8699,0.8699,0.8699,0.8699,0.8752,0.8752,0.8752,0.8804,0.8804,0.8804,0.8804,0.8804,0.8804,0.8804,0.8804,0.8804,0.8804,0.8804,0.8804,0.8962,0.8956,0.9008,0.9159,0.9361,0.9621,1.0043,1.0198,1.0446,1.1015,1.1116,1.1318,1.1669,1.2064,1.2425,1.2641,1.3165,1.3516,1.3411,1.3411,1.3411,1.3411,1.3075,1.2903,1.3113,1.2819,1.2676,1.2832,1.2832,1.2998,1.3367,1.3017,1.3007,1.3367,1.3367,1.3182,1.2881,1.2881,1.2881,1.2881,1.2881,1.2881,1.2881,1.2881,1.2881,1.2881,1.2881,1.2881,1.2929,1.3027,1.321,1.342,0.819,0.8103,0.8102,0.8102,0.7902,0.7772,0.7772,0.7647,0.7433,0.719,0.7131,0.7085,0.6965,0.7241,0.7456,0.7557,0.7783,0.7895,0.8002,0.8096,0.8256,0.8421,0.8487,0.8593,0.8692,0.8692,0.8586,0.8421,0.8421,0.8421,0.8421,0.848,0.854,0.854,0.8639,0.8692,0.8692,0.8752,0.8804,0.8804,0.8804,0.8804,0.8804,0.8804,0.8804,0.8804,0.8804,0.8804,0.8804,0.8804,0.8804,0.8804,0.8804,0.8804,0.8804,0.8804,0.8804,0.8804,0.891,0.891,0.8962,0.9113,0.9159,0.9159,0.9316,0.9472,0.9577,0.9517,0.9725,1.0087,1.0608,1.0863,1.1167,1.1569,1.1778,1.1927,1.2076,1.2619,1.3119,1.3504,1.3811,1.4077,1.4253,1.4282,1.4282,1.4282,1.4055,1.3792,1.3423,1.3229,1.3075,1.2891,1.3105,1.332,1.3506,1.3555,1.3672,1.3857,1.3857,1.3633,1.3232,1.3232,1.3232,1.3213,1.2988,1.2881,1.2881,1.2881,1.2881,1.2881,1.2881,1.2881,1.2929,1.3027,1.3258,1.3563]}]]